GFSMA_sfc_30mbdewp_000.txt.gz
Dewpoint
54 53 51 49 49 51 51 52 50 47 40 37 40 41 39 39 41 37 37 41 47 48 50 50 51 53 54 56 58 60 61 62 61 62 62 62 62 62 62 63 64 64 64
52 49 46 44 44 45 48 49 47 44 39 37 38 40 38 37 38 38 34 37 42 49 51 51 52 54 54 55 56 57 58 60 61 61 61 61 61 62 61 62 63 64 64
48 48 44 44 44 45 48 50 50 45 41 37 37 38 38 38 36 36 35 33 38 44 48 49 50 50 49 50 51 52 54 57 58 60 61 61 62 62 61 61 61 62 63
50 48 45 44 44 46 45 46 46 44 41 37 34 35 35 35 35 36 35 33 32 32 43 47 48 47 46 47 46 47 49 51 53 55 58 61 61 61 62 62 62 62 62
46 47 45 44 45 45 44 45 44 43 41 37 34 34 35 34 33 32 32 35 35 33 32 43 45 45 45 44 41 43 46 50 52 53 54 58 60 61 61 62 62 62 62
42 44 44 45 47 46 45 43 44 43 41 39 33 30 33 35 35 33 33 32 31 36 35 36 37 38 37 39 37 37 42 44 46 52 51 57 57 60 61 60 61 62 62
41 42 41 42 43 43 44 46 45 44 44 41 39 35 34 36 37 34 33 32 30 34 36 38 33 31 33 31 31 39 40 43 44 44 48 51 51 55 57 60 61 61 61
36 36 38 39 39 40 41 43 44 44 44 43 40 37 33 32 34 35 34 32 33 33 35 37 32 31 29 28 33 38 39 41 44 46 45 47 45 50 51 54 58 60 60
35 35 36 38 39 39 37 38 40 41 40 42 42 40 35 31 31 31 35 33 33 35 34 33 29 28 28 30 31 34 38 40 44 45 43 48 45 45 47 50 55 57 59
34 35 35 37 38 37 37 36 35 37 38 38 38 40 42 39 36 32 33 35 34 35 35 31 29 30 29 27 27 34 36 41 45 48 43 43 44 44 45 49 52 53 57
32 33 36 37 38 37 36 39 40 40 40 40 38 38 40 40 38 36 33 32 32 32 29 31 32 31 31 29 27 35 40 39 41 47 48 45 46 46 46 46 49 50 51
30 32 36 37 38 38 37 37 39 40 39 39 38 38 37 35 34 33 31 31 31 29 29 31 31 31 31 30 28 31 33 36 33 41 44 46 48 49 46 44 44 48 48
30 33 37 36 35 36 36 36 37 37 37 37 37 37 38 37 37 37 36 34 34 31 31 30 30 30 30 30 28 33 36 27 28 38 41 46 46 48 49 48 46 46 47
34 37 36 35 36 36 37 37 37 36 36 36 36 36 36 36 36 35 34 34 33 36 34 32 30 29 28 28 29 33 27 28 28 33 38 41 43 39 41 42 45 43 41
34 35 36 34 31 32 32 33 35 35 34 34 33 32 33 35 35 34 34 32 32 29 27 26 26 27 26 26 26 26 28 32 28 30 35 34 35 36 35 36 40 42 44
36 33 31 30 31 32 35 35 34 34 33 31 30 27 24 24 26 27 26 25 24 22 18 17 16 17 19 19 22 22 23 27 30 31 34 31 32 33 32 33 34 36 41
32 31 30 31 33 35 37 36 33 31 26 25 24 23 22 22 21 19 19 19 19 18 16 15 16 16 18 20 22 23 22 22 24 31 33 28 27 28 29 28 30 34 37
34 33 35 36 36 36 32 30 28 25 22 20 21 21 19 15 17 18 18 19 19 19 18 17 17 17 18 19 21 22 22 21 21 22 32 33 30 28 29 29 29 33 36
36 37 36 35 34 32 30 26 22 21 21 22 20 19 18 19 19 18 19 19 18 17 17 17 16 17 17 18 18 20 21 22 22 23 27 33 33 34 33 31 31 32 35
30 29 27 26 26 24 22 20 19 20 19 18 19 20 19 19 19 18 17 17 16 15 15 14 14 14 15 16 16 17 17 19 20 19 20 21 24 30 33 32 31 32 35
19 18 17 18 18 18 16 22 18 19 19 19 20 20 19 20 22 22 20 17 16 15 15 15 15 15 16 16 16 17 18 19 20 21 21 22 22 22 23 27 26 33 32
16 17 17 17 18 17 25 26 25 21 19 18 17 17 18 19 18 20 21 21 23 21 19 18 17 18 18 18 19 19 20 20 19 22 21 23 25 24 23 23 24 29 32
17 17 17 19 19 19 22 22 22 19 17 17 18 17 16 14 16 17 19 22 22 22 23 22 21 21 20 21 21 22 22 21 19 19 21 23 25 28 30 26 26 28 31
16 17 18 18 18 17 20 21 20 18 18 18 18 17 16 15 16 20 20 20 20 21 22 23 22 20 20 20 21 21 21 23 24 22 22 23 26 26 28 30 29 31 33
17 17 18 18 18 18 20 19 19 18 18 18 17 17 18 21 21 22 22 24 22 21 22 24 23 23 24 25 25 23 26 23 24 21 21 20 24 25 25 28 30 30 32
17 19 21 21 20 19 19 18 18 18 19 20 21 21 22 22 22 23 25 25 22 19 20 23 23 28 28 24 26 25 25 23 22 21 21 20 20 21 23 27 28 31 31

GFSMA_sfc_30mbdewp_006.txt.gz
Dewpoint
54 53 51 49 48 48 47 48 48 48 49 45 43 40 42 43 41 41 44 42 39 44 46 47 49 52 53 55 57 59 60 61 61 62 62 61 62 62 62 61 60 60 60
52 52 50 50 48 48 48 47 47 48 49 47 44 42 40 42 41 42 41 43 42 42 48 49 50 51 52 54 55 57 58 59 61 61 62 62 61 62 62 62 61 61 61
50 51 50 49 50 50 49 48 49 48 48 48 46 44 42 42 42 41 42 42 41 44 48 51 51 52 52 51 52 52 53 55 57 59 62 62 62 62 62 62 62 62 62
49 50 50 50 50 52 50 50 49 48 47 47 47 46 43 42 42 42 41 41 41 40 46 50 52 51 49 48 48 47 48 50 52 54 57 61 61 62 62 62 61 61 61
49 48 48 50 51 50 50 50 49 49 48 48 47 45 45 44 41 41 41 40 41 40 42 46 50 50 50 48 46 44 45 46 49 52 53 56 59 61 61 61 61 61 61
46 46 46 48 50 49 47 48 50 48 47 47 46 46 47 46 45 43 40 41 41 41 40 42 48 49 49 48 44 42 41 42 44 45 49 53 56 59 61 61 61 62 61
43 44 43 44 43 44 45 45 45 43 43 46 45 44 43 44 47 46 44 41 40 40 40 39 45 43 44 47 46 41 39 40 41 43 45 47 51 56 57 58 61 61 61
42 40 41 42 43 43 42 44 45 43 41 41 42 41 38 38 41 42 43 43 41 41 39 40 41 41 40 43 45 43 38 40 41 43 44 46 48 53 53 53 55 57 61
40 40 39 41 42 41 40 41 42 41 41 40 40 39 37 36 38 39 40 41 43 45 47 47 42 41 42 39 40 41 42 41 41 40 41 44 47 49 51 51 50 51 55
40 37 37 40 41 41 40 42 40 42 41 39 41 41 40 39 38 37 39 40 41 43 46 47 46 46 42 38 40 41 40 40 42 41 40 41 45 46 49 48 49 50 53
37 36 36 38 40 39 40 42 40 42 42 40 39 37 37 36 37 36 34 36 37 40 44 48 48 47 46 38 36 37 38 36 40 45 46 42 42 44 46 48 47 49 51
35 36 37 38 39 39 38 41 42 41 40 40 39 38 36 35 34 34 33 33 34 37 39 41 47 46 46 45 39 39 38 38 40 41 46 46 44 43 43 44 46 48 49
36 35 37 37 38 38 39 39 39 41 39 39 38 38 38 36 35 34 33 33 32 34 36 39 41 44 44 46 44 41 38 37 35 37 40 45 46 48 49 50 49 49 47
36 35 38 38 38 38 39 39 38 38 38 39 37 37 36 36 36 36 35 34 31 33 34 36 39 41 43 45 43 40 38 33 32 37 37 39 42 38 41 45 47 48 48
35 36 38 38 37 38 38 37 37 36 37 37 37 38 36 36 36 36 35 35 33 30 28 27 35 38 40 42 43 40 37 33 31 34 37 35 37 36 34 34 35 39 41
35 36 37 38 37 37 37 36 37 36 35 35 36 36 37 35 34 32 33 34 34 32 30 30 27 26 27 29 37 38 34 35 33 33 32 29 30 30 32 33 34 35 37
34 34 34 34 35 35 37 37 36 35 32 30 31 31 31 31 31 31 29 27 25 26 25 23 24 24 24 27 26 25 27 32 34 33 31 29 29 30 30 30 29 28 29
33 32 31 30 31 31 33 32 34 33 31 30 28 27 27 26 26 24 24 24 23 23 22 20 21 21 21 22 23 25 26 24 27 32 32 31 29 28 30 30 28 27 27
29 26 23 22 21 21 21 20 20 23 23 21 21 22 22 22 22 22 22 22 22 22 22 21 20 20 20 21 20 22 22 24 25 23 30 32 32 30 30 31 29 29 29
22 20 20 20 21 20 19 22 22 23 22 21 21 20 21 21 22 23 23 23 22 21 20 20 19 19 19 20 20 18 19 21 21 21 20 24 32 32 31 31 30 30 30
20 19 19 20 21 20 22 23 23 21 21 20 20 19 19 21 23 23 20 21 20 20 19 19 19 19 19 19 20 23 24 24 25 27 26 25 25 30 33 35 32 32 33
19 20 20 20 20 19 24 24 24 22 21 20 19 18 19 20 20 21 21 22 21 19 18 18 17 18 18 19 22 22 23 23 22 26 25 25 28 27 29 29 31 30 29
20 21 21 21 21 23 24 25 23 21 20 18 18 18 18 18 21 21 24 25 23 27 26 23 21 21 20 19 20 21 22 23 24 25 25 24 26 27 30 29 32 31 28
20 20 22 22 22 22 23 24 24 21 19 18 19 18 18 19 22 22 22 23 23 22 23 24 24 25 24 23 23 25 25 25 25 26 26 24 26 26 28 30 29 29 30
20 22 24 25 25 24 24 28 26 22 21 19 19 20 21 20 20 20 22 22 23 22 22 23 24 26 26 26 27 26 24 24 24 25 25 23 23 25 26 27 29 30 29
21 26 27 26 26 24 26 24 23 22 20 20 21 20 19 22 26 25 25 26 24 24 23 24 23 22 21 26 29 30 27 23 20 20 22 23 23 25 25 26 27 29 30

GFSMA_sfc_30mbdewp_009.txt.gz
Dewpoint
51 51 52 49 48 49 48 47 46 46 48 48 46 43 40 41 42 42 41 46 44 44 45 45 48 50 52 55 57 59 60 61 61 62 61 62 63 62 62 62 62 60 60
52 52 50 50 48 50 50 48 47 47 48 49 48 45 42 40 41 42 42 43 46 43 45 45 46 49 51 52 56 57 58 59 61 62 62 62 62 62 61 62 62 61 60
49 50 50 51 51 51 51 49 49 50 48 48 49 48 45 43 42 41 41 42 44 45 44 46 49 50 51 52 54 56 56 58 59 60 62 61 63 62 61 61 62 62 61
50 49 48 48 50 50 50 49 49 50 49 49 48 48 48 46 43 43 42 42 42 42 44 46 49 52 53 52 51 51 52 53 54 56 58 61 61 62 62 62 62 62 62
46 45 44 44 46 47 47 49 49 49 46 45 45 44 45 46 46 44 43 42 42 42 41 43 47 50 54 53 48 48 47 48 51 53 54 57 59 61 62 61 61 62 62
42 41 41 41 43 44 43 43 43 44 44 44 44 44 46 46 47 46 46 44 42 42 42 41 45 48 51 52 50 47 46 45 46 48 53 54 56 58 60 61 61 62 61
41 41 41 44 44 42 42 42 43 41 41 43 42 40 41 42 41 41 42 45 44 43 42 42 42 45 46 50 50 47 44 44 43 44 46 48 53 57 59 60 61 61 61
43 41 41 42 43 40 39 39 39 41 41 41 39 39 36 37 39 40 41 42 44 46 47 47 43 45 44 44 47 49 45 43 42 43 45 48 50 52 56 56 57 58 60
39 38 39 38 41 41 38 39 41 39 39 41 41 40 37 36 36 38 36 38 39 40 43 46 48 48 45 42 42 46 48 46 44 43 44 46 47 49 53 53 53 52 53
36 38 37 38 39 39 39 41 42 42 41 40 41 39 39 36 33 31 34 33 35 35 39 44 46 47 49 48 46 45 44 45 44 44 42 42 43 46 48 52 51 51 51
37 37 37 37 38 39 38 41 41 40 40 39 38 38 36 35 35 32 29 32 33 35 38 39 41 46 47 47 47 47 45 44 40 42 43 43 43 44 44 50 49 50 50
37 35 38 39 39 39 40 40 41 39 39 39 39 38 37 35 34 33 30 31 31 33 34 36 40 44 44 47 47 47 45 44 41 42 45 47 47 46 44 44 46 48 48
36 38 38 38 38 38 39 38 38 38 39 38 38 37 37 36 36 35 32 31 31 31 33 35 38 40 42 45 46 46 46 46 43 41 43 44 46 47 49 50 49 45 45
36 37 39 38 38 38 38 37 37 37 37 37 37 36 37 37 37 36 34 32 30 29 31 31 34 39 37 42 42 43 44 44 44 40 39 41 42 37 38 39 42 46 48
35 36 37 36 36 37 37 37 36 36 36 36 35 37 37 37 37 37 37 37 34 29 28 30 30 31 34 39 40 41 44 43 42 40 38 37 41 36 33 32 35 37 40
33 33 32 33 34 35 36 37 36 35 34 34 33 33 33 35 36 37 37 35 35 32 30 29 29 30 29 28 37 36 40 41 41 41 38 34 32 31 31 32 31 31 32
31 32 33 33 32 32 32 33 33 34 33 32 31 29 26 26 28 33 34 32 29 30 30 27 24 24 23 23 23 31 35 36 37 39 36 31 29 29 29 30 31 29 26
31 31 29 23 23 22 22 23 26 27 24 22 22 22 22 22 22 24 25 24 24 23 23 23 22 22 22 23 22 20 23 21 31 36 35 31 32 32 32 30 30 29 27
25 22 21 21 21 22 22 23 23 24 23 22 22 21 20 20 20 21 24 24 24 24 22 21 20 21 21 22 21 22 21 21 22 23 29 33 30 32 32 31 30 29 28
21 21 20 20 21 22 23 22 22 22 21 21 22 22 21 19 20 21 22 22 23 23 22 20 20 19 20 21 23 23 23 25 24 24 22 26 31 33 35 35 31 30 30
22 20 19 21 22 23 23 24 23 22 21 21 21 20 18 19 19 22 23 23 23 23 21 19 19 18 18 19 20 23 23 23 24 27 26 26 27 28 30 32 35 34 33
20 19 21 22 23 23 26 25 24 22 21 20 18 17 18 19 20 20 23 27 26 24 21 19 18 18 18 19 20 20 20 21 21 26 26 25 26 25 28 29 28 31 31
21 21 23 22 23 24 26 26 25 23 21 19 18 18 18 17 19 21 23 24 24 24 25 26 25 23 21 21 21 20 21 21 22 24 25 24 26 25 27 29 30 30 28
21 23 24 25 25 24 25 28 28 26 22 21 20 19 19 21 22 21 20 21 22 23 22 22 25 24 24 24 24 23 24 27 27 26 26 23 24 24 25 27 29 31 32
23 25 26 25 24 25 26 25 26 23 22 22 21 21 19 19 20 24 24 24 24 24 23 23 25 28 29 30 29 29 26 24 22 22 24 24 24 23 24 25 26 28 29
26 26 25 25 26 24 22 21 25 24 21 20 20 19 19 22 26 26 23 23 21 20 22 22 22 22 22 22 22 25 26 24 24 20 21 20 20 22 21 24 25 27 27

GFSMA_sfc_30mbdewp_012.txt.gz
Dewpoint
50 51 50 50 49 50 49 48 47 46 47 48 48 48 45 42 41 42 42 44 47 46 49 47 47 47 48 53 56 58 58 60 61 62 63 63 62 61 62 61 63 62 61
50 50 50 50 50 51 52 50 49 49 49 50 49 50 48 45 42 41 42 42 46 48 47 47 47 47 47 49 54 56 57 57 59 61 62 62 61 60 61 61 62 62 61
50 51 49 46 47 48 48 49 49 49 47 47 46 47 47 47 46 44 43 42 43 47 48 47 48 48 48 48 51 55 57 58 58 59 61 62 61 61 60 61 62 62 62
48 45 42 41 44 45 46 45 46 44 44 45 45 45 44 46 46 45 45 44 43 43 45 49 49 49 49 50 48 49 52 53 54 56 59 60 61 60 61 61 62 60 61
43 42 41 41 45 44 43 44 42 43 41 41 41 40 42 43 45 46 45 45 45 44 43 43 49 50 49 52 49 48 48 49 50 51 53 57 59 60 60 60 61 61 61
43 42 42 43 44 42 41 40 40 40 41 42 39 40 40 41 41 43 43 44 45 47 46 45 43 46 50 51 52 50 47 47 48 48 49 52 56 58 59 60 60 59 61
43 41 42 42 43 41 40 39 40 39 38 41 39 37 39 38 40 39 41 43 41 44 43 41 43 47 44 49 51 50 47 46 46 46 48 50 52 56 58 60 60 60 59
39 38 38 39 41 38 37 38 40 40 41 41 39 39 33 35 37 37 35 38 37 39 38 40 45 44 49 48 46 51 49 47 46 47 48 49 50 51 54 58 59 60 60
38 38 38 38 39 39 38 39 41 40 39 41 41 38 36 34 36 36 33 33 35 34 37 39 41 41 45 48 48 46 47 50 50 48 49 48 49 50 51 54 56 55 56
37 38 39 39 40 41 40 41 42 41 40 38 40 39 38 36 33 31 33 32 34 34 36 39 37 39 45 48 48 48 47 46 47 49 47 48 47 46 46 49 53 53 52
39 39 39 38 38 39 38 38 41 39 39 39 38 38 37 36 36 33 30 31 32 33 33 35 36 39 43 44 47 47 46 45 46 46 46 45 44 44 45 47 49 51 51
38 39 38 38 38 39 38 38 37 37 38 38 38 37 37 35 34 33 32 33 31 31 33 33 35 37 40 42 44 45 46 46 45 45 45 43 44 45 45 45 46 50 50
37 38 38 37 37 38 37 37 36 35 36 36 36 37 38 37 37 36 35 34 33 31 32 34 33 34 38 39 41 42 43 44 45 45 44 44 47 49 50 50 50 49 47
36 38 37 35 34 35 36 36 36 35 35 35 34 33 34 36 36 35 35 33 31 30 31 30 32 32 35 35 39 40 41 43 42 44 45 44 43 40 41 41 43 45 47
35 33 33 33 33 35 36 36 35 33 34 33 33 34 33 33 34 34 35 34 30 26 27 32 30 31 32 32 34 39 37 39 40 40 43 43 44 42 34 35 37 38 40
32 32 31 32 33 33 34 34 33 33 33 33 33 29 26 25 27 28 32 33 33 31 27 29 28 27 25 24 25 30 37 34 37 39 40 41 39 41 40 34 31 32 32
31 31 32 31 26 26 25 26 28 31 26 23 23 23 22 23 21 22 23 25 27 29 27 25 28 24 22 22 22 24 24 36 36 36 38 41 40 40 36 34 32 29 27
31 29 28 23 22 21 23 23 24 24 23 22 22 22 21 20 20 21 21 22 25 25 24 22 23 21 20 21 22 21 23 23 30 31 33 36 40 39 37 32 31 31 27
31 33 24 20 20 22 23 24 23 23 22 22 21 21 21 20 19 19 20 21 22 22 24 22 21 21 21 20 21 23 24 25 25 26 28 27 35 39 37 34 31 30 29
35 34 22 20 22 24 24 22 22 22 22 21 22 21 20 18 18 19 20 21 23 23 23 22 21 20 20 20 22 22 22 23 22 23 28 28 30 32 34 35 35 34 32
36 26 21 21 24 24 23 23 23 22 21 21 21 20 18 17 17 17 20 21 27 26 25 23 21 20 19 18 18 22 20 20 19 26 26 26 26 27 29 29 31 34 34
24 24 23 24 23 23 26 25 25 23 22 21 20 19 19 18 18 19 21 22 22 26 24 25 23 20 18 18 20 19 20 19 18 25 24 22 26 26 27 30 31 31 32
29 23 24 24 24 24 26 27 27 25 24 22 21 20 19 18 20 21 22 22 21 22 23 23 24 24 22 22 21 20 20 21 21 23 25 24 24 23 25 26 27 30 29
25 24 25 24 22 24 27 27 26 25 23 22 22 21 19 20 20 20 23 25 23 24 24 23 22 24 24 24 23 23 22 22 26 27 26 23 24 23 24 25 27 30 32
25 26 24 24 24 23 21 24 25 22 21 20 20 19 19 22 22 22 22 23 22 21 21 23 26 26 27 28 28 28 25 24 21 22 24 23 22 22 22 23 25 27 28
26 24 22 23 21 19 19 20 18 22 19 19 18 18 18 19 22 25 25 23 21 20 20 21 23 22 21 21 21 22 22 21 22 22 22 21 20 20 19 22 22 24 27

GFSMA_sfc_30mbdewp_015.txt.gz
Dewpoint
51 51 50 50 50 50 50 49 49 49 49 49 48 49 48 48 45 43 42 44 44 48 49 47 49 48 49 51 54 56 56 57 58 59 61 62 62 62 61 61 60 62 62
51 50 50 48 47 48 48 48 48 47 46 46 44 45 46 47 47 45 44 43 44 46 49 51 49 48 48 50 52 54 56 57 56 57 59 61 63 62 61 60 61 59 62
51 49 44 43 45 46 46 45 45 44 41 42 41 43 43 43 45 46 46 45 44 45 46 49 51 51 51 50 51 53 55 57 57 57 57 59 61 62 61 60 58 60 59
45 43 42 42 44 45 44 43 43 39 39 41 40 40 40 42 42 44 45 45 45 45 45 47 47 48 49 50 49 51 51 53 56 55 56 58 59 60 61 60 58 59 59
44 42 42 44 45 42 42 41 40 40 39 39 39 37 40 39 41 43 42 43 45 44 44 42 42 45 48 49 49 50 49 50 52 53 53 54 56 58 59 60 60 59 59
43 42 42 43 42 40 38 38 38 39 39 40 39 37 37 39 40 40 41 41 40 41 38 39 41 42 44 48 49 49 50 49 49 51 52 52 53 55 57 58 59 59 58
39 38 39 40 39 37 37 38 39 39 38 41 39 37 37 37 38 37 37 40 37 39 37 38 40 42 40 44 46 49 50 51 50 50 51 52 52 53 55 56 57 60 58
38 38 38 39 39 39 39 39 40 40 40 41 39 39 34 34 37 37 36 36 35 36 35 35 40 36 36 42 47 47 49 49 49 51 51 51 52 52 53 53 54 58 59
39 39 39 39 40 40 39 41 40 40 39 40 40 38 35 32 35 35 34 34 34 34 34 35 38 35 37 42 46 47 48 47 47 48 49 51 51 52 52 51 51 53 57
39 39 38 39 39 39 38 39 39 39 38 38 38 39 38 37 34 31 33 32 33 32 33 34 35 35 38 43 43 45 47 46 46 47 48 48 49 50 51 49 49 50 53
39 39 39 38 38 38 37 37 36 36 37 37 37 37 37 37 35 34 32 31 33 33 33 34 33 35 37 41 42 44 45 46 46 46 46 47 48 48 48 46 46 48 50
39 40 38 37 38 37 37 36 36 35 35 35 36 37 36 34 34 34 32 32 31 32 32 33 34 34 35 37 39 39 42 43 44 44 46 45 47 46 44 45 46 47 50
39 37 36 34 33 35 36 36 35 34 33 33 34 34 34 34 34 34 33 31 31 31 33 33 33 33 34 35 36 37 41 42 41 42 43 46 45 47 48 48 49 46 48
36 37 35 33 33 34 35 35 35 33 33 33 30 32 32 33 34 34 31 30 28 28 30 32 34 31 32 31 35 36 40 38 39 39 40 42 45 44 41 44 48 49 50
36 36 35 34 34 34 35 35 34 33 33 33 32 33 32 30 26 28 27 32 30 24 23 28 29 28 29 27 27 27 36 37 36 38 38 38 41 44 44 38 41 45 46
35 33 33 33 32 32 32 32 30 29 31 32 31 24 23 23 23 24 23 23 25 29 24 28 28 28 27 23 23 24 24 30 37 36 36 37 40 42 44 42 41 38 39
33 33 33 32 30 25 25 24 24 27 27 23 23 22 22 23 22 21 22 21 22 23 23 23 26 27 24 22 21 22 24 25 33 36 36 36 37 39 41 43 41 40 37
33 30 32 32 27 24 23 23 22 25 23 21 22 22 21 20 20 21 20 19 20 21 23 20 23 24 21 21 21 20 24 25 25 29 35 33 36 37 39 40 40 38 38
30 33 34 33 26 23 23 24 24 23 21 22 22 21 21 20 19 17 18 19 20 21 22 22 21 23 22 22 20 21 23 24 22 22 28 35 35 35 36 39 40 38 35
34 34 35 30 24 24 24 22 22 22 22 22 22 22 21 20 18 18 18 18 22 24 24 25 24 22 22 21 21 20 20 22 19 18 23 27 34 33 35 38 38 37 34
35 37 28 28 25 25 23 23 23 23 23 22 23 22 21 20 19 18 18 19 20 21 23 24 24 24 24 19 18 20 20 20 19 20 24 26 26 28 30 32 33 36 36
34 29 31 25 23 23 25 26 29 27 25 24 23 21 21 20 19 18 19 20 20 21 22 23 21 22 23 19 19 19 19 19 17 23 23 22 25 23 24 26 29 33 34
35 30 24 24 22 23 27 28 28 26 24 23 21 20 19 17 19 20 20 21 21 22 24 24 22 22 22 23 21 21 20 20 20 21 24 23 24 24 24 23 26 28 32
32 25 24 24 24 25 23 24 25 22 20 20 18 19 18 19 21 20 23 22 22 22 22 23 25 23 22 23 23 22 21 22 22 24 26 23 23 22 23 24 26 27 30
25 25 24 23 20 18 20 20 20 22 20 18 19 18 18 19 19 23 23 22 23 22 21 20 20 22 28 28 28 25 24 22 20 20 24 23 22 21 22 22 22 26 28
25 23 20 22 20 18 18 18 17 18 17 18 18 17 18 19 21 22 24 23 21 20 21 21 21 22 22 21 21 22 22 21 20 19 22 22 21 20 17 21 22 22 25

GFSMA_sfc_30mbdewp_018.txt.gz
Dewpoint
52 51 50 50 49 49 48 48 48 47 45 45 43 45 46 46 46 46 46 47 49 50 51 51 51 51 51 53 55 55 56 55 54 55 58 60 62 62 61 60 59 61 61
51 50 47 45 46 47 46 47 46 44 42 42 39 41 41 42 44 44 45 45 47 49 49 51 52 52 53 53 53 54 56 56 56 54 56 58 60 62 62 61 61 60 60
49 44 42 42 45 46 44 43 43 40 38 40 39 39 38 40 39 43 45 45 45 46 47 46 46 48 50 52 52 53 53 55 57 56 57 58 59 60 61 61 61 60 60
44 43 43 44 45 43 41 40 41 38 38 39 38 37 37 39 39 43 44 44 43 42 40 40 40 41 42 45 51 52 52 52 53 55 57 57 58 58 59 60 60 59 59
43 43 43 43 42 39 38 38 38 39 37 37 39 38 37 36 40 41 42 40 41 39 37 37 38 39 40 40 43 46 51 52 52 52 54 55 56 56 57 59 59 59 58
42 42 42 40 39 38 38 38 38 39 39 40 40 38 37 37 40 39 39 39 38 38 36 36 36 40 36 36 39 43 45 50 52 52 53 53 53 55 55 57 58 58 58
38 38 39 39 40 39 39 40 40 39 39 41 39 37 36 37 37 37 37 38 35 36 36 35 35 39 34 36 41 43 45 47 49 51 51 54 53 53 55 55 56 56 58
39 38 39 39 39 36 37 39 39 38 39 40 38 38 32 33 37 36 35 35 34 34 34 34 35 36 35 37 41 43 44 46 47 48 50 50 50 53 53 54 55 54 55
39 38 37 37 37 37 38 39 39 38 37 38 38 38 35 31 34 34 34 34 33 33 34 34 35 35 35 37 41 43 44 45 45 46 47 48 50 50 52 52 54 53 52
37 37 37 38 39 38 36 38 38 37 37 35 37 38 37 36 31 29 32 33 33 34 34 35 35 35 35 37 39 41 43 44 44 44 45 47 48 49 49 50 51 52 50
38 39 38 38 37 37 37 36 35 34 35 34 35 36 35 35 35 34 29 30 35 34 34 34 35 35 35 36 37 40 38 43 43 42 44 44 46 48 49 49 49 50 49
39 39 38 37 37 36 36 35 34 33 33 33 33 34 35 33 31 31 29 28 32 33 31 34 34 34 35 35 33 35 37 42 41 40 41 43 45 46 48 49 48 47 47
38 39 36 34 32 34 35 34 33 32 31 31 31 30 32 32 33 33 31 29 29 27 32 32 32 35 31 32 32 34 34 41 39 40 39 41 43 45 45 45 49 47 46
38 37 35 33 32 33 34 34 34 33 33 32 31 30 31 32 32 31 32 29 24 25 25 26 29 31 32 31 30 30 27 37 38 38 38 39 40 42 44 43 43 49 48
37 36 35 32 32 33 32 34 34 33 32 31 31 31 32 30 25 25 24 24 24 19 17 18 24 30 29 31 30 27 24 28 34 37 37 38 39 41 42 43 42 45 48
35 34 32 33 33 33 33 32 31 29 28 29 31 26 23 23 23 23 23 22 22 21 19 19 20 27 29 29 28 27 23 27 28 37 36 37 37 38 38 40 43 41 42
33 32 33 33 33 31 28 26 25 24 26 26 23 23 22 23 22 22 21 20 19 20 18 17 20 23 25 25 26 24 23 25 27 30 37 35 35 36 37 38 41 42 39
33 33 32 32 33 32 27 23 23 25 24 22 21 22 21 21 21 20 20 18 18 19 19 19 21 22 22 24 23 21 21 23 24 24 26 33 34 36 36 37 38 40 40
32 31 33 34 34 30 24 25 24 23 21 22 22 22 21 22 21 20 18 18 19 19 20 22 22 23 24 24 23 22 21 24 22 20 20 28 34 36 36 37 37 40 39
33 34 34 35 28 25 25 23 22 22 23 23 23 23 23 22 21 20 19 20 18 19 20 19 20 24 24 23 23 21 19 22 20 19 18 25 30 35 35 36 37 39 39
35 36 34 30 26 24 23 23 25 26 25 24 24 24 23 22 21 19 18 19 21 22 22 20 20 20 21 23 23 24 21 20 20 20 21 25 25 29 32 36 36 37 38
34 35 28 24 23 23 27 28 29 27 25 23 21 20 19 18 18 18 18 19 20 23 22 21 19 19 19 20 24 23 21 19 17 21 23 21 25 24 26 28 31 35 37
33 30 24 23 23 26 25 24 26 23 20 19 18 17 17 16 18 19 21 21 21 21 23 24 21 21 21 21 22 23 23 21 19 20 22 21 24 24 25 23 25 29 35
31 26 23 24 23 20 20 21 21 22 20 19 18 18 17 18 19 19 23 22 20 21 22 22 21 22 23 25 23 22 22 22 22 23 25 21 23 23 24 25 26 27 31
25 24 24 21 17 17 19 19 19 18 19 18 18 18 17 18 19 21 23 22 20 21 21 21 22 22 21 22 26 26 23 23 19 18 23 24 23 22 22 23 24 26 27
25 23 21 20 20 17 18 18 18 17 16 18 19 18 17 18 19 21 22 21 20 19 21 23 24 23 23 23 22 22 22 21 21 19 22 23 22 21 18 21 22 23 25

GFSMA_sfc_30mbdewp_021.txt.gz
Dewpoint
54 53 52 50 49 48 48 47 47 45 44 42 41 40 38 40 39 38 39 46 50 52 52 53 53 54 54 55 55 55 54 55 55 54 56 58 59 61 61 61 61 60 61
54 52 48 46 47 47 46 45 44 41 40 40 38 39 37 38 37 39 37 40 48 47 46 47 47 47 48 50 53 54 54 54 54 56 57 57 59 60 61 61 60 60 60
50 47 46 46 47 46 45 43 41 40 38 37 36 36 35 37 34 40 41 43 41 41 41 42 42 41 42 43 45 48 52 54 54 54 56 58 58 58 60 60 60 60 59
48 47 47 46 45 42 41 42 39 36 35 35 35 33 35 33 36 40 42 40 39 36 36 39 39 39 39 38 39 40 45 48 53 54 54 55 57 57 58 59 59 59 59
47 46 44 44 42 40 40 38 38 38 35 34 33 32 34 29 33 38 40 39 39 37 36 35 36 35 37 36 38 39 41 43 47 52 53 54 56 57 56 57 58 58 58
44 42 41 41 40 38 38 38 37 37 37 37 33 32 32 30 38 38 37 36 36 37 36 35 34 31 34 35 37 39 41 43 44 47 50 52 53 56 56 56 57 58 57
41 41 39 39 39 39 40 40 38 36 32 37 28 27 26 35 38 35 36 34 35 34 35 35 33 32 31 32 35 40 42 43 43 45 47 48 51 52 54 55 56 56 55
40 39 40 40 40 38 40 39 38 33 34 37 31 26 21 22 34 34 33 34 33 34 33 34 35 33 33 32 33 38 41 41 43 43 44 46 48 50 51 53 55 55 55
38 40 41 40 39 38 38 38 37 34 28 32 34 30 24 21 27 25 28 29 33 32 33 33 33 33 34 34 33 35 38 40 42 42 42 43 45 47 49 51 52 54 54
39 39 40 40 40 38 36 35 33 32 29 24 26 30 30 30 24 22 23 27 28 29 31 32 32 33 35 35 35 35 37 38 40 41 40 41 42 44 47 49 50 51 53
40 40 40 40 38 35 35 33 32 30 29 26 24 24 25 26 26 26 22 21 22 23 28 25 29 28 33 35 33 30 35 37 41 41 38 37 41 42 44 47 49 51 51
40 41 40 38 36 34 34 33 33 32 29 28 26 25 23 22 21 22 21 20 20 21 20 24 26 26 27 31 30 32 32 33 42 40 38 36 39 40 44 45 47 50 50
39 39 40 38 33 34 34 34 32 31 30 27 28 26 29 28 27 26 22 20 22 19 21 22 23 24 22 23 27 30 29 30 32 39 38 36 37 39 41 45 45 46 50
38 39 39 35 33 34 34 34 34 33 33 31 30 28 27 27 31 29 25 24 21 19 18 18 19 21 22 23 25 30 28 29 28 31 38 37 36 38 39 43 44 44 47
36 38 38 35 35 34 33 33 32 33 32 30 29 29 28 27 27 25 25 24 22 21 19 17 17 17 18 20 22 24 26 29 30 28 36 37 36 35 38 39 42 42 43
34 36 37 35 35 34 34 32 31 30 29 27 27 29 26 25 25 25 24 24 22 20 18 15 13 14 15 16 19 22 22 27 27 30 33 37 36 35 36 38 39 43 41
31 34 35 35 34 34 33 33 29 27 26 26 27 25 24 23 23 22 21 19 17 16 14 14 13 14 15 18 18 20 20 23 24 28 30 31 35 35 35 37 38 40 41
33 34 34 34 33 34 34 30 26 26 25 25 23 23 23 22 21 21 20 18 17 16 15 13 13 13 17 18 19 21 21 23 21 22 25 26 30 35 35 36 37 38 40
34 35 33 33 35 36 28 26 26 24 23 23 24 23 22 22 21 19 18 17 16 17 16 15 15 15 15 15 23 21 21 22 21 22 21 20 26 34 36 36 37 37 38
35 35 36 36 33 28 26 24 23 24 25 25 25 24 22 20 18 17 18 18 17 19 18 18 16 15 15 16 18 20 20 19 19 19 18 19 23 32 36 36 36 37 38
35 35 34 31 29 26 23 26 27 26 24 22 19 17 16 17 18 18 17 17 17 17 17 18 15 13 12 13 14 16 19 22 25 20 19 18 20 25 31 34 36 36 37
33 34 31 26 25 25 28 27 26 21 19 16 15 14 14 15 15 17 18 18 19 21 21 17 15 19 18 17 17 16 23 21 18 20 19 18 20 20 25 27 30 32 36
32 33 27 24 25 23 22 23 22 20 17 16 15 14 14 14 16 16 16 18 21 20 20 21 20 17 15 14 17 20 20 21 20 24 20 17 22 21 23 23 24 28 35
31 31 26 24 22 18 20 20 20 17 17 15 15 15 15 15 15 17 22 19 18 15 18 20 22 21 19 19 19 22 23 21 21 20 21 19 19 22 23 24 25 28 31
28 26 25 22 18 17 19 19 18 19 18 17 16 16 15 15 17 20 19 19 15 14 17 18 21 22 23 24 24 21 21 20 18 14 15 19 20 22 23 24 25 25 30
25 25 22 20 19 18 18 18 19 20 19 17 17 14 15 17 18 16 15 17 16 17 15 17 18 20 22 23 24 21 18 21 18 22 18 21 18 19 18 24 25 25 26

GFSMA_sfc_30mbdewp_024.txt.gz
Dewpoint
56 52 52 49 48 47 46 45 44 44 42 40 41 39 37 37 37 34 33 48 50 49 49 50 50 50 50 50 51 54 55 55 55 55 56 57 58 58 59 60 61 60 60
55 52 50 47 46 46 45 44 44 41 40 39 37 39 38 37 37 36 35 36 45 44 45 45 45 45 44 44 44 45 48 52 55 55 55 58 58 58 58 58 60 60 60
54 50 47 47 47 46 44 42 41 39 38 37 36 36 35 36 35 37 37 37 38 42 42 42 42 41 41 40 41 42 43 45 48 53 55 56 57 58 58 58 58 59 59
50 49 48 46 46 43 41 39 39 37 36 37 36 36 35 36 35 34 36 40 37 36 38 38 38 38 37 38 38 38 40 42 44 47 50 54 55 57 57 58 58 58 58
49 46 45 44 42 40 39 38 38 39 38 37 36 33 32 32 29 24 33 38 38 36 35 34 36 35 34 34 37 38 39 40 43 45 46 49 52 54 56 58 57 57 58
45 43 43 42 39 39 40 41 41 39 36 35 33 25 26 26 27 29 34 34 31 33 34 34 33 29 32 32 35 36 40 41 42 43 44 46 48 49 52 54 57 57 58
42 41 39 41 42 39 41 39 35 32 31 33 33 26 24 23 32 33 32 31 33 32 33 31 32 31 31 32 31 34 38 40 41 41 42 43 45 47 49 51 54 55 57
40 39 40 38 39 35 37 38 37 34 30 30 31 26 21 20 20 30 27 29 27 31 29 29 30 31 31 30 31 35 35 39 39 39 41 41 42 43 46 48 51 53 55
38 38 38 36 35 34 31 36 35 33 30 25 26 25 24 20 21 21 22 22 27 26 27 26 28 28 29 30 31 31 35 35 37 37 39 39 40 41 42 44 47 50 53
36 35 35 38 37 36 35 34 30 31 28 24 23 23 25 25 22 21 21 22 22 21 23 23 25 24 25 26 30 34 33 34 32 36 39 38 38 39 40 41 43 48 50
37 37 36 38 39 38 35 33 31 30 27 26 24 22 22 21 21 19 18 18 17 18 20 20 20 21 22 23 24 28 33 33 32 36 40 37 36 37 39 40 43 44 48
32 34 37 39 38 37 34 33 33 31 30 27 24 23 21 20 20 19 18 16 15 15 17 18 19 19 20 20 20 26 30 31 33 30 34 38 37 36 36 39 41 43 44
26 28 31 31 34 35 34 34 32 32 31 26 24 23 23 22 20 20 18 17 16 15 15 16 17 17 17 18 19 24 25 28 29 31 28 31 37 36 34 36 39 44 44
24 26 27 30 34 36 35 33 32 32 31 29 26 24 23 21 20 19 18 18 18 16 15 15 15 15 16 16 18 21 20 24 28 33 31 29 35 36 35 34 36 39 43
23 23 27 30 33 34 34 33 31 32 31 30 25 24 23 21 20 20 20 20 21 22 19 16 14 14 14 15 16 16 18 21 26 29 31 30 33 36 35 34 35 36 39
25 25 26 27 30 31 32 32 30 30 29 27 22 24 24 21 20 20 19 18 18 19 18 14 12 14 15 14 15 16 17 20 22 24 30 30 36 37 36 34 35 36 39
26 26 28 29 29 29 30 31 32 31 28 24 24 25 24 23 21 19 19 18 16 15 14 14 13 14 15 15 16 19 19 19 19 22 29 30 29 30 34 35 35 36 38
27 27 29 29 29 30 34 36 31 25 24 24 24 24 23 21 20 19 18 16 15 15 16 15 14 15 15 16 16 18 16 18 18 17 28 26 25 26 35 36 36 37 37
27 28 29 29 29 32 33 31 28 26 25 25 25 24 22 21 19 16 16 15 15 16 17 17 16 16 16 16 16 17 19 21 18 21 24 22 21 22 29 35 36 36 37
28 28 29 29 30 30 30 27 25 27 26 24 23 22 19 16 15 16 15 15 15 17 17 16 16 15 16 14 13 16 17 18 20 22 20 17 19 20 26 36 36 36 36
28 28 29 30 30 29 27 28 26 24 22 20 18 15 14 16 17 17 17 16 16 17 18 16 18 17 15 15 17 16 16 14 17 19 25 22 18 17 23 34 33 35 35
27 27 28 30 28 24 26 26 23 20 20 16 14 13 14 14 15 16 18 18 17 17 18 19 19 17 17 14 15 14 16 17 17 19 30 22 23 17 17 21 29 27 30
28 27 29 29 26 26 22 22 21 18 17 15 14 14 14 13 15 15 16 18 21 22 25 20 17 20 21 18 19 17 16 16 20 19 24 21 21 20 20 17 24 26 28
26 26 27 26 26 22 21 20 20 18 18 17 16 16 15 13 14 17 17 17 15 14 11 15 17 17 17 18 19 20 20 17 18 17 17 17 18 19 22 22 23 25 28
25 26 26 26 25 22 19 19 19 19 20 19 17 16 14 13 16 17 15 14 13 11 16 15 16 18 19 23 23 21 19 15 18 18 15 16 18 17 19 22 24 26 27
24 24 24 25 22 22 19 19 19 21 21 19 17 15 12 16 16 15 15 14 16 16 13 15 16 16 16 17 23 24 20 16 15 18 20 17 17 18 18 20 22 24 25

GFSMA_sfc_30mbdewp_027.txt.gz
Dewpoint
57 54 53 50 49 48 47 47 46 45 43 42 42 40 40 40 39 38 37 48 48 47 47 47 47 48 47 47 47 47 49 51 54 56 56 57 59 59 58 58 59 59 60
58 56 55 53 50 48 49 47 46 43 42 41 39 39 39 38 37 37 37 38 46 46 45 45 44 44 44 43 43 43 45 46 48 50 53 55 57 58 59 59 58 59 59
57 53 51 51 50 47 47 44 43 41 39 39 38 37 37 35 34 36 36 34 38 45 44 43 41 40 39 40 40 41 41 42 44 46 48 50 54 56 58 59 59 59 58
52 52 50 48 47 44 42 41 40 40 40 39 38 38 36 31 29 32 29 28 35 37 42 39 38 36 36 36 37 39 40 40 41 43 46 47 49 51 54 55 57 59 58
49 47 46 46 44 42 41 42 42 42 40 39 34 31 32 25 27 25 27 28 36 35 34 34 37 35 36 33 34 36 37 41 41 42 43 45 47 48 49 51 54 56 59
46 44 44 44 44 42 42 43 42 39 36 32 28 30 32 27 27 27 32 33 32 32 33 34 32 31 34 32 34 34 36 39 40 41 41 41 43 45 47 48 50 53 55
43 43 41 42 42 41 39 40 38 34 31 29 29 28 28 28 27 24 25 31 28 28 28 30 30 30 29 32 31 32 35 36 39 39 39 40 40 41 43 44 46 48 51
42 40 42 40 38 36 33 31 34 34 31 29 27 25 23 22 22 25 25 25 25 24 27 26 27 27 28 28 29 31 36 38 37 36 36 38 39 39 40 41 43 45 47
39 38 38 36 35 34 31 32 33 33 30 29 28 25 23 20 21 21 22 22 25 25 26 24 23 23 26 25 26 27 36 35 34 33 34 37 37 37 38 39 41 42 44
38 35 33 35 35 35 35 34 31 32 32 29 28 26 25 23 20 19 19 21 22 20 22 21 20 21 21 21 23 26 34 33 31 31 32 35 36 36 36 37 38 40 41
33 33 34 35 36 35 34 34 33 33 33 30 29 25 21 20 20 19 21 19 18 18 18 19 19 19 19 19 21 23 28 32 30 29 29 32 35 37 36 35 37 38 39
29 27 28 30 30 30 33 32 33 34 34 32 29 23 22 21 21 21 20 18 18 17 16 18 20 20 20 20 20 23 24 31 27 25 25 26 31 32 36 36 34 35 38
23 24 27 26 27 29 31 33 35 36 32 31 30 27 26 25 25 22 20 19 18 17 18 20 20 20 17 21 20 24 21 23 24 26 24 26 30 30 31 33 34 33 34
23 25 25 26 27 30 30 34 35 33 33 34 34 32 29 26 25 24 21 20 20 18 18 17 20 21 19 19 19 21 18 21 22 25 27 27 30 29 29 32 32 32 33
23 22 26 25 25 26 29 33 33 33 32 32 34 33 29 27 28 26 23 21 19 22 21 18 18 18 17 18 19 21 21 20 22 24 24 24 25 28 28 32 34 33 33
26 26 26 26 27 27 27 27 29 31 30 32 32 29 26 28 28 26 22 21 17 17 17 16 14 16 17 17 18 20 20 23 23 25 26 25 27 27 29 34 35 33 34
27 26 25 26 26 25 26 30 34 34 33 32 27 26 28 27 25 24 22 18 17 16 15 15 15 17 17 18 18 19 20 20 20 21 23 26 27 31 31 29 32 34 35
28 27 25 25 25 25 27 32 30 33 32 29 27 26 25 24 23 18 17 15 16 15 15 14 15 17 18 18 19 18 18 17 19 22 25 25 29 28 27 25 30 36 36
27 26 25 25 25 26 26 28 30 29 28 27 27 26 24 21 18 16 16 16 15 14 15 17 18 18 17 16 17 18 17 16 18 20 23 25 28 28 28 26 29 33 36
27 26 25 25 26 27 26 26 26 28 28 26 25 22 18 17 16 17 16 16 15 15 16 16 16 17 16 19 19 18 20 20 17 14 16 20 28 30 28 25 27 28 36
26 26 25 24 27 27 26 28 26 24 23 22 20 16 15 16 17 17 16 15 16 16 16 16 17 17 19 16 16 16 18 16 16 18 20 24 27 29 24 27 24 31 35
24 25 25 25 28 26 25 24 23 22 20 17 16 15 15 15 15 16 18 18 18 16 18 21 18 14 13 16 22 23 20 18 14 18 24 28 27 32 23 23 30 30 26
25 25 25 26 28 27 23 22 22 19 19 18 17 16 16 13 15 16 17 16 17 19 20 19 19 20 22 17 17 19 18 20 19 19 20 22 25 26 24 20 25 25 26
24 24 24 27 27 26 23 21 21 20 19 19 19 18 16 15 16 18 16 15 13 12 12 13 15 16 16 16 16 18 18 16 18 18 16 19 21 21 24 23 24 26 26
24 25 24 26 27 26 22 20 19 20 20 20 19 17 17 14 17 17 15 14 13 12 13 14 13 16 19 20 21 21 23 20 20 17 19 25 22 20 23 22 25 24 26
24 23 23 25 25 25 22 20 19 21 22 21 19 17 16 15 16 15 15 14 14 14 11 12 15 17 17 18 20 23 24 24 21 17 20 26 19 18 18 23 25 27 29

GFSMA_sfc_30mbdewp_030.txt.gz
Dewpoint
59 59 57 53 53 52 52 50 49 48 45 43 44 42 42 42 42 42 42 47 46 46 46 46 46 46 45 45 44 44 45 46 47 49 51 54 57 58 59 60 59 58 58
59 56 54 52 53 49 48 47 45 44 44 45 43 43 43 42 39 37 38 41 46 47 46 45 43 42 40 40 40 42 43 43 43 45 46 48 51 54 56 58 60 60 59
56 54 53 51 48 47 45 45 45 44 44 43 42 42 40 39 33 33 36 34 38 47 45 42 40 38 37 38 37 38 40 41 43 43 45 46 48 50 51 53 55 57 60
53 50 50 49 48 49 46 44 45 46 44 44 42 38 37 34 33 33 30 32 32 41 44 41 38 35 37 35 36 36 37 39 41 41 42 43 44 46 48 50 51 53 56
50 50 49 48 47 45 45 46 45 44 41 38 34 30 35 33 34 30 31 33 38 38 36 40 38 36 35 34 34 35 35 39 38 40 44 41 42 42 44 45 47 49 51
48 48 47 46 46 45 43 44 44 42 38 36 33 32 34 33 31 32 34 35 33 31 34 34 33 32 32 32 32 33 36 37 39 42 40 38 39 40 40 41 43 44 47
45 46 46 45 44 41 40 38 37 37 37 37 34 32 30 28 28 31 28 28 29 30 30 32 30 29 29 29 30 30 33 40 39 38 37 36 36 38 38 38 40 41 43
43 45 43 41 40 38 37 39 38 37 36 36 33 32 29 28 28 27 27 27 28 30 28 26 27 29 28 30 27 27 30 36 34 34 34 34 35 36 37 37 38 39 41
41 40 38 38 39 39 38 39 38 36 34 34 34 32 28 27 26 25 24 26 27 26 27 26 24 27 25 27 24 25 32 36 31 28 29 31 32 34 39 39 37 37 38
39 36 36 37 40 40 39 39 36 37 35 34 34 32 31 28 23 22 23 24 24 23 23 25 25 25 24 25 25 28 31 28 29 27 27 28 28 30 33 39 39 36 36
38 35 35 36 35 35 37 38 37 36 36 35 33 33 31 27 25 24 23 23 23 23 23 23 24 24 24 24 24 24 31 32 31 29 26 26 26 27 30 32 37 38 36
32 33 32 31 32 33 34 35 37 37 36 35 34 34 31 27 25 25 24 24 24 22 23 23 23 24 25 24 23 24 27 25 25 22 22 23 24 26 27 30 32 35 35
29 30 29 30 31 32 33 35 37 37 37 36 35 35 34 31 29 28 28 26 24 24 23 23 23 24 21 23 23 25 24 25 28 24 22 22 23 25 29 30 30 33 33
27 28 29 30 30 30 31 33 36 37 37 36 35 36 36 34 33 30 28 28 26 23 22 23 23 22 23 21 24 24 23 24 25 26 26 23 22 22 23 26 29 30 33
26 30 30 30 30 31 31 32 33 36 36 36 35 35 36 35 33 31 30 29 26 25 21 20 20 20 22 20 21 22 23 23 26 26 26 25 24 24 24 24 25 28 30
28 29 29 29 29 30 30 30 35 36 35 36 36 35 33 33 31 31 29 28 26 23 19 19 18 18 21 19 20 21 22 21 22 23 24 25 26 27 27 27 25 27 31
28 29 29 27 27 28 29 30 31 30 32 34 34 34 34 30 29 28 27 24 21 20 18 17 17 19 19 21 21 22 21 20 20 21 24 24 27 28 28 29 30 30 29
29 29 29 27 27 28 29 29 31 31 31 31 30 30 28 26 25 23 21 20 20 18 17 16 18 18 20 20 20 20 19 20 20 20 22 24 26 27 29 31 31 29 28
30 30 28 28 28 28 28 29 29 29 30 30 29 27 26 23 19 20 19 17 18 17 18 17 17 18 19 19 19 21 21 21 22 22 20 19 21 25 28 31 28 30 28
29 29 28 28 29 28 28 28 27 28 29 26 26 26 21 19 18 17 16 17 16 17 17 17 17 17 17 19 21 19 20 21 21 20 19 21 25 26 29 32 33 31 29
29 28 27 29 28 28 27 28 26 24 25 23 23 20 18 17 16 18 16 16 18 18 18 16 16 18 18 16 15 23 25 22 21 22 21 23 27 27 30 32 33 30 29
28 27 28 27 28 27 26 24 22 22 22 22 20 19 18 18 19 20 21 19 18 18 18 19 19 19 18 20 23 18 18 18 17 21 21 21 24 26 29 32 34 31 34
27 27 28 28 28 27 26 24 21 20 21 23 20 20 19 16 21 19 18 18 17 16 18 19 18 21 21 17 17 16 16 18 20 20 19 18 21 23 26 23 29 28 30
26 28 27 28 29 27 26 23 21 20 22 22 22 21 19 18 20 18 18 16 16 15 15 15 15 15 15 18 19 19 19 19 21 22 21 19 21 24 26 25 25 26 26
26 27 27 26 27 26 25 23 20 21 23 23 22 22 20 18 20 18 16 16 16 15 15 14 14 15 18 21 22 22 23 22 21 21 22 21 23 27 25 23 26 26 25
26 27 28 27 26 28 25 23 21 22 23 24 23 21 18 17 17 17 16 17 16 17 15 14 16 19 19 21 22 23 27 24 24 22 22 22 22 22 22 29 28 32 29

GFSMA_sfc_30mbdewp_033.txt.gz
Dewpoint
57 55 54 53 51 49 47 45 44 42 42 44 43 43 42 42 36 35 38 47 45 45 46 47 46 43 43 41 41 42 42 43 45 46 46 48 49 51 52 54 56 58 59
56 54 52 50 47 46 45 44 44 44 45 44 43 42 40 36 32 31 35 35 47 47 46 45 42 40 40 39 39 39 40 41 42 43 44 45 46 47 49 50 51 53 55
53 52 50 48 46 47 45 44 46 45 44 43 42 38 37 33 33 33 31 32 44 47 46 42 38 37 38 37 37 38 37 38 40 40 43 44 43 44 44 46 47 49 51
51 50 49 47 48 49 46 46 45 43 41 38 36 33 35 34 32 30 31 33 38 45 47 42 38 36 37 36 37 36 36 37 38 44 44 43 42 41 41 43 44 45 46
51 49 47 45 47 46 45 44 43 42 38 36 34 32 34 32 29 32 29 29 31 33 42 44 36 34 32 35 35 35 37 36 40 40 41 40 38 37 38 40 41 42 43
50 48 46 46 45 43 40 39 39 40 38 37 35 33 31 31 30 29 27 28 30 30 33 30 31 29 32 31 31 32 33 36 38 38 36 36 37 36 36 37 38 39 41
46 46 45 41 40 38 37 39 38 36 36 36 32 32 31 32 29 27 28 27 29 26 26 27 28 31 30 33 30 29 29 31 33 33 33 33 33 34 34 37 39 38 38
45 43 41 39 38 38 38 39 37 37 36 34 30 33 29 29 29 26 26 27 26 26 25 24 26 27 28 28 25 24 23 30 30 28 28 28 29 30 31 32 37 39 39
41 41 40 38 39 39 38 38 38 35 33 34 35 32 29 28 28 25 24 26 24 24 24 25 26 24 25 26 26 26 29 32 31 29 27 27 27 28 28 29 31 37 40
38 36 39 39 38 38 36 39 38 36 34 33 34 33 32 31 27 24 25 24 24 23 24 24 25 24 24 25 27 28 31 33 28 29 28 27 26 27 27 27 27 33 36
39 34 33 32 32 33 34 34 34 37 37 35 33 33 32 31 28 25 23 23 25 25 24 24 23 23 24 26 23 23 31 31 31 26 23 23 24 25 25 25 27 27 33
32 31 31 30 30 31 32 33 34 38 36 35 35 35 33 31 28 26 25 26 26 25 25 25 24 24 24 24 24 25 29 31 31 25 24 24 24 25 25 25 25 27 30
30 29 30 30 30 30 31 32 34 36 36 36 36 35 35 34 32 31 31 32 26 27 25 25 24 24 24 22 24 28 27 26 26 24 24 24 25 25 24 24 24 25 30
29 30 30 29 29 30 31 30 32 34 37 37 36 36 36 36 34 34 35 32 29 27 26 25 24 24 24 25 23 25 23 25 26 27 25 24 23 24 24 23 24 25 25
29 29 29 28 29 29 30 29 34 34 33 35 36 35 35 36 37 36 34 31 28 27 26 23 21 22 21 21 21 22 23 24 26 26 24 22 21 21 22 23 24 25 27
28 29 29 29 28 28 30 32 33 31 32 34 35 34 34 35 35 35 33 29 27 25 21 20 19 19 21 20 21 22 22 22 23 24 24 26 26 24 21 23 25 25 26
29 28 30 29 27 27 29 30 30 30 31 33 33 33 32 31 30 28 24 22 20 19 16 18 19 20 19 20 20 22 22 21 21 23 24 25 26 26 27 27 28 27 27
30 30 30 28 27 28 30 30 30 30 29 31 30 29 27 26 22 22 20 18 17 18 17 17 18 18 19 20 20 20 20 20 21 22 25 24 25 23 24 26 28 30 30
30 31 30 28 28 28 29 29 29 29 30 30 29 27 27 24 20 19 17 16 17 16 17 17 17 18 18 19 19 20 21 22 22 22 21 22 23 25 27 29 30 31 32
30 30 28 28 28 30 29 28 28 28 26 25 25 24 24 20 17 16 15 15 16 17 18 18 17 17 17 19 20 18 22 23 22 21 21 23 24 26 24 27 30 30 32
30 29 28 27 30 30 29 28 26 25 24 23 22 22 19 19 19 17 16 17 19 18 18 18 17 17 18 19 19 24 20 17 17 19 20 22 22 23 25 27 30 31 34
29 30 28 29 28 28 28 26 23 22 22 21 21 21 20 19 20 21 21 21 20 18 17 18 18 18 18 22 21 18 16 16 15 18 22 20 22 21 23 27 30 29 34
26 28 28 29 29 28 27 24 22 21 20 21 22 21 20 21 20 18 18 18 16 16 18 18 16 17 15 15 16 17 18 19 19 20 20 21 23 21 23 24 25 29 29
29 28 28 29 30 28 27 26 22 20 21 22 23 22 21 20 19 18 17 16 16 17 16 16 17 15 16 17 19 20 21 21 22 22 22 21 23 21 24 26 28 29 31
27 27 29 28 28 27 28 26 21 21 22 23 23 23 22 19 20 19 17 16 16 17 16 17 16 19 20 21 22 25 23 22 21 21 23 24 23 23 24 24 27 29 31
26 28 28 28 27 27 28 26 22 21 22 23 23 22 19 18 18 18 18 15 14 15 17 17 17 18 20 21 23 22 22 21 21 21 22 25 24 23 20 23 25 27 30

GFSMA_sfc_30mbdewp_039.txt.gz
Dewpoint
54 55 52 50 47 46 44 45 45 44 43 39 38 34 34 33 32 33 34 40 42 47 43 48 45 44 43 42 42 40 41 41 41 45 45 44 44 43 43 43 44 45 45
53 50 48 46 45 46 46 45 43 41 39 36 36 35 33 31 30 30 32 38 46 49 47 45 41 42 40 40 40 39 39 40 44 44 44 43 42 41 41 41 41 42 43
51 48 46 46 46 46 45 44 42 39 36 35 33 35 31 30 29 29 32 37 48 48 44 41 40 40 40 40 39 38 38 39 38 40 40 39 38 38 37 38 40 40 41
50 48 47 48 47 46 44 43 41 38 36 35 32 33 33 31 28 28 31 37 43 41 39 35 33 31 32 35 35 35 35 35 38 38 38 37 36 35 36 37 36 38 38
50 47 47 47 44 42 41 41 39 37 35 35 34 31 32 30 28 28 26 27 29 27 26 31 35 36 34 31 31 31 32 32 33 34 34 33 32 31 33 34 34 34 35
48 47 45 42 39 38 37 36 35 37 37 35 33 31 33 31 28 27 27 26 25 24 25 26 28 31 34 31 28 28 29 30 30 31 31 30 29 29 29 30 31 32 32
47 45 42 39 38 37 37 36 37 35 35 34 31 32 33 31 29 27 27 25 24 25 25 24 25 25 26 30 31 28 27 27 27 27 27 27 28 27 27 27 28 29 30
45 41 40 38 39 38 38 37 36 36 35 34 32 32 27 28 30 29 26 27 24 25 25 25 24 24 23 24 30 27 26 26 25 26 26 27 27 27 27 27 27 27 28
43 41 39 39 39 39 38 38 36 35 33 34 35 31 28 27 29 29 26 26 25 24 25 25 23 23 23 23 26 27 28 26 23 24 25 25 26 27 27 27 27 27 27
43 41 40 40 39 37 35 36 36 36 35 33 35 34 32 31 29 28 26 25 27 25 25 25 25 25 24 25 27 28 29 32 27 23 24 25 26 26 27 26 26 27 28
40 40 38 34 34 34 33 33 33 35 36 35 34 33 33 32 31 29 29 28 26 27 27 26 26 26 25 25 26 27 31 33 31 29 29 27 27 26 26 26 24 25 26
36 34 33 33 33 32 31 31 34 36 36 35 35 35 34 33 31 31 29 28 27 28 29 27 27 26 26 25 27 31 29 28 27 26 26 26 26 27 27 26 25 25 24
32 32 32 32 32 31 31 31 31 32 35 35 35 35 35 35 34 33 31 30 30 31 29 27 27 26 23 25 25 26 27 26 25 25 25 25 26 25 25 24 23 24 25
32 32 33 32 33 31 30 30 32 35 35 34 33 34 33 33 35 35 34 33 31 29 28 27 27 21 22 22 22 23 23 23 22 22 24 23 22 22 23 24 24 24 25
32 32 33 32 30 30 29 30 33 33 32 34 33 32 33 35 36 37 37 36 32 28 27 25 21 21 20 19 19 20 21 21 21 21 23 23 23 23 23 24 24 24 26
32 33 31 30 30 30 29 31 33 33 33 33 33 32 33 34 34 34 34 33 33 30 24 22 18 19 19 18 18 20 20 22 22 23 22 23 24 24 25 25 24 24 24
32 31 31 31 31 30 29 30 33 31 31 31 33 33 32 32 33 33 30 26 22 19 17 16 19 18 18 18 18 20 21 21 22 22 23 22 22 23 22 23 24 25 25
32 32 34 33 31 28 28 30 31 30 30 29 30 31 30 30 30 27 23 20 18 17 16 14 16 17 17 18 18 19 20 21 21 22 20 19 18 18 19 20 23 26 26
34 34 33 31 30 28 28 30 30 30 30 30 30 30 28 27 26 23 21 19 17 17 17 17 17 18 18 18 18 19 20 21 22 18 16 17 19 20 23 23 25 25 23
33 32 32 31 30 29 29 30 30 30 30 30 30 28 24 23 22 20 19 17 16 16 17 18 17 16 17 18 19 19 18 19 17 16 18 20 20 21 23 23 24 25 25
33 32 31 31 30 31 29 31 30 30 29 28 25 24 22 21 21 18 17 16 16 18 18 17 15 15 17 16 18 17 17 16 17 19 19 19 21 22 22 24 24 25 25
31 34 35 33 30 31 30 30 30 29 28 26 24 22 21 23 23 25 22 21 20 18 15 16 14 15 15 17 16 16 17 18 16 19 20 21 22 22 23 24 25 26 27
35 36 35 31 29 29 29 30 31 28 26 24 22 20 21 21 22 23 24 23 20 19 18 16 13 15 17 15 16 18 19 20 20 22 22 20 21 21 22 23 24 26 27
36 33 29 28 28 28 30 31 31 26 23 22 21 22 22 21 22 20 18 18 17 17 16 14 16 17 17 19 19 20 22 22 21 21 21 19 20 21 23 23 25 26 27
31 29 28 27 28 27 29 30 30 24 22 22 22 23 23 22 22 24 20 18 17 18 16 16 18 19 19 18 18 19 18 19 16 17 19 20 20 20 22 23 25 26 27
30 28 27 28 28 28 28 30 30 25 22 22 23 23 25 24 22 24 22 18 18 18 15 14 17 18 18 18 18 19 20 18 18 16 21 19 19 22 21 23 22 22 22

GFSMA_sfc_30mbdewp_042.txt.gz
Dewpoint
56 54 52 48 46 45 45 45 43 39 38 36 35 33 31 31 31 32 36 45 48 47 43 48 46 44 43 42 41 40 41 41 44 44 43 42 42 41 40 40 41 41 42
55 50 47 46 45 46 45 42 40 37 35 35 34 32 30 29 30 31 38 47 51 50 47 44 43 42 41 41 39 38 38 40 43 42 42 41 39 38 38 38 38 39 41
51 47 46 46 46 45 43 41 39 37 35 34 34 32 30 28 29 33 40 45 44 44 43 42 42 41 42 42 40 39 37 37 38 38 40 38 37 35 33 36 37 37 37
48 47 46 46 46 45 43 40 38 36 36 33 33 33 31 29 28 30 34 37 35 29 35 37 37 36 33 34 34 34 34 35 35 35 36 35 35 32 31 33 34 34 35
48 47 47 47 45 43 41 40 38 36 35 35 32 32 31 28 27 27 26 27 27 25 25 33 36 38 34 32 31 30 30 31 32 32 33 34 32 30 30 30 31 31 32
48 48 46 44 41 39 39 36 36 37 35 35 32 32 33 30 28 27 26 25 24 25 26 26 28 31 34 34 32 30 29 29 30 29 29 29 29 29 29 29 28 29 30
47 46 43 40 39 37 36 36 36 35 33 34 31 32 32 31 29 28 26 25 25 25 25 24 25 24 24 30 30 27 26 26 27 27 28 28 28 29 29 29 29 29 28
47 44 40 39 39 38 37 36 36 36 35 34 32 31 27 28 30 30 27 27 24 25 24 25 24 23 23 23 27 27 25 25 26 26 26 27 27 28 29 29 29 28 28
45 42 40 39 39 38 37 37 36 34 33 34 34 30 27 26 29 30 27 27 25 26 25 25 24 24 24 24 26 28 30 30 26 25 25 25 26 27 27 27 29 29 27
43 41 40 39 39 38 37 36 36 35 34 31 34 34 32 31 30 29 29 26 26 28 27 26 26 26 26 26 27 29 31 33 32 27 26 26 27 27 27 27 27 28 27
42 40 40 37 35 34 33 33 34 35 35 34 34 33 33 32 31 30 29 30 28 28 28 28 28 27 27 26 27 31 32 30 29 28 28 27 27 26 26 27 27 27 27
40 38 36 34 33 33 32 32 35 35 35 35 35 34 33 32 32 31 30 30 29 29 30 30 29 28 26 25 25 28 28 28 27 27 27 28 28 28 28 27 27 27 27
36 34 33 32 32 33 33 34 31 31 33 34 35 35 35 34 34 33 32 31 30 31 31 30 29 24 22 23 23 23 24 23 24 25 25 25 26 26 26 26 25 25 25
34 33 33 34 35 36 37 31 31 33 35 35 34 34 33 33 33 33 33 33 28 29 30 28 28 22 22 21 20 20 21 22 21 21 23 24 24 24 24 24 25 25 25
35 34 35 36 40 37 31 31 32 34 34 33 33 32 31 32 34 36 36 35 31 27 26 28 27 22 20 18 19 20 20 20 22 23 23 23 24 23 24 25 25 26 27
34 35 35 41 36 32 32 31 32 33 32 33 33 32 32 33 34 35 34 34 33 30 25 25 22 20 19 18 19 19 19 21 22 23 23 22 23 23 23 23 24 23 24
34 34 38 35 33 32 31 30 31 32 32 32 33 32 32 32 32 33 33 32 30 30 26 19 20 19 18 17 18 18 20 20 22 22 22 22 21 21 21 21 21 22 23
35 34 33 33 32 31 33 30 30 32 31 31 31 32 31 32 32 32 30 27 22 20 17 15 16 17 17 18 18 18 18 19 21 21 22 20 19 20 21 22 22 22 23
34 36 34 34 35 36 31 29 30 31 31 31 30 30 29 30 28 27 24 22 20 18 17 17 16 18 18 18 17 19 19 20 21 19 17 18 20 22 23 23 24 25 24
34 34 36 35 33 31 32 31 30 30 30 30 30 30 30 29 26 24 23 21 19 17 16 17 17 17 16 16 18 18 16 16 16 17 18 20 21 22 23 23 24 25 26
34 34 35 37 38 36 33 33 32 31 30 30 30 30 28 25 24 23 20 18 17 16 16 17 17 15 14 14 13 17 16 17 18 19 19 19 21 21 22 23 23 24 26
37 38 38 38 37 37 36 32 30 30 30 29 28 27 24 25 26 26 25 22 18 17 17 16 15 14 12 13 17 16 17 17 15 20 21 20 21 21 22 23 23 24 25
39 39 38 38 36 33 30 29 30 31 29 28 27 25 23 21 23 21 24 26 25 23 19 17 16 14 13 16 16 17 18 19 18 19 20 19 19 19 21 21 22 24 26
38 38 36 32 30 29 29 29 29 31 28 27 25 23 22 21 22 22 22 23 21 19 18 18 16 15 16 18 19 19 20 20 19 19 18 16 18 20 20 21 23 25 27
36 34 31 28 27 28 28 28 30 29 26 25 23 23 22 23 26 25 22 19 18 18 19 20 18 19 20 20 20 19 15 17 15 14 16 19 20 18 19 21 24 25 25
31 31 29 28 28 28 28 28 30 29 26 25 24 23 25 25 24 25 25 22 19 18 18 15 14 17 19 18 19 18 18 17 16 13 19 17 16 19 17 23 23 24 26

GFSMA_sfc_30mbdewp_045.txt.gz
Dewpoint
56 55 52 50 47 47 47 44 43 40 40 38 36 35 34 34 34 34 38 51 49 48 46 48 46 45 43 42 41 39 40 43 40 42 42 41 39 38 38 39 39 39 40
57 54 50 47 47 47 46 43 41 40 38 36 35 34 33 32 34 40 44 47 50 50 48 45 45 43 42 41 40 40 40 40 39 40 40 41 38 36 35 36 36 37 37
56 52 49 47 47 46 45 43 40 39 36 35 34 33 31 33 34 41 43 44 43 43 43 44 44 43 43 42 39 37 36 37 37 36 36 38 36 36 33 33 33 35 36
52 50 48 48 47 46 44 42 40 38 36 35 35 33 31 30 34 39 42 39 35 35 37 38 38 37 34 33 32 32 32 33 34 34 35 35 35 33 32 31 31 31 33
51 49 48 48 48 46 45 41 40 38 36 35 33 34 33 29 30 29 32 33 31 30 28 35 37 37 35 32 30 29 30 31 32 32 32 32 32 31 31 31 30 30 30
50 49 49 49 46 44 41 39 39 39 36 35 31 33 35 30 29 29 28 26 28 29 28 28 26 27 33 32 31 29 27 29 30 30 30 30 31 31 31 31 31 31 31
50 50 48 46 43 41 39 40 39 38 36 37 32 33 33 32 31 29 28 28 29 27 28 25 25 24 24 29 29 27 26 26 27 28 29 29 29 29 30 30 30 31 30
50 48 46 43 41 40 40 40 40 37 36 37 31 31 26 29 31 32 29 29 32 27 26 28 28 27 26 24 26 30 29 29 29 28 28 29 29 29 29 29 29 29 30
48 46 44 42 42 41 40 40 39 35 31 36 38 31 23 20 29 32 32 31 31 28 30 31 29 27 27 26 27 27 31 32 32 31 29 29 29 29 29 28 29 30 29
47 44 43 43 42 41 40 39 37 36 36 31 36 35 35 33 25 24 31 31 33 32 31 32 29 30 29 27 29 30 33 33 31 30 29 29 28 28 28 28 28 28 29
45 43 43 42 42 40 38 36 37 36 37 35 32 34 35 34 34 29 23 26 27 27 28 30 33 31 30 26 28 30 30 30 29 29 29 30 29 28 28 28 28 28 28
44 43 42 41 39 36 35 34 36 37 37 37 35 35 31 29 28 28 26 23 24 26 30 30 32 31 28 25 23 25 25 26 24 24 25 26 26 27 27 28 28 27 27
44 42 41 38 35 35 36 36 37 38 36 36 36 33 35 34 32 29 28 25 25 25 27 30 32 30 27 28 23 22 21 21 22 22 22 23 24 25 26 26 26 26 26
44 42 39 36 36 37 37 41 39 35 34 35 36 36 35 33 32 30 28 27 25 23 23 28 30 29 26 23 21 21 18 19 20 21 23 24 24 24 25 25 25 25 26
42 40 37 36 39 38 42 38 34 34 36 36 37 37 35 33 33 32 32 31 29 25 20 21 24 28 26 22 19 19 19 15 19 21 22 23 24 24 24 24 24 24 24
41 39 37 39 40 42 38 35 34 35 35 35 35 35 34 32 33 34 33 32 31 30 23 20 21 23 22 17 17 19 17 17 16 20 22 23 23 24 24 23 23 23 24
40 37 37 41 41 37 35 33 34 35 34 34 34 34 33 33 32 32 32 31 30 29 27 22 21 20 19 18 18 17 14 13 14 17 20 21 21 22 21 21 22 23 23
39 39 39 39 37 36 33 36 36 33 32 32 33 33 33 32 33 32 32 31 29 27 25 20 18 17 18 18 18 16 11 12 16 15 18 21 21 21 22 23 24 24 25
39 38 37 36 36 35 38 36 37 34 32 33 33 33 32 32 31 31 31 29 26 24 22 20 17 17 18 18 16 12 11 15 13 14 15 16 19 22 23 23 23 24 25
37 37 38 38 37 35 38 36 33 32 32 32 32 32 32 31 30 30 29 27 24 22 19 18 16 16 17 16 15 9 10 11 12 14 15 18 20 20 21 21 23 24 25
37 36 36 38 39 39 38 37 36 35 35 33 32 33 32 32 32 30 26 25 22 19 18 17 16 16 15 14 10 8 12 11 13 14 15 15 15 16 17 18 20 21 23
37 38 38 39 39 39 39 38 37 35 31 30 30 31 31 31 30 28 27 24 20 20 20 19 17 16 15 15 11 12 13 13 11 14 14 14 14 15 17 19 19 22 23
40 40 40 40 39 39 38 35 32 30 31 30 31 30 30 27 26 25 26 28 27 24 21 20 20 18 18 14 10 13 13 13 13 13 14 14 14 15 18 17 18 21 25
39 39 39 38 38 35 32 30 30 30 30 30 30 30 29 28 25 24 23 29 25 24 23 21 19 18 18 12 14 16 16 16 14 13 13 13 14 17 18 18 19 23 26
39 38 37 34 32 30 29 29 29 30 29 29 28 28 27 26 25 25 31 28 23 22 21 21 20 21 20 19 21 18 16 14 14 12 12 16 14 14 16 18 21 23 22
33 32 30 31 31 30 30 29 29 31 30 29 29 27 26 26 25 27 30 28 25 22 20 18 19 19 18 18 20 18 16 15 14 13 11 14 13 14 14 15 20 20 22

GFSMA_sfc_30mbdewp_048.txt.gz
Dewpoint
52 52 53 51 49 49 48 46 45 44 43 41 40 37 33 33 32 31 35 50 49 48 51 49 47 46 44 42 40 39 42 42 41 42 41 42 39 38 37 37 37 38 38
53 52 52 51 50 49 47 46 45 44 41 40 38 34 32 31 33 36 35 44 49 49 49 46 45 44 43 42 41 42 40 39 39 38 37 38 39 37 36 34 35 35 36
55 53 52 51 50 49 48 46 45 43 40 36 34 32 29 32 31 35 35 37 42 44 44 44 45 43 42 42 39 38 36 35 36 36 36 37 36 36 34 33 33 33 33
59 56 52 51 50 48 46 45 44 42 38 34 32 30 29 28 31 33 35 34 35 36 40 39 39 38 35 33 33 33 33 33 34 34 35 35 35 35 34 33 32 32 32
57 55 52 51 51 48 47 45 43 40 37 33 31 31 31 28 29 26 33 34 34 31 27 34 35 35 33 30 29 30 31 31 33 33 34 34 33 33 33 33 32 32 32
55 53 51 51 49 48 47 44 42 38 35 33 26 29 32 30 29 29 29 27 27 29 29 27 27 28 28 31 29 28 29 30 31 31 31 31 31 31 32 32 32 32 32
54 53 51 51 49 47 45 44 41 38 36 36 32 32 33 33 32 29 29 28 28 29 29 27 27 25 26 28 27 28 28 30 30 31 31 31 31 31 31 31 31 31 31
54 53 51 50 48 46 45 43 40 38 36 35 32 31 31 31 32 32 30 29 31 31 26 27 29 30 28 26 27 29 31 33 32 32 32 32 31 32 32 32 31 31 30
53 52 51 48 47 45 44 43 41 38 36 36 34 32 30 30 28 29 33 32 31 30 29 29 30 29 28 28 29 28 33 32 33 33 32 31 31 31 31 31 31 31 30
53 51 49 47 47 45 43 42 40 37 35 36 34 34 34 29 27 26 30 31 32 31 30 29 27 28 30 30 29 30 33 33 32 32 31 31 31 31 31 31 30 30 30
52 49 47 46 47 44 44 41 38 37 38 37 34 34 33 33 32 26 21 21 25 26 26 26 26 28 29 30 29 31 29 29 29 27 26 27 27 28 28 29 29 29 30
51 48 46 46 45 44 43 40 39 40 38 37 33 32 31 28 24 26 25 24 23 23 23 27 28 29 29 29 27 25 25 25 25 24 23 23 24 25 26 27 28 28 28
49 48 47 46 45 44 41 39 41 41 38 37 35 32 29 27 27 26 25 24 23 21 22 25 26 27 27 27 28 24 23 23 22 23 23 22 24 25 26 26 27 27 27
49 48 47 46 44 41 40 40 40 42 38 36 33 32 30 31 30 28 26 24 24 23 21 20 23 25 26 24 24 23 21 22 21 20 21 22 23 24 25 26 26 26 26
49 49 46 45 41 38 39 42 42 39 36 36 36 35 35 31 30 29 28 27 27 27 23 19 18 22 24 24 22 20 20 20 21 20 20 22 23 24 24 25 25 25 25
50 48 45 43 40 40 41 42 38 38 39 38 38 38 34 31 30 30 29 29 27 25 23 21 19 20 22 21 20 18 19 19 18 17 17 21 23 23 23 23 23 23 23
51 46 45 42 40 41 41 38 39 39 37 38 38 36 33 32 29 29 30 29 27 26 23 21 20 19 21 22 20 19 18 16 11 14 17 18 20 21 23 23 22 23 23
48 45 43 41 43 40 39 39 39 38 38 37 37 34 32 29 29 31 30 29 28 27 24 21 20 19 19 19 19 19 17 12 11 13 16 17 19 19 21 22 24 24 24
45 41 42 42 39 39 38 40 39 40 40 39 36 34 31 30 29 30 30 30 28 26 24 22 20 19 18 18 17 17 15 11 11 11 14 17 15 18 21 22 23 23 24
42 41 40 40 40 40 39 39 41 40 39 37 34 33 32 32 30 30 29 31 29 26 24 22 19 18 17 17 16 14 11 7 9 9 12 16 18 18 21 21 20 20 22
39 39 40 39 40 40 40 40 39 39 38 39 36 35 32 32 33 32 28 27 28 26 24 21 18 18 16 16 13 13 11 9 11 12 12 13 13 14 14 17 18 19 22
38 38 38 39 40 40 40 39 39 39 38 36 31 29 29 30 33 33 32 31 29 27 25 23 22 21 18 16 14 14 9 9 10 12 12 13 13 13 14 15 19 20 20
41 41 41 41 41 41 40 39 39 35 31 29 29 28 26 25 29 31 32 30 28 25 22 24 25 23 19 17 16 14 10 11 12 13 12 12 14 14 15 14 20 20 21
40 40 39 40 39 38 37 34 31 29 29 28 28 27 26 26 27 29 29 27 26 26 27 27 24 21 19 18 18 14 13 15 15 14 12 12 13 14 16 16 18 21 22
39 39 37 35 33 32 31 30 30 29 29 28 27 26 26 26 26 29 28 27 25 26 29 25 25 24 22 21 20 16 16 15 15 13 13 12 13 13 14 15 17 21 22
32 31 29 30 30 30 30 31 30 28 28 28 28 26 27 27 27 28 27 27 27 26 26 26 22 22 23 22 23 20 17 15 15 14 13 12 12 12 13 15 16 16 18

GFSMA_sfc_30mbdewp_051.txt.gz
Dewpoint
54 52 52 51 50 50 50 49 49 47 46 44 41 37 33 33 32 32 43 49 47 47 52 50 48 46 44 42 40 40 42 41 41 42 39 40 41 39 38 37 37 36 37
54 51 53 51 50 51 50 49 47 47 45 43 40 35 33 31 33 36 34 45 50 50 51 48 46 45 44 43 41 42 40 39 38 38 38 38 39 38 38 35 35 34 35
54 52 53 52 51 51 50 48 48 46 44 39 36 34 32 33 32 34 34 40 45 46 47 46 46 44 43 43 41 39 37 36 35 36 36 37 37 38 38 36 35 34 34
54 54 52 52 52 52 50 49 47 46 43 38 35 32 31 31 32 33 35 34 34 40 44 43 41 39 36 33 34 34 34 33 33 34 35 36 36 35 35 35 35 34 34
58 57 54 53 53 51 49 49 47 46 42 37 35 33 34 32 31 27 34 35 34 30 29 40 37 32 31 30 30 31 32 33 33 34 34 34 34 34 33 34 34 34 34
59 58 54 54 54 51 50 49 47 45 41 37 29 31 37 35 31 31 31 30 28 29 30 29 30 30 31 30 29 29 31 32 33 33 33 33 33 33 33 33 34 33 33
58 57 53 54 53 50 50 49 47 43 39 38 37 37 36 37 35 32 32 31 29 30 31 30 29 27 29 31 30 29 29 32 33 34 34 34 34 33 33 33 33 33 33
56 55 53 53 53 51 50 49 46 42 40 40 38 36 37 36 35 35 33 32 31 32 31 28 29 30 32 30 31 31 31 31 31 32 34 34 34 34 34 34 33 33 33
56 55 54 52 52 51 50 49 46 43 40 40 39 38 37 36 35 35 35 34 33 32 32 31 31 31 30 29 30 32 33 34 34 33 33 33 33 33 33 33 33 33 33
57 54 53 53 52 51 50 49 47 45 42 39 39 39 39 38 33 32 32 34 34 33 34 32 30 29 28 29 30 33 34 33 32 32 32 31 31 31 31 31 31 32 32
56 54 53 53 51 50 49 48 46 45 41 39 39 39 37 37 37 35 31 27 31 29 28 27 28 29 28 30 30 34 31 29 28 29 28 29 29 28 26 27 28 28 29
55 55 53 52 51 50 48 47 46 43 41 42 37 36 38 36 35 33 30 30 28 27 26 25 27 30 29 29 29 29 27 26 26 27 26 26 25 25 25 26 28 28 28
54 53 53 51 51 50 48 47 45 44 42 40 41 39 37 34 31 29 29 27 27 26 24 25 26 26 26 26 27 28 27 26 26 25 24 24 24 24 25 25 26 27 27
55 54 52 50 49 49 48 46 43 44 43 42 39 38 39 36 35 33 30 28 27 26 26 25 22 22 24 25 28 26 24 25 27 24 23 24 22 24 24 24 25 26 26
54 52 51 50 49 48 45 44 44 43 39 41 41 41 39 37 39 35 31 29 28 28 27 25 23 22 22 22 24 24 24 22 25 24 24 21 20 22 25 25 25 25 25
53 51 51 50 48 44 45 44 42 41 40 41 41 39 40 40 38 34 32 31 30 30 26 23 22 22 23 21 22 22 22 23 23 24 25 22 19 21 22 23 24 25 25
54 52 51 49 46 46 43 41 41 41 40 41 40 40 39 40 36 35 32 31 30 29 26 25 24 23 23 23 22 23 22 21 21 20 23 21 21 21 21 22 22 23 24
53 51 48 47 45 43 43 41 40 40 39 39 40 40 40 39 36 35 33 33 31 29 28 27 26 24 22 22 23 22 20 18 18 16 19 21 19 20 20 20 22 23 24
49 47 46 44 44 43 41 40 41 40 41 41 40 40 40 38 38 36 34 33 32 30 30 29 29 24 23 22 20 21 20 19 17 15 17 19 19 21 20 21 22 23 24
43 43 43 42 41 40 40 40 40 41 41 41 41 40 39 39 37 35 34 32 31 31 30 29 27 25 24 21 20 19 18 18 14 10 11 14 16 16 20 22 24 24 24
42 41 41 41 41 41 41 41 41 41 40 40 40 40 40 38 36 33 31 33 32 29 30 30 27 25 22 19 18 18 19 16 15 13 13 13 14 14 15 18 17 22 24
41 40 40 40 40 39 40 40 40 40 39 39 38 39 37 31 30 30 31 32 33 33 31 29 27 26 24 22 24 22 18 16 14 13 14 15 15 14 15 17 18 18 21
40 40 40 41 41 41 40 40 39 39 36 34 31 30 29 26 26 25 28 32 33 33 31 30 28 27 27 26 27 24 18 18 15 13 15 15 17 17 16 14 19 22 23
40 41 40 40 40 38 39 39 36 31 29 28 28 28 27 28 28 28 27 28 30 31 31 29 27 26 26 28 27 21 20 17 16 17 16 16 16 16 18 18 17 20 24
39 39 38 36 34 33 36 31 30 29 29 28 27 27 26 27 28 27 28 28 28 28 27 26 29 29 26 22 21 21 20 18 19 15 16 16 15 15 16 17 18 18 22
34 31 29 29 29 28 30 31 30 29 29 29 29 28 28 28 27 27 28 29 28 27 26 25 27 30 27 25 24 22 20 20 18 17 16 16 15 14 14 16 16 19 21

GFSMA_sfc_30mbdewp_054.txt.gz
Dewpoint
57 55 55 53 52 53 50 51 51 49 48 45 43 39 36 35 36 45 46 44 45 49 52 50 49 47 45 42 41 42 43 41 40 40 39 39 41 40 39 38 37 36 36
57 56 56 55 54 54 52 52 50 49 48 45 40 37 35 36 36 39 44 48 51 52 52 51 49 47 46 43 42 42 40 39 38 38 38 38 38 39 39 38 37 36 36
56 55 55 55 53 54 54 52 50 50 47 45 40 37 36 35 35 36 42 45 49 49 48 47 46 45 44 44 42 40 38 37 36 36 36 37 38 38 37 37 37 37 36
56 56 55 56 55 55 52 52 50 48 48 43 39 36 34 34 34 35 38 41 46 46 48 46 44 41 39 35 36 36 35 34 34 35 36 36 37 37 36 36 36 36 36
57 56 57 56 56 54 53 51 51 50 47 42 38 37 37 36 34 32 38 36 35 38 44 46 43 39 36 33 31 30 31 32 34 34 35 35 35 35 35 35 35 35 35
59 58 57 57 55 54 53 52 50 50 48 42 37 35 40 38 36 34 34 35 35 32 32 37 37 35 35 32 31 30 30 32 34 35 35 35 35 35 35 34 34 34 34
59 58 58 57 56 55 53 53 51 49 44 41 38 38 40 40 38 36 36 35 33 32 32 33 32 32 35 34 33 32 31 31 33 34 36 36 35 35 35 35 35 35 35
59 59 59 56 56 55 53 52 51 47 45 43 40 41 38 41 39 38 37 36 34 34 34 34 31 31 32 35 35 33 32 32 32 33 34 34 34 34 34 34 33 33 31
58 58 58 56 56 55 53 53 51 48 45 45 42 41 40 39 37 39 37 38 37 34 35 35 34 33 34 33 35 35 35 34 34 33 33 34 34 34 33 33 33 33 33
58 57 57 57 56 55 53 53 52 49 48 44 43 41 42 39 36 35 38 37 39 37 37 35 35 32 31 32 34 37 36 34 33 32 32 32 33 33 32 32 31 30 30
59 58 57 56 55 54 53 52 50 49 48 45 43 42 40 38 39 38 36 36 37 36 36 39 33 31 31 31 36 37 35 32 29 30 31 28 28 28 27 27 27 28 29
58 58 56 56 56 54 53 53 51 50 47 46 41 39 39 39 38 38 36 35 34 34 32 31 30 31 32 32 32 35 33 29 28 28 27 27 27 27 27 26 27 27 28
57 57 57 55 55 54 53 51 51 48 47 43 41 44 42 39 38 37 36 33 32 32 31 30 31 31 32 32 33 33 32 29 28 28 27 27 26 26 25 25 26 27 27
56 57 57 56 54 53 52 50 49 45 45 46 46 41 40 39 40 40 37 35 34 32 30 30 32 29 29 30 32 31 32 28 29 29 27 26 26 24 22 23 25 26 27
57 57 57 53 52 51 51 47 46 46 46 44 43 41 41 41 42 42 40 37 33 30 30 30 30 29 27 29 30 30 28 29 29 28 27 27 26 23 21 21 23 24 25
56 54 53 52 51 51 47 46 46 43 42 43 43 41 41 42 42 43 40 36 34 32 30 31 29 28 28 23 25 27 26 26 26 26 27 28 28 24 20 22 22 21 24
56 54 53 52 51 47 46 44 43 42 41 42 41 40 41 42 41 41 38 37 34 33 31 31 29 27 28 29 26 28 27 26 25 25 25 26 27 25 22 23 22 22 23
55 54 52 49 47 46 43 42 42 42 41 40 40 40 41 41 40 40 38 37 35 34 32 31 31 29 29 29 26 25 25 23 22 21 21 24 25 24 26 25 23 24 24
49 48 47 46 44 44 42 42 41 40 40 39 40 41 40 40 40 40 39 38 36 34 34 32 31 31 31 30 25 26 24 25 24 22 22 22 25 27 26 26 25 25 25
46 46 45 44 43 42 42 41 40 39 40 41 41 41 40 41 39 39 39 38 36 35 35 33 32 31 30 28 26 24 22 23 22 20 16 14 15 19 24 28 27 27 27
44 43 42 42 41 41 41 40 40 41 41 41 41 41 41 40 40 39 38 36 34 32 32 32 31 31 30 28 25 24 23 23 22 21 17 16 17 19 18 18 21 22 22
42 42 41 41 41 40 40 40 41 41 40 39 39 39 40 40 40 39 38 37 31 30 30 31 31 30 30 29 28 26 26 24 23 22 15 15 19 17 17 19 19 23 23
42 41 41 41 41 41 40 40 40 39 39 39 38 37 33 30 30 30 30 30 30 31 32 31 30 30 30 30 30 28 27 27 25 21 16 16 18 17 20 18 19 20 21
41 41 41 40 40 40 40 39 39 38 32 31 31 31 30 30 31 31 31 29 29 30 32 32 32 31 31 30 28 27 28 26 21 19 17 15 19 19 21 20 21 19 21
40 40 39 39 38 37 39 36 31 32 31 31 31 31 31 30 31 31 31 31 31 29 29 29 31 32 31 29 28 26 23 21 20 20 20 18 18 18 19 19 17 19 20
38 35 32 31 28 32 31 30 30 31 30 27 27 27 27 28 27 27 27 27 27 30 33 33 32 30 32 28 26 24 24 23 26 22 21 18 18 19 16 17 19 19 20

GFSMA_sfc_30mbdewp_057.txt.gz
Dewpoint
54 54 54 52 51 51 47 50 51 48 45 43 41 37 34 37 39 38 42 46 49 53 51 50 49 47 45 43 43 43 43 41 40 40 40 39 40 40 40 39 38 38 38
54 54 54 51 51 52 49 52 50 48 46 42 37 35 36 36 44 41 45 46 47 50 53 51 49 48 46 43 43 42 41 39 39 38 38 38 39 40 39 39 39 39 38
56 55 56 55 53 54 51 52 50 49 48 43 37 35 34 36 36 42 43 48 51 52 53 52 49 47 45 44 43 40 39 38 36 36 36 38 38 38 38 38 37 37 37
56 56 56 56 54 54 53 52 50 48 47 42 38 36 36 36 34 35 43 45 48 50 50 49 48 46 43 41 39 37 37 35 35 36 36 37 37 36 36 36 36 36 36
57 54 55 55 57 55 53 50 50 48 48 46 39 37 35 36 33 33 39 44 45 47 47 48 46 45 42 39 37 34 30 32 33 35 36 36 36 36 36 35 35 35 35
57 57 56 57 57 53 52 52 50 50 49 44 38 37 37 37 35 34 36 37 35 44 44 45 45 41 40 37 34 32 32 32 33 35 35 37 37 37 36 35 35 35 35
57 58 57 57 57 54 52 52 51 49 48 45 40 38 40 39 37 35 35 34 34 32 38 37 36 34 36 37 35 35 34 33 33 34 34 35 36 35 35 34 35 34 34
58 58 58 58 57 54 54 52 50 49 47 43 38 40 38 41 40 37 37 35 34 33 32 34 32 32 33 33 35 37 35 33 34 34 35 35 34 35 34 33 33 33 33
58 58 59 58 56 55 54 53 51 48 46 45 41 39 39 38 39 39 38 38 36 35 35 35 33 31 32 35 38 39 36 36 35 34 34 34 34 34 34 33 32 32 31
58 58 58 58 57 56 54 53 52 50 47 45 45 42 42 40 36 35 39 38 38 36 34 35 35 35 33 33 36 38 38 36 35 34 33 32 32 30 30 30 30 30 30
58 58 58 57 56 56 55 53 52 50 49 47 43 42 42 40 39 37 36 37 39 38 37 36 36 34 31 32 37 39 38 35 35 34 32 30 28 29 29 29 29 29 29
58 58 58 57 56 55 54 53 53 51 51 49 47 45 42 40 40 42 38 36 36 36 36 36 37 32 32 33 37 39 38 35 34 32 31 29 28 29 28 28 28 27 28
57 57 58 56 56 55 55 54 53 52 51 46 43 44 46 45 42 40 38 37 36 34 33 33 32 32 32 34 36 39 38 34 33 32 30 30 29 29 27 26 24 25 27
57 58 58 57 56 55 54 53 52 51 48 45 46 45 43 42 43 43 41 39 37 37 34 33 33 33 33 33 36 39 36 33 33 33 31 30 29 28 27 25 23 23 24
57 57 58 57 56 55 53 52 49 47 47 46 43 43 43 44 43 42 43 42 39 35 33 32 31 31 31 32 34 37 33 35 33 32 33 31 29 29 27 25 23 22 22
56 56 56 55 54 52 50 48 47 46 45 44 43 43 43 43 43 43 43 43 41 37 34 32 31 31 29 28 30 34 31 33 34 33 31 30 31 30 28 25 22 23 21
55 55 54 53 51 50 48 47 45 44 43 43 43 42 42 42 42 42 42 42 39 36 34 32 32 31 28 27 28 33 31 31 30 32 30 31 32 31 30 27 24 24 23
56 55 53 52 49 47 45 44 43 42 42 42 41 41 40 42 41 41 41 40 38 37 34 33 33 32 31 31 29 28 28 27 27 27 30 30 28 27 26 27 27 27 26
52 51 50 48 46 45 44 43 43 42 42 40 40 40 41 41 40 40 40 40 39 38 36 35 34 33 33 32 30 29 27 27 26 26 27 27 26 30 29 29 28 29 28
48 47 46 45 44 43 43 42 42 41 40 40 41 41 41 40 40 40 40 39 38 38 37 36 35 35 33 33 32 30 28 27 26 24 23 21 22 21 26 29 31 31 30
46 45 44 43 43 42 42 41 41 40 40 40 41 41 41 41 41 40 39 38 38 37 35 34 32 30 30 30 30 30 28 27 24 24 21 18 16 16 19 20 22 25 27
43 42 42 41 41 40 40 40 40 40 41 40 40 39 39 39 39 39 39 39 39 37 35 32 31 29 29 30 30 29 28 27 26 26 22 18 17 18 19 18 19 20 25
41 40 40 40 40 40 40 40 41 40 39 38 38 38 38 34 33 31 31 31 31 31 33 32 30 29 30 30 30 30 29 28 27 27 21 18 19 16 18 19 21 24 25
40 40 41 41 40 40 40 40 39 38 37 32 32 31 30 28 30 28 27 26 27 29 30 31 31 31 31 32 32 31 31 30 28 25 20 17 18 16 19 21 24 24 21
41 40 40 40 39 39 39 38 34 31 30 28 26 26 26 26 26 24 21 19 18 17 17 20 25 29 31 32 33 32 30 27 26 22 21 18 18 18 19 20 20 20 21
39 39 37 35 34 31 29 31 28 25 21 20 22 23 22 23 24 23 22 23 23 22 22 23 24 26 27 28 31 32 31 27 26 24 23 21 22 20 17 19 18 19 18

GFSMA_sfc_30mbdewp_060.txt.gz
Dewpoint
55 55 54 52 50 50 47 48 51 46 43 42 38 36 37 35 34 40 48 54 55 52 50 49 49 47 45 43 44 45 42 41 40 40 39 40 40 41 41 40 40 40 39
53 53 52 50 49 51 47 50 49 46 44 38 36 36 38 38 40 37 42 50 53 54 52 51 50 48 46 43 45 43 41 40 39 38 37 39 40 40 39 39 39 39 39
52 53 52 50 50 51 50 52 50 48 45 41 36 35 36 41 43 38 41 45 50 53 54 53 50 49 48 46 45 42 39 38 37 36 37 38 38 38 38 38 38 38 38
53 54 55 53 53 53 52 52 50 49 46 42 37 36 35 36 40 40 43 48 50 52 54 53 51 48 47 46 44 41 39 36 34 35 36 37 37 36 37 37 36 36 36
57 56 55 56 56 55 54 52 50 48 46 44 39 37 36 35 34 40 41 45 49 50 49 50 49 48 46 43 40 39 35 32 33 35 36 37 37 37 37 37 36 35 36
57 56 56 56 57 56 53 51 49 49 48 47 41 38 36 36 35 35 41 44 45 47 47 48 48 46 45 42 38 36 33 34 34 34 35 36 38 38 37 36 36 36 35
56 56 56 56 57 55 53 51 50 49 49 47 40 38 38 39 38 36 37 40 40 43 45 45 45 41 40 43 38 36 36 36 35 34 35 35 36 35 35 35 34 33 34
57 57 57 57 57 55 53 52 50 49 49 45 41 39 36 39 40 38 36 36 36 37 42 41 39 36 33 40 38 37 38 38 36 35 35 36 35 34 34 34 33 33 33
56 57 57 57 57 56 54 52 51 49 48 46 41 40 38 37 39 40 38 37 36 35 35 35 35 33 33 34 36 40 41 39 37 37 36 35 34 33 32 32 32 32 32
57 57 57 58 57 56 55 54 53 51 48 47 45 43 42 40 37 36 39 39 39 36 35 35 35 33 33 33 34 37 41 38 38 37 36 35 33 32 30 30 31 31 31
57 58 58 58 57 57 56 54 53 52 50 49 46 44 44 41 40 38 36 39 42 40 38 36 36 35 34 34 35 39 40 37 37 37 36 36 33 31 30 31 31 31 31
55 57 58 58 58 57 56 55 55 53 51 49 48 46 46 42 41 41 41 42 37 38 39 38 38 37 35 33 36 39 40 37 37 38 37 35 33 32 31 30 30 29 28
55 56 57 57 57 57 56 56 55 53 52 50 49 49 46 45 45 43 41 39 37 36 34 35 34 36 36 35 37 40 41 37 37 39 37 35 33 32 31 30 29 27 26
54 56 57 57 57 57 56 56 54 53 51 50 49 47 45 45 45 43 42 40 38 39 38 37 35 36 35 34 36 41 40 39 38 38 37 36 33 32 31 30 29 27 25
56 57 57 57 57 56 57 55 53 50 49 48 47 45 45 44 45 44 43 42 40 38 38 36 35 33 33 32 33 39 39 40 39 37 37 36 35 33 32 30 30 27 25
57 57 57 57 57 57 55 53 50 48 47 46 45 44 44 44 44 44 43 43 42 40 38 35 33 32 32 31 31 37 38 36 38 37 36 35 35 35 34 32 30 27 25
56 55 56 56 55 54 51 49 48 46 46 44 44 43 43 44 43 43 42 42 42 41 38 38 34 33 31 30 29 33 35 35 34 38 37 34 34 34 34 34 33 30 26
55 55 55 54 52 50 48 47 46 45 44 43 43 43 42 43 41 42 41 40 41 40 38 36 36 33 33 34 34 33 32 31 32 32 36 35 34 34 34 34 33 32 30
55 54 53 52 50 48 46 45 44 44 43 43 42 42 41 41 41 40 40 40 40 39 39 37 37 37 37 35 34 33 32 31 31 31 32 36 35 33 35 33 31 31 30
53 51 50 48 46 44 44 43 43 43 42 42 41 41 41 41 41 40 40 39 38 38 37 37 37 36 35 35 34 33 32 32 31 30 30 30 32 34 34 33 33 30 31
48 47 46 45 44 43 43 43 42 41 40 40 40 41 41 41 41 41 40 39 38 37 36 35 34 33 32 30 30 30 30 30 30 29 27 25 24 25 26 29 30 32 32
45 44 44 43 43 42 42 41 41 40 39 40 40 40 39 38 36 32 31 30 31 32 32 33 32 31 31 30 30 30 30 29 28 29 26 27 27 25 26 24 22 21 21
43 43 42 42 41 41 40 40 39 40 40 39 37 35 31 30 29 28 26 25 25 26 29 28 27 27 29 29 31 32 32 30 29 30 28 27 27 28 22 19 21 22 24
41 40 40 39 39 39 40 40 39 37 33 31 30 28 26 27 26 23 20 18 19 20 19 19 20 21 23 24 26 27 27 29 32 32 28 29 25 21 20 19 22 26 28
39 39 40 39 39 39 39 37 34 31 28 25 24 24 22 21 24 22 22 22 23 23 24 24 25 26 27 27 28 28 24 25 25 28 27 27 23 19 20 19 20 23 25
40 40 39 38 38 36 34 32 29 25 22 20 21 20 21 22 21 21 24 24 23 23 24 25 26 26 26 26 27 27 26 25 25 25 25 24 22 21 24 20 20 20 19

GFSMA_sfc_30mbdewp_063.txt.gz
Dewpoint
55 54 53 51 50 48 47 49 46 43 40 37 37 36 35 40 47 52 55 55 53 52 51 50 49 48 47 46 46 44 43 41 40 40 40 41 41 41 41 41 40 40 40
54 53 51 49 49 47 48 50 46 44 42 38 36 37 36 33 36 44 50 54 55 53 51 50 49 48 46 45 45 44 41 40 39 38 38 40 40 40 39 39 39 39 39
53 52 50 49 48 48 48 51 48 46 41 37 35 37 38 41 37 36 42 49 53 54 53 53 51 49 47 46 46 43 40 39 37 36 37 38 38 38 38 38 38 38 37
53 52 50 49 50 51 49 51 50 47 43 39 36 35 37 42 41 37 39 42 48 52 55 55 53 51 49 47 46 44 41 38 34 35 37 37 37 37 37 38 38 37 37
53 52 51 51 52 52 52 51 50 48 46 43 39 37 36 36 39 40 40 42 46 50 52 55 54 51 49 47 43 42 41 33 34 35 37 38 38 39 39 38 38 37 37
54 53 53 54 55 54 53 53 50 49 48 45 41 38 36 37 36 38 40 42 45 49 50 51 50 49 49 46 40 40 39 35 35 36 37 37 38 37 36 35 36 36 35
57 56 56 55 56 55 54 53 51 49 48 47 41 39 39 37 37 35 37 42 44 46 48 48 48 47 47 47 41 40 38 37 38 36 36 36 36 35 35 35 34 34 34
55 57 56 56 56 55 54 52 50 49 49 46 43 39 36 38 40 39 36 37 42 42 45 46 46 45 41 42 43 41 38 38 39 38 37 37 37 35 34 33 33 33 33
55 56 56 56 56 56 54 52 51 50 48 48 43 42 39 38 39 40 40 37 37 38 39 43 42 41 38 35 39 42 42 41 40 39 39 38 37 35 33 32 31 31 32
53 54 56 57 56 56 55 54 53 51 50 48 46 43 42 41 38 38 39 40 38 36 36 37 39 37 36 35 35 38 38 42 41 39 40 39 38 36 34 32 31 32 32
53 55 56 56 56 56 56 55 54 52 51 51 48 45 44 44 43 40 39 39 42 41 40 37 36 36 35 34 34 35 38 38 40 41 39 39 39 37 35 33 32 32 31
52 55 56 57 57 57 56 56 55 54 53 52 50 48 46 45 44 43 41 42 42 41 41 42 40 37 37 36 35 36 40 40 40 41 40 39 39 38 36 34 33 33 31
51 53 55 56 57 57 57 56 56 55 54 52 50 49 48 48 46 44 43 42 41 41 37 37 37 38 38 37 36 38 40 42 40 40 41 40 40 38 36 35 34 33 31
50 52 54 56 57 57 57 56 56 55 54 52 51 49 48 48 47 45 44 43 41 40 39 37 37 36 35 35 36 37 39 41 40 40 40 41 41 39 37 35 34 32 31
52 53 54 56 56 56 56 56 57 56 53 52 50 50 49 47 46 45 44 43 42 39 39 39 37 36 35 34 34 37 40 39 42 40 40 40 41 40 39 37 35 33 32
55 55 56 56 56 57 57 57 57 53 51 49 48 48 46 45 45 44 44 43 43 41 38 39 36 34 34 33 33 34 36 40 40 41 40 39 39 39 39 38 37 35 32
57 57 56 57 57 57 56 54 52 50 49 47 46 45 44 44 44 44 43 43 42 42 39 40 39 36 34 33 33 32 34 35 37 38 39 39 38 38 37 37 37 36 35
57 57 56 56 55 54 53 52 49 48 47 45 45 44 44 44 43 43 42 41 41 41 40 38 38 36 34 34 34 34 35 34 34 34 35 37 38 38 37 36 36 36 34
56 56 56 54 53 51 50 48 47 46 45 45 44 44 43 43 42 41 41 40 40 40 39 38 38 38 37 37 36 36 34 34 34 34 34 34 35 37 38 37 35 34 34
56 55 54 53 51 48 47 46 45 44 44 43 43 42 42 42 41 41 40 39 39 37 36 35 35 34 34 34 34 33 33 33 32 32 32 32 32 33 36 37 36 35 36
54 53 50 48 47 46 45 44 44 43 42 42 41 41 41 41 41 40 40 38 37 36 35 34 33 32 31 31 30 31 30 30 30 31 30 30 31 31 32 34 36 35 34
48 47 47 46 45 44 43 43 42 42 41 40 40 41 37 34 32 30 29 29 29 27 25 26 25 21 24 27 29 28 27 25 22 27 29 28 28 27 26 30 32 32 33
46 45 44 44 43 43 42 41 41 40 40 40 38 35 30 28 27 24 21 18 17 19 23 21 20 21 22 21 23 24 24 24 23 22 24 24 29 28 29 29 31 32 29
43 43 43 42 42 41 40 39 39 37 34 31 30 28 27 25 23 22 19 17 21 22 23 23 21 22 22 23 25 25 25 25 25 23 26 23 25 28 30 30 30 30 29
42 41 41 40 40 38 38 37 34 30 26 25 24 22 20 22 23 22 21 21 22 23 24 22 22 23 25 27 26 26 23 23 22 22 22 24 25 27 25 25 24 27 27
40 40 38 39 38 37 36 33 30 25 23 21 19 20 22 21 21 23 24 23 21 21 19 19 19 21 21 25 24 25 24 21 21 21 22 24 23 26 24 25 25 22 26

GFSMA_sfc_30mbdewp_066.txt.gz
Dewpoint
55 54 52 50 48 48 48 45 41 41 40 42 44 47 49 51 53 54 55 55 53 52 52 50 50 50 49 47 45 44 43 42 41 41 41 42 42 42 41 41 41 40 40
54 52 51 49 48 48 48 45 42 39 38 37 36 37 40 45 49 52 54 55 54 54 52 51 50 49 48 47 46 44 42 41 40 39 40 41 41 41 40 40 40 39 39
53 52 50 49 48 48 50 47 45 42 38 37 36 37 35 34 38 47 51 53 55 54 52 52 51 49 47 47 46 44 42 40 38 37 39 40 39 39 39 39 39 38 38
52 51 50 49 49 48 51 48 46 43 39 36 36 37 38 41 37 36 42 48 51 54 54 54 53 51 49 48 48 45 42 40 36 36 38 38 38 38 38 39 39 38 37
53 51 50 50 50 50 50 50 49 47 43 40 36 36 37 40 42 38 37 40 47 51 53 55 55 54 52 50 47 46 43 41 35 36 38 39 39 40 40 39 37 37 37
53 53 52 52 51 51 51 51 50 49 47 44 40 37 36 37 37 40 40 40 42 46 50 53 55 54 53 50 46 42 42 40 36 37 39 39 40 39 37 35 35 35 35
54 53 53 53 53 51 51 52 51 49 48 46 42 40 39 38 36 36 37 41 42 45 49 50 52 50 50 50 46 41 41 40 39 39 39 39 39 38 36 35 34 34 34
56 56 54 54 55 55 54 53 51 50 49 46 44 40 41 39 40 38 37 36 41 43 45 48 49 48 47 48 47 43 41 41 40 41 40 39 39 38 36 35 33 33 32
56 56 57 56 56 56 55 53 52 50 49 48 44 45 41 41 39 40 40 38 37 40 42 45 46 47 46 43 44 45 45 44 41 40 41 40 40 39 37 35 33 32 32
53 54 56 56 56 56 55 54 52 51 50 48 47 45 43 41 40 39 40 40 39 37 39 40 42 43 42 41 38 38 41 42 42 41 40 41 41 40 39 36 34 32 33
52 52 53 54 56 56 55 55 54 52 51 50 49 46 44 43 43 43 42 41 41 40 38 38 38 38 38 38 37 36 39 39 41 43 41 40 41 41 40 38 36 34 34
49 52 53 53 54 55 55 55 55 54 53 52 51 49 46 44 43 43 42 43 43 43 42 41 40 40 40 38 36 36 36 38 41 41 44 42 41 40 41 40 38 36 35
48 50 52 54 54 55 56 56 55 54 54 53 53 51 51 49 48 46 45 45 43 43 41 40 42 42 40 39 38 38 38 38 39 41 42 44 43 41 41 41 40 38 36
48 49 51 53 54 55 56 55 55 55 55 55 54 53 52 51 49 47 48 46 42 41 40 39 38 37 36 36 37 37 39 39 40 41 42 42 43 42 42 40 40 38 36
50 50 51 52 53 55 55 56 56 55 55 55 53 53 51 50 49 48 47 46 45 42 40 40 39 37 38 36 35 35 37 38 39 41 42 42 42 43 42 41 40 38 37
53 52 52 52 53 54 55 56 56 56 56 55 53 51 50 48 48 47 46 44 43 42 40 40 38 36 36 36 37 35 35 36 37 39 40 41 41 41 41 42 41 39 39
55 54 54 55 55 56 55 55 56 55 54 52 50 49 48 47 46 45 44 43 42 42 40 40 40 39 37 37 36 35 34 34 35 36 37 38 39 40 40 40 40 39 39
54 55 56 55 56 56 56 55 54 52 52 49 48 47 46 45 44 44 43 42 41 41 40 38 39 38 36 36 36 35 36 36 35 35 36 37 38 38 39 39 39 38 38
53 54 56 56 56 55 54 54 53 51 50 48 46 45 45 44 43 43 42 41 40 40 40 38 37 37 36 36 35 34 34 35 34 35 35 35 36 36 36 37 38 38 38
56 56 56 56 55 53 52 51 49 48 46 46 45 44 44 43 42 41 40 40 39 38 36 35 34 33 34 33 33 31 30 31 31 30 31 32 32 33 34 34 35 36 37
57 57 55 53 51 50 49 48 47 45 44 43 43 43 43 42 41 41 40 39 37 36 35 32 31 31 28 26 24 29 24 23 23 22 23 29 30 30 29 31 31 32 35
56 55 53 52 49 48 47 46 45 44 43 42 41 39 38 36 34 33 31 30 29 28 26 24 23 17 17 23 23 22 23 22 19 24 24 22 24 23 24 26 29 30 32
52 50 49 48 46 44 44 43 43 42 41 40 37 34 31 30 27 23 21 19 19 21 21 20 17 20 21 21 23 23 23 23 22 23 23 22 24 24 25 25 28 30 31
48 47 46 44 43 41 41 41 40 38 36 35 33 31 27 24 23 20 17 19 21 22 24 24 23 23 24 25 25 25 24 23 22 21 23 21 22 22 24 26 28 31 32
44 43 43 42 40 38 38 37 34 31 29 26 26 25 24 23 22 22 19 20 21 23 19 18 18 19 20 21 23 24 21 20 18 17 20 21 21 23 25 25 25 27 29
41 40 39 39 37 36 35 33 30 27 24 22 22 22 22 21 23 25 23 21 18 18 17 14 15 17 18 19 18 18 18 17 17 15 20 18 17 20 20 22 25 25 27

GFSMA_sfc_30mbdewp_072.txt.gz
Dewpoint
53 54 55 55 53 54 53 50 49 49 47 46 48 49 49 49 50 48 51 55 54 53 52 52 51 50 49 47 46 45 45 45 45 45 45 45 44 43 43 42 42 41 41
53 50 52 52 53 54 53 49 47 45 44 45 46 47 48 49 50 50 49 52 54 53 53 52 51 50 49 48 46 44 43 43 44 44 44 44 43 42 42 41 40 40 40
51 51 48 47 48 49 49 47 47 44 43 43 44 46 47 48 49 50 50 50 52 54 53 54 52 51 50 48 47 45 43 42 42 43 43 43 42 42 41 40 40 39 38
52 50 47 46 46 48 46 45 43 43 41 40 41 42 43 46 48 49 49 50 49 50 53 53 53 53 51 50 49 46 44 42 40 41 43 42 42 41 41 40 39 38 38
51 47 47 47 49 45 44 45 44 43 41 39 39 38 38 39 44 45 47 49 50 49 49 53 54 53 52 50 50 49 47 44 41 40 41 42 41 41 41 41 39 37 37
51 47 47 51 51 48 48 47 46 45 44 42 39 40 41 41 41 39 40 44 47 49 49 49 52 52 53 53 50 51 50 48 45 41 41 42 41 41 42 41 38 37 36
50 49 47 51 53 51 50 51 51 50 47 46 43 44 43 44 43 42 42 40 40 42 46 49 49 49 52 54 54 52 49 48 47 44 42 43 43 42 42 40 38 37 35
50 52 52 53 53 53 53 53 53 52 52 51 48 49 47 47 45 44 43 42 43 41 41 43 48 48 49 50 53 54 51 46 45 46 44 43 44 43 43 42 39 38 36
52 53 54 53 54 53 53 54 54 53 53 53 52 50 48 45 48 48 47 44 43 43 42 44 45 49 50 50 52 52 52 50 47 45 45 46 44 44 44 43 42 40 38
54 54 54 54 54 54 53 55 56 54 53 53 53 52 52 50 46 46 46 47 46 44 44 42 42 46 47 51 50 50 49 49 47 47 46 45 43 46 46 45 44 43 41
57 54 55 55 54 55 56 55 56 55 54 53 53 52 51 51 50 49 46 47 46 44 44 44 44 44 45 46 48 49 47 46 45 45 45 44 43 42 42 44 47 46 44
56 56 55 55 54 56 55 53 56 57 55 54 52 53 52 50 50 50 49 49 50 49 47 47 46 44 45 44 45 43 45 44 43 44 44 43 42 42 42 43 42 48 49
54 53 55 55 54 52 54 54 53 53 53 53 53 53 54 54 53 52 51 49 50 51 49 50 48 46 45 45 43 40 42 41 40 41 42 43 43 43 42 41 40 41 43
52 53 54 54 53 53 53 54 54 53 53 54 54 54 53 54 55 54 52 50 47 48 49 47 47 47 47 45 45 42 41 40 40 40 41 42 43 43 44 44 43 43 43
52 53 53 54 54 52 53 54 53 53 53 54 54 54 54 55 56 55 54 53 50 46 45 48 46 44 43 41 41 41 42 39 38 37 38 38 39 41 42 42 42 42 41
51 52 52 53 52 51 51 51 51 51 51 52 53 54 54 56 56 56 55 53 52 50 47 47 46 43 42 40 38 41 42 38 36 36 37 38 38 39 40 40 41 41 41
52 51 51 52 50 49 49 50 50 51 50 51 53 55 55 57 55 54 54 53 51 50 47 44 43 41 41 41 40 42 41 40 40 38 37 37 37 37 37 37 38 38 38
53 52 51 50 49 49 51 51 51 51 51 52 53 56 56 55 54 53 52 50 48 49 46 43 41 41 41 42 42 41 39 37 36 36 34 34 34 34 34 34 35 36 36
52 52 51 51 50 51 51 51 52 52 52 55 56 55 54 54 52 49 48 47 46 45 43 43 42 42 41 39 37 38 37 35 32 28 27 26 26 28 31 32 31 32 34
50 50 51 51 52 52 52 52 54 54 54 53 54 55 54 54 52 48 46 45 44 43 42 42 41 38 37 37 36 32 29 28 23 14 14 17 19 20 24 27 29 27 27
51 51 51 52 53 54 53 53 53 53 53 54 53 52 52 50 49 47 45 44 43 42 40 40 36 35 35 33 31 26 22 17 16 17 16 19 17 16 18 22 21 24 26
51 51 51 51 51 53 53 52 54 55 53 51 49 47 46 46 45 44 43 42 42 39 38 36 35 33 32 28 23 20 16 14 12 13 20 17 17 15 16 17 18 21 23
51 51 51 51 52 53 54 53 53 54 51 48 45 42 40 38 37 35 33 32 31 31 33 34 32 28 24 21 18 18 16 17 16 16 16 15 17 16 16 13 18 22 24
51 52 53 53 55 56 52 50 48 49 45 43 40 38 35 32 30 29 27 25 23 21 21 19 21 20 19 18 19 18 19 19 18 15 13 12 13 13 16 14 16 18 21
54 54 54 54 53 48 45 43 43 39 36 34 34 33 32 30 30 29 27 25 23 21 20 19 20 19 19 20 20 16 15 12 14 11 10 10 13 12 9 12 15 18 25
50 47 44 44 43 41 40 39 38 34 31 30 30 30 30 30 30 27 25 23 20 16 12 11 14 15 15 17 16 13 9 10 11 11 9 11 10 7 10 12 14 17 20

GFSMA_sfc_30mbdewp_075.txt.gz
Dewpoint
57 58 58 55 50 51 50 48 48 48 47 47 48 49 48 47 48 49 52 55 55 53 52 52 51 50 50 49 48 47 47 47 47 47 46 46 44 44 43 43 42 42 42
57 57 57 55 53 53 50 48 48 47 46 46 48 48 48 49 48 49 51 53 55 54 53 52 51 51 49 47 46 46 46 46 46 46 46 45 44 43 43 42 41 40 40
56 56 56 54 53 53 52 49 47 45 44 44 46 47 48 49 49 49 49 51 53 54 55 54 52 51 50 49 47 45 44 45 45 45 45 45 44 43 42 41 40 39 38
54 55 53 53 53 53 50 47 45 43 43 43 44 45 45 47 49 50 49 50 50 50 53 55 54 53 51 49 49 47 45 43 43 44 45 45 44 43 42 41 40 39 38
53 51 50 50 53 51 49 46 45 43 42 41 42 42 43 44 47 48 48 49 51 50 51 52 54 54 54 52 51 50 47 45 43 42 44 44 44 43 43 42 41 39 38
53 51 50 51 50 49 47 45 46 45 43 41 39 40 41 41 43 45 46 48 49 49 49 52 52 52 54 54 52 51 50 49 46 44 43 44 44 43 43 42 42 39 38
51 50 49 52 51 46 46 49 48 47 46 45 42 43 44 46 45 42 42 44 47 49 50 49 53 52 52 53 53 52 51 52 51 48 45 44 45 44 43 43 42 40 39
51 50 50 52 52 49 51 52 52 50 49 49 45 46 46 46 47 47 46 45 45 44 45 48 49 50 51 52 53 54 52 52 50 50 49 45 45 45 45 45 44 42 40
53 48 50 53 54 54 54 55 55 53 52 52 53 50 47 47 49 49 49 47 47 47 45 45 46 48 49 51 53 54 54 54 53 49 48 50 47 46 46 46 46 45 43
55 50 53 54 56 55 55 56 56 55 53 52 52 53 53 53 47 48 49 50 50 47 48 47 44 46 46 49 49 50 52 53 53 52 48 48 48 48 47 47 47 47 47
55 54 54 55 54 54 55 56 56 55 55 52 53 53 51 52 53 49 44 48 49 49 48 49 46 46 47 47 48 50 49 51 51 51 50 48 46 45 45 46 47 48 49
56 55 54 54 54 54 54 54 54 55 56 53 52 54 51 50 50 50 49 48 49 50 48 47 49 48 49 47 47 46 48 48 48 48 48 48 46 45 43 43 44 44 44
55 55 54 53 52 52 53 53 54 55 54 53 52 51 51 52 52 51 52 51 50 52 52 51 51 52 51 50 47 46 45 46 45 44 45 45 45 44 44 43 43 43 43
54 55 55 53 52 52 53 54 53 54 53 54 53 54 51 52 53 53 51 51 50 50 52 51 52 52 51 50 48 46 44 41 41 41 41 42 44 44 44 44 44 44 43
54 54 54 53 53 53 53 54 54 53 53 53 54 54 53 54 54 54 54 54 52 48 47 49 49 50 51 50 46 45 45 42 40 40 40 40 41 42 42 42 42 42 41
55 55 55 54 53 52 53 53 53 52 53 54 54 55 55 55 54 55 56 56 54 51 49 49 50 49 48 46 44 44 44 40 38 37 37 38 38 39 40 41 40 40 40
55 55 55 54 53 52 53 53 52 53 52 53 53 53 53 54 54 55 57 56 55 53 50 50 48 49 45 44 40 42 44 43 42 38 37 38 37 36 36 37 37 37 36
55 54 54 54 53 52 53 53 53 52 52 51 52 52 52 54 54 55 56 55 53 53 51 49 45 46 44 43 42 42 43 42 41 40 39 37 35 33 31 31 30 32 34
55 54 53 53 53 53 53 53 52 52 52 51 52 52 52 53 55 56 54 53 52 52 50 49 44 44 43 43 43 41 40 40 39 38 34 30 26 23 26 28 29 29 30
54 54 54 53 53 52 52 51 51 51 52 52 52 53 53 55 55 55 53 52 51 48 47 46 44 43 42 41 39 38 37 37 34 30 21 13 17 23 24 24 25 27 28
54 54 54 54 54 54 52 52 52 52 52 52 53 55 55 55 54 54 52 51 49 47 45 44 42 41 40 38 38 36 33 30 27 23 19 19 19 21 22 27 27 28 31
53 53 53 53 53 53 52 51 52 52 53 53 53 53 53 52 52 51 51 50 48 46 44 43 40 39 38 37 35 32 26 23 19 19 19 19 20 20 20 21 19 17 19
53 53 52 52 52 53 51 51 51 53 52 53 54 53 49 47 47 43 40 39 38 39 41 40 38 37 36 33 27 25 21 20 18 19 18 19 21 20 21 18 18 20 22
53 54 54 54 53 53 51 51 50 52 53 54 52 48 43 40 39 37 35 33 31 30 30 30 33 31 28 26 22 20 20 20 20 19 18 18 19 19 20 19 19 17 19
54 54 54 54 53 53 50 51 50 48 43 39 38 38 37 34 33 34 32 31 31 29 29 29 28 25 22 20 19 18 18 17 20 16 16 16 15 17 19 18 17 20 20
54 53 49 49 48 47 45 46 44 39 35 33 32 32 32 32 32 31 30 29 26 22 16 12 11 10 14 16 11 14 12 12 13 14 15 15 14 13 12 15 17 19 21

GFSMA_sfc_30mbdewp_078.txt.gz
Dewpoint
60 60 59 53 51 52 52 51 51 51 50 48 52 50 50 51 52 53 55 55 55 54 53 52 52 51 51 50 49 49 49 48 48 47 47 46 45 45 44 43 43 43 44
61 59 58 51 52 51 50 50 52 51 50 50 50 51 50 51 52 53 54 55 55 54 53 52 52 51 50 50 49 48 48 48 48 47 47 46 45 44 43 42 42 41 41
59 58 57 53 54 52 50 51 50 50 49 49 50 51 51 51 52 53 53 54 55 55 54 53 53 51 50 49 48 47 47 47 47 47 47 46 45 44 43 42 41 40 39
58 57 57 55 55 53 52 52 49 48 48 48 49 49 50 50 52 52 52 53 54 54 55 54 54 53 52 50 48 47 46 46 46 47 47 46 45 44 43 42 41 40 39
56 56 57 57 57 54 54 50 49 47 47 47 48 48 49 49 50 51 51 51 52 52 54 55 55 54 53 52 50 49 48 46 45 45 47 46 46 45 44 43 42 41 40
56 56 57 57 55 54 52 49 49 48 46 46 43 45 47 48 49 50 51 52 52 51 52 53 55 55 54 54 53 52 51 49 47 45 45 46 46 45 45 44 44 43 40
55 54 52 53 52 51 48 48 49 46 46 47 44 44 43 45 46 46 49 50 50 52 53 52 53 53 54 55 55 53 52 52 51 49 47 46 46 46 45 45 44 44 42
54 53 52 52 50 49 48 51 50 49 49 49 46 46 45 46 47 48 46 46 48 50 51 53 53 52 52 53 53 54 53 53 52 53 50 49 47 47 47 46 45 45 44
53 52 53 53 52 51 52 52 52 51 50 49 50 49 48 47 48 49 48 49 46 47 47 50 51 53 53 52 53 54 54 54 54 54 54 53 50 48 48 48 47 47 47
54 51 53 54 54 54 54 54 55 55 54 51 52 53 54 53 48 48 51 50 50 49 48 48 47 49 49 51 54 53 53 53 53 55 55 53 53 51 49 49 48 48 48
55 55 52 55 55 56 56 56 56 56 55 54 52 52 51 52 52 49 47 51 51 50 50 50 49 48 48 48 49 50 52 53 52 53 54 54 51 51 51 50 50 50 50
55 55 55 56 57 56 57 57 56 57 56 53 53 53 51 50 50 49 48 49 49 51 51 50 50 49 48 48 48 47 47 50 51 52 53 54 52 50 48 47 46 45 46
54 54 55 55 55 55 55 56 56 56 55 52 52 52 53 52 52 51 50 50 50 51 51 50 50 50 50 49 49 47 47 47 47 50 51 51 50 50 49 48 47 46 45
53 53 55 54 54 53 53 53 53 54 54 54 52 53 52 52 52 53 51 51 50 51 53 52 53 52 52 52 52 51 48 47 47 48 47 47 46 45 45 45 45 45 45
52 52 53 54 54 52 52 52 52 53 54 54 54 54 53 54 53 53 53 53 51 49 49 50 51 53 53 53 52 51 48 45 43 42 42 42 43 44 44 43 43 43 42
54 51 51 54 54 52 51 51 51 52 53 53 53 54 54 53 53 54 54 54 54 52 49 50 51 51 52 52 50 47 46 45 42 41 40 41 41 41 41 41 41 42 42
55 54 53 53 54 53 52 51 51 51 52 52 52 52 52 53 53 55 55 55 54 54 52 51 51 51 49 49 46 45 45 43 41 38 38 38 38 38 39 38 38 38 38
56 54 54 54 54 53 52 52 51 51 51 51 51 52 52 53 55 55 55 55 55 55 53 51 51 49 49 49 45 43 45 45 44 41 39 38 38 37 36 35 34 33 31
55 56 55 54 54 53 52 52 51 51 51 51 51 52 52 53 53 54 54 54 56 54 53 52 51 48 48 46 44 43 43 44 42 41 41 39 38 36 34 28 26 28 29
56 55 55 55 55 54 53 52 51 51 51 52 52 52 52 52 52 53 54 55 54 53 53 52 51 47 45 45 45 43 42 41 40 39 39 37 35 33 24 22 24 26 27
56 55 55 54 54 54 53 53 52 52 52 52 52 52 53 52 52 53 54 54 54 52 51 50 48 44 43 41 42 42 41 40 39 38 30 24 22 21 22 27 26 27 29
55 55 55 54 54 53 52 51 52 52 52 52 52 52 53 53 53 54 53 53 53 51 49 49 47 44 43 42 41 39 37 36 30 30 25 22 22 23 23 23 21 24 25
54 54 54 54 54 54 52 51 50 52 52 52 52 52 52 52 52 52 43 43 40 41 39 47 45 40 38 38 36 33 31 31 30 29 25 21 25 22 23 21 21 22 21
54 54 54 54 54 54 53 51 49 51 52 53 53 52 52 49 46 44 37 34 33 33 34 34 33 32 33 34 34 33 32 32 31 28 24 19 20 20 24 23 21 22 21
54 54 54 53 53 53 51 50 48 51 51 46 42 43 43 40 37 36 35 32 28 28 31 32 32 31 30 30 31 32 29 26 23 22 22 20 19 20 21 21 18 17 22
54 54 54 52 53 53 49 48 48 46 41 36 33 33 34 34 34 34 33 30 27 25 24 23 22 24 22 19 15 23 19 16 17 15 17 16 17 16 16 18 20 18 19

GFSMA_sfc_30mbdewp_081.txt.gz
Dewpoint
61 61 60 58 56 56 54 51 51 48 48 48 50 51 52 53 54 55 55 55 55 54 53 53 53 52 52 52 51 50 50 49 49 48 47 47 47 46 45 45 45 45 45
62 60 56 54 54 53 50 50 51 48 47 48 50 52 52 53 54 55 55 55 55 55 54 53 53 52 51 50 51 50 50 50 48 48 47 46 45 44 44 43 43 43 43
61 58 52 52 51 52 48 50 51 51 49 51 50 52 52 53 54 54 55 55 55 55 55 54 53 52 52 51 50 50 50 49 49 48 47 46 45 44 43 43 42 41 40
60 58 50 52 51 52 48 51 51 50 49 49 50 51 52 52 53 53 54 54 55 54 55 55 54 54 52 51 49 49 49 48 49 48 48 47 46 45 44 43 42 41 40
60 58 52 54 52 53 50 52 50 48 48 49 49 49 50 52 52 52 53 53 54 54 55 55 55 54 53 51 50 49 48 48 48 48 48 48 47 46 45 44 43 42 41
58 58 57 57 55 54 53 50 49 48 48 49 47 48 49 51 52 52 52 53 53 53 54 54 55 54 54 54 53 51 50 49 48 48 48 48 48 48 47 46 45 44 43
57 57 57 57 57 55 51 49 49 47 46 47 45 46 45 48 50 51 52 52 52 52 53 53 54 54 54 55 55 53 53 52 51 49 48 48 48 48 47 47 46 46 45
54 54 56 55 55 52 51 49 47 48 45 48 44 44 41 43 46 47 47 51 52 52 52 52 53 54 54 54 54 55 54 54 53 52 51 50 49 49 48 47 47 47 46
55 54 54 55 53 52 49 49 48 47 45 49 46 46 46 43 45 47 47 46 47 50 52 52 52 52 53 53 54 55 55 54 55 55 55 54 52 51 49 49 48 48 47
55 53 53 53 52 52 50 51 51 48 49 47 50 53 53 52 47 48 50 48 48 46 47 49 53 53 52 52 52 53 53 54 54 55 56 55 55 53 51 51 50 50 49
55 53 54 54 52 54 53 53 53 53 53 50 48 51 51 53 53 49 48 50 51 51 49 48 48 50 52 53 53 53 52 52 53 53 55 56 56 55 54 52 52 52 51
54 54 53 55 54 55 55 55 55 55 54 52 51 50 49 50 50 50 47 48 49 51 51 51 50 49 49 49 50 52 53 52 52 52 53 54 55 55 54 53 53 51 51
53 53 54 55 55 56 56 57 56 56 56 54 53 52 52 51 51 50 48 47 48 50 51 52 51 51 49 48 48 48 48 48 49 51 52 53 54 55 55 53 51 50 49
53 52 54 55 56 56 56 56 56 56 55 54 53 53 52 53 53 52 50 49 48 49 51 50 51 50 50 50 49 48 47 47 46 47 49 50 53 54 52 51 50 50 48
54 54 52 55 55 55 55 55 54 54 55 54 53 52 52 53 53 53 53 52 49 47 46 50 51 52 51 51 51 51 50 49 48 47 47 49 50 50 48 47 46 46 46
53 54 53 53 54 54 53 53 53 52 53 53 53 53 52 52 53 54 53 53 53 51 48 49 50 52 53 53 52 52 51 51 48 47 46 47 46 45 44 44 44 43 43
54 52 53 53 53 54 53 52 51 50 51 51 52 53 53 53 53 53 54 53 53 53 51 51 51 51 51 52 53 52 51 49 46 45 43 42 42 42 43 42 41 41 41
56 54 53 51 51 53 53 52 51 50 49 50 51 52 53 53 53 53 54 53 53 53 52 51 52 50 50 50 50 48 48 46 45 43 42 41 41 40 39 39 39 38 37
56 55 55 53 51 51 52 52 51 50 50 50 50 51 51 51 51 51 52 53 53 53 53 53 51 51 51 48 48 46 47 46 45 44 42 41 41 40 39 38 36 34 30
55 55 55 54 54 53 52 51 51 51 50 50 50 51 51 52 51 51 52 53 54 54 54 53 53 52 49 47 48 47 44 45 45 44 43 42 41 40 39 36 28 24 27
56 55 55 55 54 54 54 53 52 52 51 50 50 51 52 52 52 52 53 53 53 54 54 53 51 51 45 43 45 46 45 44 42 42 41 40 39 38 36 32 26 28 28
56 56 56 55 55 54 54 53 53 52 52 51 50 50 51 51 51 50 50 51 53 53 52 51 51 50 48 46 46 45 42 38 37 38 35 33 31 29 30 28 28 27 27
55 56 56 55 55 55 53 52 51 53 52 52 51 51 51 52 51 51 47 44 41 42 44 50 51 50 46 43 40 37 35 34 32 34 33 32 33 32 29 24 23 22 26
54 54 55 55 55 55 53 51 50 52 53 53 52 52 52 50 50 49 43 38 34 34 35 38 40 37 36 37 36 35 34 32 32 33 33 30 29 26 26 28 26 24 23
54 54 54 54 54 55 53 52 49 50 51 52 48 48 51 49 46 43 41 35 31 30 33 33 33 33 33 34 34 33 31 30 28 29 30 29 26 24 23 23 23 22 20
54 54 54 54 54 54 53 51 50 52 49 43 38 38 40 43 39 38 37 32 29 28 28 28 27 28 30 30 31 32 31 28 27 23 20 21 19 18 15 22 20 19 20

GFSMA_sfc_30mbdewp_087.txt.gz
Dewpoint
61 63 62 61 60 59 57 54 51 51 52 53 54 54 54 54 54 55 56 57 56 56 55 55 54 54 54 53 53 52 52 52 52 51 50 50 50 49 49 49 49 48 47
62 62 60 59 58 57 55 53 50 50 52 53 53 53 54 54 54 54 56 56 56 56 56 55 54 54 53 53 53 52 52 52 51 50 50 49 48 48 47 48 48 46 44
62 61 60 58 57 56 54 52 49 49 51 52 53 53 54 54 54 55 55 56 56 56 56 55 54 54 53 53 53 52 51 51 50 49 49 48 48 46 46 46 46 44 43
61 59 58 56 55 53 52 51 49 49 51 52 52 53 53 54 54 54 55 55 55 55 56 55 55 54 54 53 52 52 52 51 50 49 49 47 47 45 45 44 44 43 42
59 57 56 54 52 51 51 50 49 49 51 51 52 52 53 53 54 54 54 54 54 55 55 55 55 55 54 53 53 53 52 52 51 50 49 48 47 46 46 45 44 43 42
58 55 54 53 51 49 51 50 49 49 51 51 51 52 52 53 53 53 53 54 54 54 54 55 55 55 55 55 53 53 53 53 52 52 51 50 49 48 47 46 46 45 44
57 55 55 53 50 48 50 51 49 48 50 51 50 50 50 52 52 53 53 53 53 54 54 54 55 54 55 55 55 53 53 53 53 52 52 52 51 50 49 48 48 47 46
57 54 55 52 50 47 51 51 48 48 49 50 49 47 47 49 51 52 52 53 53 53 53 54 54 54 54 54 55 55 54 54 53 53 52 53 53 52 51 51 50 49 48
59 56 56 53 53 47 51 51 49 48 47 48 49 47 44 45 47 49 51 52 52 52 53 53 53 53 54 53 54 55 55 55 56 56 55 54 53 53 54 53 52 51 50
59 58 56 57 54 53 51 51 50 48 48 48 48 49 47 46 45 44 48 50 52 51 52 52 53 53 53 54 54 53 54 54 54 56 57 57 56 54 54 54 54 53 52
57 58 57 56 56 55 53 51 50 49 49 49 47 49 50 50 49 45 43 47 49 51 52 52 52 52 53 53 54 54 53 53 53 54 55 56 57 57 56 55 55 55 54
56 56 56 56 55 55 53 52 51 50 49 49 48 48 48 48 48 48 46 47 46 48 49 50 52 52 53 52 53 53 53 52 52 53 54 55 55 56 57 58 57 56 55
55 54 55 55 54 56 55 54 53 51 51 49 49 48 50 51 50 50 48 47 47 48 49 50 49 49 51 53 53 52 52 51 51 52 53 54 55 55 55 56 57 57 57
54 55 54 54 54 54 56 55 54 54 54 52 50 49 49 51 52 51 49 48 46 47 49 48 52 51 50 50 50 51 52 52 51 51 51 51 52 53 54 55 55 56 57
53 54 54 54 54 54 54 55 54 53 53 53 52 51 49 50 52 52 51 50 48 45 45 47 48 51 52 52 52 51 50 49 49 50 50 50 51 52 52 53 54 54 55
52 53 53 54 55 55 54 54 54 54 54 54 53 52 52 51 52 52 52 52 51 48 47 47 47 49 51 51 52 51 51 50 49 48 47 48 49 50 51 51 52 53 53
54 52 53 53 54 54 55 54 54 54 54 53 53 53 53 53 53 53 53 53 52 52 49 50 50 50 50 51 52 52 51 51 51 49 48 47 46 46 47 48 49 50 50
55 54 52 52 52 53 54 54 54 54 54 54 54 53 53 53 53 52 52 52 51 50 49 49 50 50 51 51 52 52 52 52 52 52 50 49 48 47 47 47 47 49 50
55 55 54 53 52 52 53 53 53 53 53 53 53 53 53 53 52 52 52 51 51 51 51 51 49 50 51 51 51 51 52 52 53 52 51 49 48 48 48 47 47 47 47
55 55 55 54 53 53 51 51 52 52 52 52 52 52 52 52 52 51 51 51 51 51 51 51 50 50 50 51 51 50 49 49 50 51 49 48 46 46 46 45 45 45 43
56 55 55 55 54 53 53 52 51 51 51 51 51 51 51 51 51 51 50 50 51 50 50 49 49 50 50 49 50 50 50 50 50 49 48 46 45 44 43 43 43 42 41
56 55 55 55 55 53 52 51 52 52 52 51 51 50 50 49 49 47 48 48 48 49 49 49 48 48 48 49 50 50 50 49 46 44 45 42 42 41 42 42 41 38 35
55 55 55 55 55 55 53 51 49 51 52 52 52 52 51 51 49 49 47 46 47 47 48 49 48 48 48 49 50 50 50 49 48 40 38 35 35 35 37 37 37 37 37
55 55 55 55 55 55 54 52 50 50 51 52 52 51 51 51 50 49 49 48 47 48 47 46 48 49 50 48 49 50 50 42 33 32 35 33 32 31 34 36 36 36 36
46 48 55 55 55 55 54 53 51 52 52 52 52 53 52 52 51 50 49 49 48 41 35 36 34 34 34 36 40 41 38 37 31 29 28 30 30 30 31 31 32 33 32
41 44 46 44 40 39 36 37 45 53 52 52 53 53 52 52 52 50 49 49 47 38 32 29 28 27 28 28 29 31 36 36 28 25 25 26 25 27 24 27 27 24 21

GFSMA_sfc_30mbdewp_090.txt.gz
Dewpoint
61 62 62 63 62 61 57 53 54 55 54 54 54 54 54 55 55 56 56 56 55 56 56 55 55 56 55 54 53 52 53 52 52 52 52 51 51 50 51 50 50 49 48
61 62 62 62 60 59 56 52 53 54 53 54 53 54 54 55 55 56 56 57 56 56 55 55 55 55 54 53 53 52 53 52 52 51 51 51 50 50 50 50 49 48 47
61 61 61 60 59 57 54 50 51 52 53 53 53 53 54 54 54 55 56 56 56 56 56 56 55 54 53 54 53 53 52 52 51 51 51 50 49 49 49 49 48 46 45
61 61 60 59 58 56 53 50 50 52 52 53 53 53 54 54 54 55 55 55 56 55 55 55 55 54 54 54 53 53 52 52 51 50 50 49 49 48 47 47 47 45 44
61 60 59 57 56 55 53 50 50 52 52 52 53 53 53 54 54 54 54 55 55 55 55 55 55 55 55 54 53 53 53 52 51 50 50 49 48 47 46 46 45 45 44
59 58 57 54 54 53 52 50 49 52 52 52 52 52 53 53 54 54 54 54 54 54 55 55 55 55 54 55 54 53 53 53 52 52 51 50 49 48 47 47 46 45 45
58 56 55 54 52 52 51 49 49 50 51 52 51 50 51 52 53 53 54 54 54 54 54 54 55 55 55 55 55 54 54 54 54 53 52 52 51 50 49 48 48 47 47
58 56 54 53 50 50 51 49 49 50 50 51 50 49 48 50 51 52 53 53 53 54 54 54 54 54 54 55 56 56 55 54 54 54 54 54 54 53 52 51 50 49 49
58 57 56 54 49 50 51 50 49 49 49 50 50 48 46 47 49 50 52 52 53 53 53 53 54 54 54 54 54 55 55 55 56 56 55 55 55 55 55 54 53 52 51
57 57 55 54 52 49 51 51 50 49 50 49 49 49 48 47 47 47 49 51 52 52 52 53 53 53 54 54 54 54 54 54 54 55 57 57 57 56 55 55 55 55 54
57 57 56 54 52 51 52 52 50 49 50 49 49 49 49 48 47 45 45 48 51 52 52 52 52 53 53 53 54 54 53 53 53 54 55 56 58 58 57 56 56 56 55
58 57 57 55 52 52 52 52 51 50 49 50 49 49 48 47 46 47 45 46 47 49 51 52 52 52 52 53 53 53 53 52 52 53 54 55 55 56 57 58 58 56 56
56 57 57 56 54 49 47 52 52 51 50 49 49 48 49 48 49 48 46 46 45 48 48 50 52 52 52 53 53 52 52 52 52 52 53 53 54 55 56 56 57 58 58
56 56 57 56 54 54 52 54 52 52 51 50 49 49 49 50 51 50 47 46 46 46 48 48 50 50 50 51 53 52 52 51 51 51 52 52 53 53 54 55 56 56 56
55 55 54 55 55 55 55 54 52 53 54 52 51 50 49 50 52 52 50 48 46 44 45 47 49 51 51 50 50 50 50 51 51 50 50 50 51 52 52 53 54 55 55
54 54 54 54 54 54 54 55 54 54 54 54 54 52 52 51 51 52 52 51 50 46 44 47 48 50 52 52 52 51 51 50 49 49 49 49 49 50 50 51 52 52 53
53 53 54 54 54 54 54 54 54 54 54 53 53 53 52 52 51 51 52 51 52 51 47 48 50 50 50 50 51 52 52 51 51 49 48 48 47 47 48 49 49 50 51
53 52 53 53 53 54 54 54 53 53 53 53 53 53 52 52 52 51 51 51 50 51 50 48 50 50 50 51 51 51 51 51 51 51 50 48 48 46 46 46 46 47 48
55 54 53 52 52 53 53 54 54 54 53 53 53 53 52 53 52 52 52 52 52 52 51 50 49 50 50 51 51 51 51 52 52 52 51 50 49 48 47 46 46 46 46
55 55 55 54 53 53 52 52 53 53 53 53 54 53 53 53 53 52 52 52 52 51 51 51 50 50 50 51 51 50 50 51 51 52 52 52 51 50 48 47 47 46 46
55 55 55 55 54 53 53 52 52 52 52 52 52 53 53 53 53 53 52 51 51 51 50 49 49 49 49 50 49 50 50 50 50 50 50 50 49 48 47 45 46 46 45
55 55 55 55 54 54 53 52 52 51 51 51 51 51 52 51 50 49 50 50 49 50 50 49 49 48 48 48 49 49 49 49 48 51 50 50 46 46 46 45 44 44 42
55 56 56 55 55 55 54 52 50 52 52 51 51 51 51 51 50 50 49 47 47 47 48 50 49 48 48 48 48 49 49 49 48 49 47 44 38 38 38 40 41 39 37
45 47 49 53 55 55 47 50 51 51 52 52 52 52 52 52 52 51 50 49 47 47 47 46 48 48 49 50 50 49 49 49 40 35 36 40 33 32 35 37 38 38 37
41 43 42 38 37 38 34 35 40 49 52 52 53 52 52 52 52 50 50 50 49 49 39 42 39 34 33 33 36 44 43 42 38 30 28 31 30 29 29 29 31 31 31
38 38 34 32 31 32 32 34 35 41 47 51 52 52 48 39 37 44 49 50 49 48 35 29 28 28 28 28 28 28 34 41 36 27 25 27 26 27 23 26 25 26 26

GFSMA_sfc_30mbdewp_093.txt.gz
Dewpoint
62 62 62 63 63 61 60 60 59 59 58 56 56 56 56 55 55 54 53 56 58 56 55 56 57 56 56 56 55 54 53 52 52 52 52 52 52 52 52 51 50 50 49
62 62 62 62 62 60 59 59 58 57 56 56 56 55 55 55 54 54 53 54 57 58 58 57 57 56 56 55 54 53 53 52 52 53 52 52 52 52 51 51 50 49 49
62 62 61 61 61 61 58 57 57 56 56 55 55 55 55 54 54 54 55 54 55 56 57 58 58 57 56 55 53 53 53 53 53 52 52 52 51 51 51 51 49 48 47
62 61 62 61 60 57 55 55 55 55 55 54 54 54 53 53 54 55 55 55 54 54 55 56 56 56 55 54 53 53 53 53 52 52 52 51 50 50 50 50 49 47 46
61 61 61 60 59 57 55 54 54 54 54 53 53 53 53 53 54 55 55 55 55 53 55 56 55 55 55 54 53 53 53 53 52 52 52 51 50 49 49 49 48 47 46
61 61 60 59 59 57 54 53 53 54 53 53 52 52 53 53 54 54 55 54 55 55 54 54 54 53 55 55 54 53 53 53 53 52 51 50 50 49 48 48 47 46 46
59 58 58 58 58 57 54 53 54 53 53 53 52 52 53 54 54 54 54 54 54 55 55 55 54 53 54 55 55 54 54 54 54 53 52 51 51 50 49 48 48 47 47
58 57 56 56 56 54 53 52 53 52 53 53 50 50 50 51 53 54 54 54 54 54 54 55 54 54 54 53 53 55 55 55 55 55 53 54 54 52 51 51 50 49 49
58 57 56 55 55 54 52 52 52 52 51 53 52 50 49 47 50 52 53 53 53 54 53 54 54 54 54 53 54 55 56 56 56 56 56 56 56 55 55 54 53 52 51
58 57 55 53 52 53 52 52 52 52 52 51 52 50 52 51 48 48 51 52 53 53 53 54 53 54 54 54 54 53 54 54 54 56 57 58 57 57 56 56 56 55 55
58 57 56 53 52 52 52 51 51 52 52 52 51 51 50 51 51 49 48 50 52 52 53 53 53 53 53 54 54 54 54 53 53 54 55 56 58 58 58 57 57 57 56
57 57 56 55 53 52 53 52 52 51 52 52 51 51 49 48 48 47 46 49 49 50 52 52 53 54 53 53 54 53 54 53 52 53 54 55 55 56 57 58 59 58 57
56 56 56 55 53 52 52 51 52 51 52 52 52 51 50 49 49 49 47 47 47 50 50 53 53 53 53 54 54 53 53 52 52 52 52 53 54 55 56 56 57 58 58
56 57 56 55 53 51 50 51 52 51 51 52 52 51 51 51 50 49 46 46 46 48 49 48 51 53 53 53 54 53 53 52 51 51 51 52 53 53 54 55 56 56 57
57 57 57 55 53 51 50 49 51 52 52 53 52 52 51 51 52 51 52 49 46 44 44 48 49 52 52 52 53 53 53 52 51 50 50 50 51 52 52 53 53 54 55
56 56 56 56 56 53 49 48 50 48 50 52 52 51 50 50 52 53 52 52 51 48 46 45 46 50 52 51 51 51 51 51 50 49 49 49 49 50 51 51 51 52 53
55 56 56 56 55 55 54 54 53 50 53 52 53 52 51 51 51 51 53 52 51 51 49 49 49 50 52 53 52 53 52 52 51 50 48 48 48 48 48 49 49 50 51
55 55 56 55 55 55 55 55 55 54 53 51 51 54 53 53 53 52 52 52 52 51 50 48 49 50 52 52 51 51 51 51 51 51 50 49 48 47 47 47 47 47 48
55 54 54 54 54 54 54 55 54 54 54 54 54 53 53 53 53 53 52 51 52 51 51 51 50 50 50 51 52 52 51 52 52 51 50 49 48 48 47 46 46 46 46
56 55 54 54 54 54 54 54 54 54 54 54 54 54 54 54 54 54 54 53 53 53 53 52 51 51 51 51 52 51 51 52 52 52 52 51 51 50 48 47 47 46 46
55 55 55 55 54 54 53 53 53 53 53 54 54 54 54 54 53 53 53 53 53 53 52 52 51 51 51 51 51 51 51 51 51 53 52 53 53 53 53 50 49 47 46
55 55 55 55 55 55 53 52 53 53 53 53 53 54 54 53 53 51 51 52 52 53 52 51 50 49 49 49 49 50 50 49 49 52 52 52 53 52 52 52 50 47 46
48 50 51 53 55 48 36 41 48 52 53 52 52 52 52 53 52 53 51 49 49 49 49 51 50 50 49 50 50 49 49 49 49 50 51 50 44 42 38 39 40 42 42
44 44 40 38 41 34 34 34 36 45 51 53 53 52 52 52 52 52 51 51 50 50 49 48 49 51 50 44 46 50 50 50 50 41 39 46 34 30 31 32 35 36 35
39 36 34 33 34 32 32 33 34 41 47 50 52 45 37 40 37 41 49 51 50 50 36 41 35 31 31 31 32 38 42 42 45 34 28 32 31 26 25 26 30 30 30
34 32 30 30 30 30 31 32 34 39 41 37 33 31 31 33 33 36 41 43 46 45 33 29 28 27 27 27 27 27 30 36 36 32 26 28 27 28 22 25 26 27 27

GFSMA_sfc_30mbdewp_096.txt.gz
Dewpoint
63 62 61 61 62 62 63 63 62 61 60 59 57 56 56 53 52 50 53 57 57 57 56 56 56 57 57 56 55 54 53 53 52 53 53 53 53 53 52 52 52 51 51
63 62 61 61 63 62 63 63 62 60 60 57 57 56 55 54 52 50 51 56 57 56 57 57 57 57 56 56 55 54 54 53 53 53 53 53 53 53 52 52 51 51 50
62 62 62 62 62 62 62 62 61 60 57 56 55 55 54 51 50 50 50 53 56 57 58 58 57 57 56 56 55 53 53 53 53 53 53 53 52 52 52 52 51 50 50
61 62 62 62 62 61 61 60 60 58 56 55 54 54 51 50 51 50 50 51 52 54 58 58 58 57 57 56 54 53 53 53 53 53 53 53 52 52 52 52 51 49 49
62 62 62 62 61 60 59 60 59 57 55 54 53 53 51 51 52 52 51 51 52 53 54 57 57 57 57 56 53 54 54 53 53 53 53 52 51 51 51 51 51 49 48
61 62 62 61 59 58 58 59 58 58 56 53 51 52 51 52 52 52 53 52 51 52 53 54 54 54 55 56 55 53 53 54 53 53 53 52 52 51 50 50 50 50 48
61 61 61 60 59 57 57 57 57 56 55 54 51 53 53 53 53 53 53 51 50 51 51 52 51 50 52 55 55 54 55 54 54 53 53 53 52 51 50 50 49 49 48
59 60 60 59 58 57 57 57 56 55 54 54 52 51 51 53 53 53 53 51 49 49 50 51 51 50 50 52 53 56 55 56 56 54 53 54 54 53 51 51 50 50 49
59 58 59 59 58 57 56 57 56 55 53 54 53 50 48 47 50 52 53 52 50 50 49 50 51 52 52 51 52 54 55 56 57 57 57 56 55 55 54 54 53 52 51
58 58 58 58 58 58 56 55 56 55 54 53 53 51 49 46 47 49 51 52 53 52 52 50 51 52 53 53 53 53 54 54 55 56 58 58 57 57 56 56 56 55 55
59 58 57 58 57 57 56 56 56 55 54 53 53 52 52 52 49 46 47 50 52 52 51 52 51 52 53 53 53 53 53 53 53 54 55 57 58 59 58 58 58 57 57
58 57 56 55 56 56 55 55 54 54 54 54 52 52 50 50 50 47 40 46 48 50 52 52 54 54 53 53 54 53 53 52 53 53 54 55 55 56 57 58 59 59 58
57 56 56 55 55 55 54 53 54 53 54 54 54 52 51 50 48 46 43 40 46 46 51 52 53 54 53 53 53 53 53 53 52 52 53 53 54 55 55 56 56 57 58
57 57 56 56 55 55 55 55 54 54 54 55 52 53 52 51 49 48 46 41 40 41 44 46 51 53 53 53 54 54 54 52 51 51 52 52 53 53 54 55 55 56 56
58 57 56 56 55 54 53 52 51 53 52 52 53 53 52 52 53 51 49 46 42 43 41 45 47 51 52 52 53 54 54 53 52 51 50 51 51 52 52 53 53 54 55
58 57 57 55 54 54 54 53 50 50 50 52 51 51 52 51 52 52 50 50 51 48 47 45 47 48 51 50 51 53 53 53 52 51 50 50 50 50 51 51 51 52 53
57 57 57 56 54 53 52 51 50 50 51 50 50 52 52 51 51 52 54 54 53 52 49 50 49 49 49 49 50 51 52 52 50 49 49 48 48 48 48 48 49 50 50
55 57 57 56 55 54 52 50 49 49 49 46 48 51 51 52 51 51 51 51 51 52 51 50 50 49 50 50 51 50 50 50 51 50 50 49 48 47 47 47 47 47 48
56 56 56 56 56 55 54 53 52 51 50 50 51 49 49 51 51 52 52 51 52 51 52 52 51 51 51 50 50 52 53 53 52 50 50 49 49 48 48 47 46 46 46
55 55 56 56 56 56 56 56 55 55 55 54 54 53 52 51 52 53 53 53 53 53 53 53 52 51 51 51 52 51 51 53 53 51 50 49 50 49 48 48 47 46 46
56 55 55 55 55 55 55 55 55 55 55 54 55 55 55 55 54 54 53 53 53 53 53 53 52 52 52 51 50 51 52 52 52 53 52 53 53 53 53 50 50 48 47
55 56 55 55 55 44 36 42 49 55 54 54 54 54 54 53 53 52 51 51 52 53 53 53 52 51 51 51 52 52 51 50 49 52 52 52 53 52 47 40 39 41 44
47 44 44 41 37 35 34 35 38 48 53 54 54 54 54 54 53 54 53 51 50 49 48 51 52 52 52 52 52 51 51 51 51 51 51 51 42 34 33 33 36 38 39
39 37 37 38 35 32 33 33 35 43 47 50 48 41 43 45 41 40 49 53 52 51 50 50 50 46 36 34 37 41 43 43 45 36 37 41 32 26 28 31 32 33 33
34 33 32 33 32 31 31 32 38 42 40 35 33 31 33 33 33 34 40 45 49 45 33 32 31 30 29 28 29 37 39 39 41 38 32 34 31 26 26 26 29 31 31
32 30 30 30 30 30 29 30 37 39 34 32 29 28 29 30 30 31 36 38 41 33 31 29 26 25 25 24 24 25 27 32 35 33 26 29 29 27 23 26 27 29 29

GFSMA_sfc_30mbdewp_099.txt.gz
Dewpoint
62 62 62 62 63 62 62 63 62 62 62 61 60 58 55 52 50 55 56 59 59 59 56 57 57 58 57 57 55 54 53 54 54 54 54 54 54 54 53 53 52 52 52
64 62 62 62 63 61 63 63 61 61 62 61 59 56 53 51 50 50 55 56 58 58 57 57 57 58 57 56 55 55 54 54 54 53 54 54 54 53 53 53 52 52 51
64 62 63 63 62 62 62 62 61 61 61 60 57 54 53 52 50 49 52 53 56 58 58 58 58 57 57 56 56 54 53 54 54 53 53 54 54 54 53 52 52 51 51
63 62 62 62 63 62 63 61 60 60 60 58 55 52 51 49 48 49 50 53 54 54 57 58 58 58 57 57 54 53 54 54 53 54 53 53 53 53 53 53 52 51 51
63 62 62 63 63 62 61 61 60 60 60 56 53 52 49 47 48 47 49 49 53 54 55 58 58 58 57 57 54 54 55 54 53 54 53 53 53 53 53 53 52 51 50
62 61 62 62 62 61 60 60 60 59 59 55 51 52 51 52 50 50 50 48 50 53 53 55 56 56 57 56 56 54 54 54 53 53 53 53 53 52 52 52 52 52 51
61 61 62 61 60 59 59 59 58 58 57 56 52 52 52 53 54 53 54 52 50 50 51 54 53 52 54 55 55 54 54 54 54 53 53 53 53 53 53 52 52 52 51
61 62 61 60 59 59 58 59 58 57 57 56 52 52 52 53 53 54 54 51 50 48 49 50 50 50 50 52 53 55 55 54 55 55 54 54 55 54 53 52 52 51 51
62 61 61 60 59 59 57 58 58 57 56 55 54 51 49 47 51 53 54 52 49 48 47 48 50 49 50 52 53 54 55 56 57 57 56 56 55 55 55 54 53 53 52
59 59 59 60 59 58 58 58 59 57 56 54 54 52 50 46 48 50 53 53 54 48 49 48 49 50 51 52 52 53 54 54 55 57 58 58 57 57 56 56 55 55 55
59 58 59 59 58 58 58 58 58 57 56 55 54 53 52 49 49 47 47 51 52 51 49 51 49 51 52 53 53 54 53 53 53 54 56 58 59 59 58 58 57 57 57
59 58 58 58 59 58 58 59 58 57 56 55 54 53 51 50 49 49 46 47 48 49 50 51 52 52 53 53 54 53 52 52 52 53 53 55 57 58 59 59 59 59 58
57 57 57 58 59 59 58 58 58 57 56 55 54 54 53 52 51 49 44 42 46 46 50 52 53 54 54 54 54 53 53 52 51 52 53 54 54 55 55 56 57 58 59
58 57 57 56 57 57 58 57 56 56 56 56 55 56 55 54 53 50 48 45 43 43 47 50 53 54 55 55 55 53 54 52 52 51 52 52 53 54 54 55 55 55 56
58 58 57 56 56 56 56 56 55 55 56 56 57 56 54 53 53 52 51 48 45 43 40 47 48 54 54 54 54 55 55 55 52 51 51 51 52 52 52 53 53 53 54
58 57 57 56 55 56 56 56 55 55 55 55 55 54 53 53 53 53 52 52 51 48 45 43 47 48 52 50 52 54 55 55 53 52 51 50 50 51 51 51 52 52 52
57 57 57 56 55 54 54 53 54 52 53 52 52 52 51 52 52 53 53 52 51 50 49 47 47 50 51 52 52 52 53 53 54 52 51 50 49 49 49 50 49 50 50
57 58 57 56 55 54 54 53 53 51 50 50 50 51 49 49 51 52 52 53 54 53 50 50 49 49 50 49 50 50 49 49 51 51 50 49 49 48 48 48 48 48 48
56 57 57 56 55 54 54 53 53 52 51 51 51 51 50 51 50 51 50 49 50 50 50 51 49 48 49 51 52 53 53 53 53 51 49 48 48 47 46 46 46 46 46
56 55 57 56 56 56 54 53 52 52 52 52 53 52 50 51 49 49 49 49 51 52 51 51 50 50 51 53 53 52 52 53 53 53 52 51 50 49 48 47 47 46 46
56 56 56 57 56 56 48 50 54 54 54 53 54 54 53 53 50 51 50 50 51 52 53 52 53 53 53 53 52 53 53 53 53 54 54 55 55 54 44 40 39 40 42
54 53 50 53 43 37 35 37 44 56 56 55 55 55 55 54 54 53 52 51 53 54 53 52 52 52 53 53 54 53 53 52 51 54 53 52 51 36 35 35 37 38 40
42 42 39 37 35 34 33 35 37 48 54 54 49 50 52 45 43 44 49 50 49 49 46 50 51 51 52 44 43 49 52 52 52 44 45 48 36 32 32 33 34 34 35
36 36 36 34 33 31 33 35 39 45 41 36 35 36 37 36 34 36 41 46 45 34 35 36 34 31 30 30 32 38 39 40 43 37 36 41 33 29 30 31 32 32 32
33 32 33 33 31 30 32 34 43 38 34 32 31 31 31 31 31 34 40 43 36 30 31 29 28 28 28 27 28 35 33 34 38 34 28 32 31 28 27 27 29 30 30
32 32 31 31 31 29 30 31 38 35 32 29 28 28 28 28 29 31 34 37 30 28 27 26 25 25 25 26 27 26 27 30 31 32 26 28 29 28 24 27 28 30 30

GFSMA_sfc_30mbdewp_102.txt.gz
Dewpoint
64 64 64 63 63 63 62 62 63 63 62 61 63 61 60 59 58 58 61 61 60 59 56 56 56 58 58 58 57 56 55 54 53 55 56 55 55 55 54 54 54 53 52
64 63 63 62 63 63 63 63 63 62 61 62 62 61 58 58 58 58 59 60 60 59 57 56 58 57 57 57 56 54 53 54 54 55 55 55 55 55 55 54 53 53 52
65 63 63 63 64 63 64 63 62 62 61 62 61 60 57 53 55 57 57 58 59 57 57 58 58 58 57 56 55 54 54 55 54 53 54 55 55 54 54 53 53 52 52
65 64 63 63 64 63 63 62 61 61 60 61 61 60 54 53 51 55 56 56 57 57 58 58 59 59 58 57 56 53 53 54 53 53 53 54 55 55 54 53 53 52 52
64 64 63 63 62 62 63 62 61 59 59 60 60 60 54 51 51 52 54 55 56 56 57 58 58 58 58 58 55 53 54 54 53 53 53 54 54 54 54 54 53 52 52
64 64 63 63 62 62 62 62 60 60 59 59 60 58 50 51 50 52 54 55 55 55 55 57 58 58 57 57 54 53 53 53 53 54 53 54 54 54 54 54 53 53 52
62 62 62 62 62 62 61 61 60 60 59 59 58 54 54 55 53 53 53 54 55 56 56 57 57 56 57 57 56 54 54 55 54 54 54 54 54 55 54 53 53 53 53
62 62 62 62 62 61 60 60 59 58 58 59 55 51 50 53 54 54 53 53 54 52 55 56 55 55 55 56 55 56 53 55 54 54 55 55 55 55 55 53 53 53 53
61 62 62 61 61 60 59 60 59 57 56 58 57 51 50 49 52 54 53 53 52 53 51 53 53 54 53 54 54 55 55 55 56 57 57 56 56 56 56 55 54 53 53
62 62 62 61 60 60 59 59 60 58 56 56 57 53 51 52 49 50 53 53 54 54 52 52 52 52 52 54 54 53 54 53 54 56 58 58 57 57 57 56 56 56 55
60 59 59 60 59 59 59 59 59 59 58 56 54 53 51 52 50 50 50 52 53 53 52 51 52 51 52 53 54 54 53 53 53 54 56 58 59 58 58 57 57 57 57
59 58 58 59 60 59 59 58 58 58 58 57 55 55 52 50 50 50 50 51 50 51 52 51 51 53 52 52 53 53 53 52 52 53 54 55 57 59 60 59 59 58 58
58 57 58 58 58 59 59 59 59 58 58 58 57 55 54 52 52 51 49 51 50 51 52 53 53 53 53 54 54 53 53 52 52 52 53 53 54 56 57 58 59 60 60
57 58 58 58 58 59 59 59 60 59 59 58 57 55 54 54 53 51 51 47 46 48 50 51 54 54 54 54 54 54 54 52 51 51 52 52 53 53 54 54 55 56 57
58 58 58 57 58 58 58 58 57 57 57 57 56 56 55 54 53 52 51 53 48 45 46 50 52 54 55 55 55 55 54 54 52 51 51 51 52 52 53 53 54 54 54
57 57 57 57 57 57 57 57 57 57 57 57 57 56 56 54 53 53 53 53 54 51 47 47 50 53 55 55 56 55 55 55 54 52 51 50 51 51 51 52 52 53 53
58 58 56 56 56 56 56 56 56 56 56 56 56 56 55 54 51 53 53 53 53 52 50 50 50 51 52 53 53 53 55 55 55 53 52 51 51 50 50 50 50 51 51
58 57 57 56 55 55 56 55 55 55 55 55 55 54 54 54 53 53 53 53 53 52 51 49 50 51 50 50 51 51 51 51 52 53 52 51 51 50 49 49 49 49 49
57 57 56 56 55 54 54 54 54 53 53 53 53 53 52 51 50 50 51 52 53 53 53 52 50 50 50 50 49 50 51 51 51 50 49 48 49 49 49 48 47 47 46
57 57 57 56 55 55 54 54 54 54 52 52 52 52 52 52 51 50 50 50 50 51 51 51 51 51 50 50 50 49 50 52 53 53 52 51 51 47 44 43 42 41 42
56 57 57 56 55 52 44 51 53 53 53 53 53 53 53 52 52 52 51 51 50 48 49 50 49 50 51 52 52 53 54 54 54 55 56 56 50 42 38 37 38 39 40
49 47 46 43 39 36 35 38 46 53 53 53 54 54 54 52 51 50 48 48 50 50 50 50 51 53 53 53 51 52 52 52 51 44 48 49 40 34 34 35 35 35 36
41 39 37 36 34 34 35 37 41 48 46 44 43 45 45 39 39 42 45 44 41 39 41 47 49 48 44 36 37 43 47 47 46 39 42 44 35 31 32 33 33 33 34
36 34 33 33 32 33 35 40 42 39 35 34 34 35 35 34 33 35 40 38 32 31 32 32 31 30 30 30 32 36 38 39 40 31 31 38 33 28 29 31 32 32 32
32 32 32 31 31 31 34 38 35 33 31 30 31 31 31 31 32 36 42 34 30 28 30 30 29 29 29 28 29 35 31 34 36 29 28 30 30 27 27 28 30 30 30
32 31 30 30 30 30 32 36 34 32 30 29 29 29 30 30 31 33 34 32 28 27 27 26 26 27 27 27 27 28 28 30 29 28 27 28 29 29 25 28 29 30 31

GFSMA_sfc_30mbdewp_105.txt.gz
Dewpoint
64 63 63 64 63 63 63 63 62 62 61 61 61 61 61 61 60 60 61 61 61 60 57 56 55 57 57 57 56 56 55 55 53 54 54 55 55 55 55 55 54 54 54
64 64 63 63 64 63 63 62 62 62 61 61 61 61 61 60 60 60 60 61 60 60 57 55 55 58 56 57 57 56 55 54 54 56 56 55 56 56 55 54 54 53 53
64 63 63 62 62 63 62 62 62 62 61 61 61 61 60 60 59 59 60 60 59 58 57 57 58 58 56 58 57 55 54 54 53 55 56 55 55 55 55 54 54 53 53
64 63 62 62 62 62 63 62 62 61 60 61 61 60 61 60 58 59 59 59 59 57 57 58 59 58 58 57 56 54 53 55 54 53 53 56 55 55 55 54 53 53 52
64 63 63 63 63 62 63 62 61 61 59 60 60 60 60 58 57 57 57 57 57 57 57 58 59 59 58 58 56 55 55 55 54 52 53 55 55 55 55 54 54 53 53
64 63 63 63 62 62 62 62 60 60 59 59 60 60 60 58 55 55 55 56 56 57 57 57 59 58 58 58 56 54 53 53 54 53 53 53 55 55 55 55 54 53 53
64 64 63 62 62 61 61 61 60 59 59 60 59 58 58 56 53 54 54 55 55 55 56 57 58 57 57 58 56 53 54 54 54 53 54 54 55 55 55 55 55 54 54
63 63 62 62 62 61 61 61 60 59 58 59 56 55 52 53 54 53 55 55 54 55 56 57 57 57 57 57 56 55 54 54 54 54 55 56 56 56 56 55 54 54 54
62 62 61 62 62 62 61 61 60 59 56 59 57 52 50 48 51 54 53 54 55 55 56 56 56 56 56 56 56 56 55 54 56 57 56 56 56 57 57 56 55 55 54
61 62 61 61 61 61 60 60 60 59 58 57 58 57 52 53 48 49 53 53 53 54 55 55 55 55 55 55 55 54 55 53 54 57 58 57 57 57 57 57 57 56 56
61 61 62 61 60 60 60 60 60 59 59 57 56 56 53 52 52 50 48 50 53 53 54 53 53 53 53 54 54 54 53 53 53 54 56 58 59 58 58 58 58 57 57
60 60 59 60 60 60 60 60 60 59 58 58 57 55 53 51 50 49 50 50 49 51 53 53 52 52 53 54 54 54 53 52 52 52 54 55 57 59 60 59 59 58 58
58 58 58 58 58 59 59 59 59 59 59 58 57 56 55 54 52 51 50 51 50 51 51 53 52 52 52 52 53 54 53 52 52 52 53 53 54 55 57 59 60 60 60
57 57 57 57 58 59 59 59 59 59 59 58 57 57 56 55 54 52 51 50 49 50 51 50 53 52 52 53 53 52 53 51 51 51 52 52 53 53 54 55 56 57 58
57 57 57 57 58 58 59 59 59 58 58 58 58 57 57 56 54 51 50 52 48 46 49 51 51 54 53 53 53 54 53 53 51 51 51 51 52 52 53 53 54 54 55
57 57 57 57 58 58 58 58 58 58 58 58 58 57 57 55 53 52 51 53 53 51 48 48 51 53 54 54 55 54 54 54 53 52 51 50 50 51 51 52 52 53 53
57 57 57 56 57 57 57 57 57 57 57 57 57 57 56 56 55 54 52 52 52 53 51 51 51 52 53 54 55 55 55 55 55 53 52 51 50 50 50 50 50 51 51
57 57 56 56 56 56 56 56 56 56 56 56 56 56 56 56 54 53 52 52 53 53 51 50 51 50 50 53 54 53 53 54 55 55 53 52 51 50 50 49 48 48 48
57 57 56 56 56 56 56 56 56 56 56 56 56 55 55 55 54 53 53 53 53 53 53 51 50 51 51 51 50 50 50 51 51 50 50 51 50 47 46 44 43 44 44
57 57 56 56 55 55 55 55 55 55 55 55 55 55 55 54 54 53 53 51 51 52 52 51 51 50 50 50 50 49 49 51 50 52 51 44 41 40 39 39 39 40 41
57 57 56 56 55 54 51 54 54 54 53 53 54 53 54 54 53 52 52 52 50 50 49 50 50 51 51 50 50 51 52 54 53 49 54 47 41 38 37 36 37 37 38
46 45 43 43 41 38 37 41 52 54 54 53 53 53 53 51 50 47 47 46 48 51 49 48 48 48 48 52 49 51 51 50 50 40 45 41 37 33 34 34 35 35 35
37 36 36 35 35 36 37 39 44 48 47 44 44 46 43 39 40 43 38 36 35 35 36 45 49 48 42 35 36 42 45 46 45 35 39 40 33 30 32 34 34 34 33
33 33 32 33 35 36 37 38 37 35 34 33 33 34 35 35 35 40 37 33 31 31 32 32 32 30 30 31 32 36 38 39 34 30 31 36 31 28 30 31 32 31 31
30 30 31 31 31 33 35 35 34 32 30 30 31 32 32 32 35 39 35 31 29 29 31 31 31 31 30 30 31 35 32 35 34 27 28 31 30 27 27 28 31 30 30
30 29 29 29 30 31 33 34 33 31 30 29 30 30 31 31 33 35 33 31 28 27 28 28 28 29 28 27 27 27 28 29 30 27 27 28 29 29 25 28 28 27 26

GFSMA_sfc_30mbdewp_108.txt.gz
Dewpoint
64 64 64 64 64 63 62 62 61 61 61 61 60 60 61 62 62 62 63 63 63 62 60 58 57 56 56 57 57 55 55 55 55 53 53 53 53 53 54 55 55 54 54
63 63 64 63 63 63 62 62 61 61 61 61 60 61 61 62 61 62 62 61 61 61 60 57 56 56 56 56 57 56 55 55 54 54 54 55 54 53 56 55 54 54 54
63 63 63 63 63 63 62 62 62 62 61 61 60 61 61 61 61 61 61 61 60 59 59 58 57 58 56 57 56 57 56 54 55 55 55 55 55 56 55 55 54 54 54
64 63 62 62 63 62 62 62 61 61 60 60 60 60 61 60 60 61 61 60 60 59 57 56 58 59 57 57 55 57 56 53 54 56 55 55 56 56 55 55 54 54 53
63 63 63 62 62 62 62 62 62 61 60 60 60 60 60 60 60 61 60 59 58 57 57 57 58 58 58 58 56 56 54 55 54 55 56 56 56 56 55 55 54 54 53
63 63 62 62 62 61 62 61 61 61 59 59 59 60 60 59 59 60 59 58 58 57 57 57 59 58 58 58 57 55 53 56 54 54 53 55 56 56 56 55 55 54 54
64 63 62 62 62 61 61 61 60 59 58 59 59 58 58 58 58 58 58 57 57 56 57 57 58 58 58 57 57 55 54 54 55 52 53 54 55 56 56 56 55 55 54
64 63 63 62 61 61 61 60 59 59 58 59 56 57 54 54 56 57 56 56 56 56 56 56 57 57 57 57 57 55 55 53 53 56 55 54 55 56 56 55 55 55 55
63 63 63 62 61 61 60 61 60 58 57 58 57 55 52 50 53 54 55 55 54 55 55 56 57 57 57 57 57 56 54 55 56 56 55 56 57 57 57 56 56 55 55
63 62 62 62 61 61 61 61 61 59 58 56 58 56 53 52 50 50 54 55 54 54 55 56 56 56 56 56 56 56 55 54 55 56 57 57 57 57 57 58 57 57 56
61 62 61 61 61 61 61 60 60 60 59 57 57 56 54 52 51 51 50 52 54 54 55 55 56 55 55 55 55 55 54 54 53 54 56 58 59 58 58 58 58 58 58
60 61 61 61 61 60 60 59 60 59 59 58 58 57 54 51 50 50 49 50 51 52 53 55 55 55 55 55 55 54 54 53 53 53 53 55 57 59 59 59 59 59 59
60 60 61 61 60 60 60 60 60 60 59 58 58 57 55 52 51 51 50 50 49 50 52 53 54 54 53 54 54 54 53 52 52 52 53 53 55 56 57 59 60 60 60
59 59 59 59 59 59 59 60 59 59 59 59 58 57 56 54 53 53 51 50 49 49 50 49 53 53 53 53 54 53 54 52 51 51 51 52 53 53 54 55 56 57 59
58 58 58 57 57 57 58 59 58 58 59 58 58 57 56 56 55 55 53 51 49 47 48 50 49 53 52 53 53 53 53 53 51 50 51 51 52 52 53 53 53 54 55
58 57 57 57 57 57 57 58 58 58 58 58 58 57 56 56 56 54 53 53 51 49 47 51 51 52 54 53 53 53 53 53 51 50 50 50 50 51 52 52 52 53 53
57 57 57 57 57 57 57 57 57 58 58 58 58 57 56 56 55 54 53 53 53 52 49 51 50 52 53 54 54 54 54 54 54 52 51 50 50 50 50 50 50 50 51
57 56 56 56 56 56 57 57 56 57 57 57 57 57 56 56 55 55 54 53 53 53 49 49 51 51 51 53 54 54 55 55 55 55 54 53 52 51 48 47 47 47 47
57 57 57 56 55 55 56 56 57 56 56 57 57 56 56 56 55 55 55 54 53 53 53 51 50 51 51 52 51 52 52 53 53 53 52 43 44 43 41 41 41 42 42
56 57 56 56 56 56 56 56 56 56 56 56 56 56 56 56 56 55 54 53 53 52 52 52 51 51 51 51 51 50 49 50 50 47 41 40 39 39 38 39 39 40 40
57 57 56 56 55 55 50 54 56 55 55 55 56 56 56 56 56 56 55 54 53 53 53 52 51 50 50 50 49 50 50 50 49 48 45 41 38 37 36 37 37 37 37
45 45 44 43 43 41 40 44 49 55 54 54 54 54 55 54 50 50 49 46 51 53 52 50 50 49 49 50 49 51 51 52 50 39 46 35 35 33 35 35 35 35 35
38 37 37 38 37 37 40 42 46 49 46 45 46 49 45 41 44 40 38 37 36 37 40 48 49 47 46 40 40 43 45 46 44 34 38 32 32 30 33 34 34 33 33
32 33 33 34 34 34 35 36 37 37 35 34 35 36 37 37 38 39 36 35 32 32 33 34 36 32 32 32 35 38 39 37 33 30 32 32 30 28 30 32 31 30 30
30 30 31 32 32 33 34 34 33 32 31 31 32 33 34 35 37 36 34 31 29 29 32 32 31 30 30 31 33 35 35 35 33 28 29 31 29 26 28 29 31 31 30
30 30 29 30 31 31 33 33 32 31 29 29 30 31 32 34 35 33 32 30 27 27 28 29 28 28 26 27 27 29 30 33 30 27 27 28 29 26 24 28 28 27 24

GFSMA_sfc_30mbdewp_111.txt.gz
Dewpoint
64 65 64 64 64 63 63 62 61 61 60 60 60 60 61 62 63 63 64 63 63 63 62 60 59 57 57 57 57 56 55 55 53 54 53 54 54 53 52 54 55 55 54
64 64 63 63 63 63 62 62 61 60 60 60 60 60 60 62 62 63 63 63 62 62 62 60 58 57 56 57 57 54 55 55 54 54 53 53 53 53 55 54 55 55 54
64 64 63 62 63 63 62 61 60 60 59 60 59 60 61 61 62 62 62 63 62 61 61 60 58 57 56 58 56 56 55 55 56 55 55 54 53 53 54 56 55 55 54
63 63 63 63 62 63 62 61 60 60 60 59 59 59 60 61 61 62 62 62 61 60 60 59 58 58 57 58 55 55 55 54 55 56 56 55 53 54 56 55 55 54 54
63 63 62 62 62 62 61 61 60 60 59 59 59 60 60 60 61 61 61 61 61 59 58 58 57 58 57 58 55 56 56 54 55 56 56 55 54 56 56 55 55 55 54
63 63 62 62 62 61 61 61 60 60 60 58 59 59 60 59 60 61 60 61 60 58 57 57 57 58 58 57 57 57 56 56 55 55 55 56 55 56 56 56 55 54 54
63 63 62 62 61 61 61 61 61 60 60 60 58 58 59 59 59 60 60 60 59 57 57 57 58 58 58 57 57 56 55 54 56 55 55 54 56 57 57 56 55 55 54
63 63 62 61 61 61 61 60 60 59 59 59 57 56 54 54 57 58 59 59 58 57 56 57 57 58 57 56 56 57 55 56 57 55 54 53 55 56 57 57 56 56 55
64 63 62 62 61 61 60 60 60 59 58 58 58 56 52 51 54 56 56 57 57 56 56 56 57 57 57 57 57 56 54 56 56 55 53 55 56 56 56 56 56 56 56
63 63 63 62 61 61 61 61 60 60 59 57 58 58 55 53 52 50 55 56 56 56 55 55 56 56 57 57 56 56 55 54 53 55 56 57 56 57 57 57 57 57 56
63 63 62 62 62 62 62 61 61 60 60 58 58 57 55 54 53 51 51 53 55 55 55 55 55 56 56 56 56 56 55 54 53 54 56 57 57 57 58 58 58 58 57
62 62 62 62 61 61 61 61 61 60 60 59 58 57 56 53 52 51 51 52 52 54 55 55 55 55 56 56 56 55 55 54 53 53 54 56 58 59 59 59 59 59 59
60 61 61 61 61 61 61 61 60 60 59 59 58 58 57 55 53 52 51 52 52 52 53 54 55 55 55 55 55 55 54 53 53 53 53 54 55 57 59 60 60 59 59
59 60 61 61 61 61 60 60 59 59 59 59 59 59 58 56 55 54 51 51 50 50 51 52 54 55 55 55 55 54 54 53 52 52 52 53 53 54 54 56 57 59 60
59 60 60 60 60 60 60 59 59 59 59 59 59 59 58 56 55 54 53 52 50 48 49 51 51 53 54 54 54 54 54 53 52 51 51 51 52 52 53 53 54 54 55
59 59 59 59 58 58 58 58 58 58 58 58 58 57 57 56 56 55 54 52 51 50 47 50 51 52 53 53 53 53 53 53 52 51 50 50 50 51 51 52 52 52 53
58 58 58 57 57 57 57 57 56 57 57 58 58 57 56 56 55 55 55 55 53 52 49 51 51 52 53 53 53 53 53 53 53 51 50 49 49 49 49 49 49 50 50
58 58 57 57 57 56 57 56 56 57 57 57 57 57 56 56 55 55 55 54 54 54 52 50 51 51 52 54 54 54 55 54 54 54 51 50 49 49 48 46 46 46 47
57 57 57 56 56 56 56 56 56 56 57 57 57 57 56 56 55 55 54 54 53 54 53 51 49 51 51 52 53 53 53 54 54 44 42 41 41 41 41 42 42 42 42
57 57 56 56 56 56 56 56 56 56 56 57 57 57 57 56 55 55 55 54 54 54 53 53 52 52 52 52 52 50 50 51 49 41 39 39 39 39 39 40 40 40 40
57 57 56 56 56 56 55 56 56 56 56 56 56 56 57 57 56 56 55 55 54 54 53 52 52 51 51 51 50 51 50 50 47 45 42 40 38 37 37 37 37 37 37
39 46 49 49 48 43 42 47 52 55 55 55 55 55 56 55 55 54 54 55 55 53 53 52 52 51 50 51 51 51 51 50 48 40 39 33 35 34 35 36 35 35 35
33 34 35 38 37 37 39 44 47 51 51 49 49 53 49 46 47 44 40 39 38 39 43 52 52 51 50 48 47 48 49 49 46 36 39 30 32 31 34 35 34 33 32
32 31 32 33 34 34 35 37 40 38 36 35 36 38 41 41 41 41 38 35 33 33 33 35 38 34 34 35 39 41 43 37 33 31 34 30 30 28 31 32 33 32 30
31 31 31 31 31 32 34 34 34 33 32 31 32 34 35 37 37 37 35 31 29 29 31 31 31 31 31 32 34 37 37 37 33 30 30 30 28 26 28 29 31 30 28
29 30 29 30 31 31 32 33 32 31 30 30 30 31 33 34 34 34 32 30 28 28 28 28 27 27 27 28 28 29 32 34 30 29 28 30 27 26 24 28 28 25 23

GFSMA_sfc_30mbdewp_114.txt.gz
Dewpoint
65 65 65 64 64 64 63 62 61 60 60 60 61 61 61 62 63 63 64 64 64 64 63 62 60 59 57 57 58 58 56 57 55 55 55 55 55 56 54 53 53 53 54
65 64 64 64 64 63 62 61 61 60 59 59 59 60 60 62 62 63 63 63 63 63 63 62 60 58 57 58 57 57 56 55 56 55 55 55 55 53 54 54 54 55 53
64 64 63 63 63 63 62 61 60 60 59 59 59 59 60 61 62 62 63 63 63 63 62 62 60 59 58 57 56 55 56 57 57 56 55 54 55 52 53 54 55 54 54
64 64 63 62 63 62 61 61 60 59 59 59 59 59 60 61 61 62 62 62 63 63 62 61 60 59 57 57 57 55 56 56 56 56 54 54 53 53 55 55 55 55 55
63 63 63 62 62 62 61 61 60 59 58 58 58 59 59 60 61 62 61 62 62 62 61 60 59 58 57 58 57 56 55 56 57 56 55 55 53 53 55 56 55 55 55
63 63 62 62 62 61 61 61 60 60 59 59 59 59 59 60 60 59 61 61 61 61 60 59 58 58 57 57 58 55 55 56 55 55 55 54 52 55 55 56 55 55 55
63 62 62 61 62 61 60 60 59 58 59 59 58 58 59 59 59 60 61 61 60 60 59 57 57 57 57 57 58 57 57 57 55 55 57 55 54 55 56 57 56 55 55
63 62 62 61 61 61 60 59 60 59 59 60 57 56 54 55 58 59 60 60 60 59 58 57 57 57 58 58 57 58 57 57 57 55 56 57 55 56 56 56 56 56 55
63 62 62 62 61 61 60 61 60 60 58 59 58 55 53 51 54 56 58 59 59 58 58 57 57 57 57 57 56 56 56 55 57 57 57 57 56 54 56 56 55 57 56
63 63 62 62 61 61 61 61 61 60 59 57 58 58 56 54 52 50 55 57 58 57 57 57 56 57 57 57 56 56 55 54 54 58 58 57 55 55 55 55 55 56 56
63 63 63 62 62 62 61 61 61 60 60 58 58 57 57 55 54 52 51 53 56 57 57 57 56 56 57 57 56 56 55 54 53 55 56 55 56 56 55 56 57 57 57
62 62 62 62 62 62 61 61 61 60 60 60 59 58 57 55 53 52 52 53 53 55 56 56 55 55 56 56 56 56 55 54 53 53 54 55 57 57 56 57 57 58 58
61 61 62 61 62 62 62 61 61 61 60 60 59 58 58 57 56 54 52 52 52 53 55 56 56 55 55 56 56 55 55 54 54 53 53 53 55 57 58 59 59 59 59
61 61 62 62 61 61 61 61 61 60 60 60 59 59 58 58 58 56 54 52 51 51 53 53 56 55 55 55 55 55 55 54 53 53 53 53 53 54 55 56 58 60 60
60 60 61 61 60 60 61 61 60 59 59 59 59 59 59 58 58 57 55 54 52 49 50 52 53 55 55 55 55 55 55 54 53 52 52 52 52 53 53 53 54 55 56
59 59 60 60 60 60 60 60 59 59 59 59 59 58 58 59 58 57 56 55 54 52 49 52 52 53 55 54 55 55 54 54 53 52 51 51 51 51 52 52 52 53 53
59 59 59 59 59 58 59 58 58 58 57 57 57 57 57 57 57 56 55 55 54 52 50 52 53 54 53 54 53 54 54 53 53 51 50 50 49 49 49 50 50 50 51
59 59 59 58 58 58 57 57 56 56 56 55 55 57 57 57 56 55 55 54 53 52 51 49 52 52 53 53 53 53 53 53 54 52 50 49 48 48 48 48 47 47 47
59 58 58 57 57 57 56 56 56 56 56 56 57 57 57 57 56 55 55 54 54 53 53 52 52 53 53 53 54 54 55 54 46 43 42 42 43 43 43 43 43 43 42
51 57 57 57 57 57 56 56 56 56 56 56 57 57 57 56 55 55 55 54 54 54 53 53 52 52 52 53 52 52 52 52 44 41 40 40 40 40 40 40 40 40 40
37 40 51 57 57 56 55 56 56 55 55 55 56 57 57 57 56 55 55 54 54 53 53 52 52 52 51 51 52 52 52 50 44 41 39 39 38 38 38 38 38 38 38
35 35 35 37 38 39 37 43 54 55 55 55 55 55 56 56 55 54 54 55 55 53 53 52 52 51 51 51 52 52 51 48 45 43 38 34 36 35 36 36 36 36 35
34 34 34 34 33 34 35 37 42 53 53 50 51 53 52 50 52 47 43 41 40 42 47 53 52 52 52 52 52 51 51 50 47 38 37 30 33 31 34 35 34 33 32
31 32 32 33 33 32 33 34 35 37 37 36 37 40 44 43 43 43 41 38 34 34 35 38 42 40 38 40 47 47 48 38 33 33 35 29 30 29 31 33 33 31 30
29 29 30 30 31 31 33 33 32 32 31 31 32 35 37 38 38 38 37 34 31 30 32 32 32 32 32 34 36 41 40 40 34 31 32 29 28 27 29 29 31 31 28
28 28 28 29 29 29 31 32 32 32 30 30 30 31 33 33 34 34 33 32 30 28 28 28 28 28 28 28 29 32 36 37 31 30 29 28 27 27 24 28 27 27 26

GFSMA_sfc_30mbdewp_120.txt.gz
Dewpoint
66 64 63 63 64 62 62 61 61 61 61 61 61 61 61 62 61 63 63 63 63 63 63 65 62 61 59 59 60 58 58 58 57 57 56 55 57 56 55 55 56 54 55
66 64 63 63 63 62 62 62 61 59 59 59 60 61 60 60 61 61 62 64 63 63 64 64 63 61 59 58 59 58 58 58 57 56 56 56 56 55 54 54 55 54 54
66 65 65 63 63 63 64 63 61 60 59 59 59 60 60 60 61 61 62 61 63 63 63 62 63 62 60 58 58 57 58 58 57 56 56 56 56 55 53 54 53 54 54
66 66 65 64 64 65 64 63 62 61 60 59 58 58 58 58 59 60 61 61 62 60 62 62 64 63 62 59 57 56 56 58 57 56 56 56 56 55 54 54 54 54 53
66 65 65 65 66 65 64 63 62 61 59 59 58 58 58 57 58 58 59 61 62 62 61 63 62 62 62 61 59 57 57 56 56 56 55 56 56 54 53 54 54 54 54
66 65 65 65 65 64 64 64 62 61 60 59 58 58 59 59 58 59 59 59 61 61 62 62 62 62 61 61 60 58 56 55 55 56 56 56 55 55 54 55 54 54 55
65 65 64 65 65 64 63 63 63 61 61 60 60 59 60 60 60 60 60 60 60 61 62 62 63 62 61 60 60 60 56 55 55 56 56 56 56 55 55 54 55 55 55
65 65 64 64 64 63 63 63 62 61 61 61 59 58 56 57 60 60 60 60 60 60 61 61 62 62 60 60 58 60 58 57 56 56 58 57 56 56 55 54 54 55 56
64 64 64 63 63 63 63 62 62 61 60 61 60 56 55 50 50 56 58 58 59 60 60 61 61 61 61 58 56 58 58 58 58 58 58 58 57 57 55 54 55 55 56
63 63 64 64 63 63 62 62 62 61 61 59 60 60 57 53 50 50 57 58 58 59 60 61 61 60 60 59 57 56 57 57 57 58 58 57 58 57 56 55 55 56 56
63 63 63 63 63 63 63 62 62 61 62 60 59 59 58 57 55 53 51 55 58 58 59 60 60 61 60 59 59 56 55 56 55 57 58 58 58 58 57 56 55 56 56
63 64 63 64 63 63 62 63 62 62 62 61 61 59 57 57 56 55 52 51 54 57 59 60 60 60 60 59 58 56 55 55 54 55 56 57 57 57 57 56 55 54 56
63 63 63 63 63 63 63 63 62 62 62 62 61 61 59 58 56 56 55 52 53 54 57 59 59 59 59 59 58 57 55 54 53 53 54 55 56 57 57 56 56 55 56
63 63 64 64 63 64 63 64 63 63 62 62 61 61 60 59 59 57 55 54 53 54 56 55 59 59 59 59 58 57 56 54 53 52 52 53 54 55 56 56 56 56 56
63 63 64 63 63 64 63 63 63 62 62 62 62 62 61 60 60 59 58 56 55 51 52 54 55 58 58 59 58 57 57 54 53 52 52 52 52 53 54 54 55 56 57
61 63 62 63 63 63 63 63 62 62 62 61 61 61 61 60 60 60 59 59 57 55 52 54 55 57 58 58 57 57 57 55 52 52 52 52 52 52 52 52 53 53 54
53 62 62 62 62 62 61 61 61 61 61 61 61 61 60 61 60 60 59 58 58 57 54 55 55 56 57 57 57 57 57 56 54 52 51 51 51 52 52 52 52 52 53
49 55 61 61 61 61 61 60 60 60 60 60 60 60 60 60 59 59 58 58 57 57 56 54 54 55 55 57 56 56 56 55 55 52 51 51 50 50 50 50 50 51 51
43 45 46 50 58 60 60 60 60 59 59 60 60 59 59 59 58 58 58 56 56 56 56 55 53 54 55 56 56 56 56 56 52 47 48 48 48 48 48 48 48 48 48
39 40 40 40 40 40 40 42 48 58 59 59 59 59 59 58 57 57 56 56 56 56 55 54 53 53 54 54 55 54 54 51 48 45 44 45 44 44 45 45 45 44 44
35 36 36 36 36 36 35 36 40 46 55 58 58 58 58 57 56 56 57 56 56 55 54 53 52 52 52 52 52 53 52 50 48 45 43 43 43 43 42 41 41 41 41
33 33 33 33 33 33 34 35 38 46 44 51 55 57 57 56 57 55 55 56 56 55 54 53 52 51 52 52 52 52 51 47 44 44 43 39 41 40 40 40 39 39 39
31 31 31 32 32 31 33 34 35 37 36 36 36 39 42 48 50 55 49 46 44 44 48 54 52 52 52 52 53 52 52 50 49 43 39 33 36 34 36 37 37 37 37
31 30 30 30 30 30 31 32 34 35 33 33 33 33 35 36 36 41 45 40 36 34 36 39 42 42 42 47 53 53 53 47 38 40 38 33 32 31 33 35 35 35 35
31 30 30 30 30 29 30 30 31 32 32 31 31 32 33 33 34 37 38 35 31 30 32 32 31 31 31 32 35 49 48 44 37 35 34 31 30 29 30 31 32 33 32
30 30 30 30 29 29 29 28 29 28 27 26 28 29 30 31 32 33 33 33 30 28 29 29 28 27 27 27 28 30 38 48 37 33 32 30 29 27 24 27 29 28 29

GFSMA_sfc_30mbdewp_123.txt.gz
Dewpoint
65 64 64 64 65 64 62 62 62 62 62 62 61 61 61 61 61 62 64 64 64 63 62 63 64 63 62 61 62 61 58 58 58 58 57 56 56 57 56 56 54 54 53
66 65 64 63 64 64 63 63 62 62 60 60 61 61 60 61 61 61 64 63 62 63 64 64 63 63 61 60 61 59 58 59 59 58 57 55 57 56 55 54 55 53 54
67 64 65 64 65 64 64 63 63 61 61 60 59 61 60 61 60 60 62 64 62 62 62 63 64 63 62 59 59 59 58 58 59 58 57 55 56 55 54 52 54 54 53
66 65 62 63 65 64 64 63 63 61 61 60 59 59 59 60 61 60 62 62 63 61 62 63 62 62 63 61 58 58 57 58 58 58 56 55 55 55 53 52 53 54 53
67 66 62 64 65 64 64 63 62 62 61 60 59 59 59 58 59 58 59 60 62 62 62 62 62 62 62 62 60 58 56 58 57 57 57 56 56 56 55 53 54 53 53
67 67 65 65 66 65 64 64 63 62 61 60 58 58 59 59 59 59 59 59 59 61 62 62 62 62 61 62 61 59 57 57 57 56 56 56 56 56 55 53 54 54 53
67 66 65 65 66 65 64 64 63 62 61 61 60 59 58 60 60 59 59 59 58 60 61 62 62 62 61 61 61 60 58 58 57 57 57 57 57 56 55 54 54 53 52
66 66 65 65 65 64 64 64 64 62 62 62 60 59 57 58 59 59 59 59 59 58 58 61 62 62 61 61 60 61 60 59 58 57 58 58 58 56 55 54 54 54 54
65 65 66 65 65 64 63 63 63 62 61 62 62 57 54 50 49 58 59 59 58 60 59 60 62 62 61 60 60 60 60 59 59 58 59 59 58 57 55 54 54 55 55
64 65 65 65 64 64 63 62 63 63 62 60 61 61 59 53 49 47 54 56 57 57 59 60 61 61 60 61 59 58 57 58 58 58 58 59 59 58 57 56 55 54 55
63 64 64 65 64 63 63 63 62 62 62 61 60 60 60 58 56 53 50 54 55 55 58 60 60 60 61 61 59 58 56 57 57 58 58 59 59 59 58 57 56 54 55
62 63 63 64 64 63 63 63 63 62 62 62 61 59 58 56 54 55 54 53 54 55 55 56 60 60 61 61 60 58 56 56 56 56 58 59 59 59 59 58 56 56 56
62 62 63 64 64 64 63 63 63 62 62 62 61 61 60 58 57 56 55 54 52 53 57 58 58 60 61 61 61 58 56 55 54 55 56 58 58 58 58 58 57 56 56
63 63 63 64 64 64 64 63 63 62 62 62 61 62 61 60 60 58 56 55 54 55 54 56 57 59 60 60 60 58 58 54 54 54 54 55 57 57 57 57 57 57 56
60 64 64 64 64 64 64 63 63 63 63 63 63 62 61 61 60 59 59 58 56 53 53 53 54 57 59 60 60 59 59 57 54 53 53 53 54 55 55 56 56 56 56
55 57 64 64 64 64 64 64 63 63 64 63 63 62 62 62 61 61 61 60 59 57 54 53 54 55 59 59 59 59 59 57 54 53 52 51 52 53 53 53 54 55 55
50 52 58 63 63 63 63 63 62 62 62 62 62 62 61 61 61 61 61 60 59 58 56 56 55 56 57 58 58 59 59 57 57 54 53 51 51 51 51 52 52 53 54
45 45 48 49 55 60 62 61 61 61 61 61 61 58 60 61 61 60 60 59 59 58 57 55 56 56 56 58 58 58 58 58 58 54 53 51 50 50 50 50 51 51 51
39 40 40 41 40 40 41 43 46 57 60 60 61 61 60 61 60 60 60 59 59 58 58 56 55 56 56 57 57 57 57 57 57 53 51 49 49 50 50 49 50 50 51
35 35 36 36 37 36 36 37 40 44 49 55 60 60 60 60 60 59 59 59 58 58 57 56 56 55 54 55 56 55 54 56 49 46 46 48 47 47 47 48 48 48 48
33 34 34 33 34 33 34 35 38 44 47 47 50 58 59 60 59 59 59 58 58 57 56 55 54 54 53 53 52 54 53 51 47 45 43 43 44 44 43 44 45 45 46
32 32 32 32 32 31 33 35 37 38 37 37 38 41 44 49 45 54 56 56 57 56 56 54 54 52 52 53 53 53 53 47 45 45 43 41 43 41 41 42 42 41 42
31 31 31 31 30 30 31 32 34 34 33 32 32 33 36 37 38 39 46 46 42 41 42 52 54 53 53 53 53 53 52 49 49 44 41 35 37 35 38 38 39 39 39
31 30 30 30 30 29 30 31 31 31 30 30 30 30 31 33 34 36 41 38 34 33 33 35 38 37 36 37 48 53 52 49 42 43 40 36 33 32 34 37 38 37 37
31 30 30 29 29 29 29 29 31 29 28 28 28 29 29 30 32 34 36 33 32 31 32 31 31 31 31 31 32 46 48 45 39 38 36 32 31 29 31 31 33 34 34
30 31 30 30 28 28 28 28 29 30 30 29 28 28 29 29 30 30 32 32 31 28 29 29 28 28 28 28 28 29 33 46 40 36 34 32 29 28 25 29 30 30 32

GFSMA_sfc_30mbdewp_129.txt.gz
Dewpoint
66 66 67 67 67 67 66 65 65 65 65 64 64 64 63 63 64 64 64 65 62 62 64 64 63 64 63 63 63 63 62 61 60 59 57 57 57 57 57 57 56 56 57
67 66 66 66 66 66 66 65 65 64 64 64 62 62 62 62 64 65 63 65 65 63 64 64 64 64 63 63 63 63 62 61 61 59 55 55 55 53 54 56 55 54 54
67 66 65 66 66 66 65 64 64 63 63 63 61 62 61 62 62 64 63 64 64 64 63 64 64 65 64 63 63 63 62 62 60 59 56 54 53 54 55 55 53 52 52
67 66 65 65 65 65 64 64 63 62 62 62 61 61 61 61 61 64 64 63 64 64 63 64 64 64 64 64 63 62 62 61 60 60 57 54 54 55 54 54 52 54 53
68 66 66 65 66 65 64 64 63 62 61 61 61 62 61 61 61 63 64 63 62 62 61 62 64 64 64 64 63 61 60 60 60 60 58 55 54 55 54 52 52 54 54
68 67 66 65 66 65 64 63 62 62 61 60 61 60 61 61 62 61 62 63 63 62 62 61 63 63 63 63 63 62 60 59 59 59 59 56 55 54 54 53 53 54 54
68 67 66 65 66 64 63 63 62 61 61 62 60 59 60 60 60 60 61 61 63 63 62 62 61 62 62 63 63 63 60 59 59 59 59 58 55 54 55 54 53 53 53
67 67 65 65 65 64 63 63 62 62 62 62 59 58 56 57 59 60 60 59 61 62 62 62 62 61 61 61 62 63 62 61 60 60 60 59 57 55 55 55 54 53 52
66 66 65 65 65 65 63 63 63 62 61 62 60 58 55 53 57 59 59 60 59 60 61 62 62 62 61 61 61 61 61 61 61 60 60 60 59 58 57 56 55 54 53
65 65 64 64 65 64 64 63 62 62 62 61 61 59 57 56 52 55 59 59 59 59 59 61 62 62 62 61 60 60 60 60 60 61 60 60 60 58 58 57 56 55 54
64 65 64 63 62 63 63 63 61 60 62 61 61 60 59 59 59 57 54 57 59 59 59 59 61 62 62 62 61 60 59 59 59 59 61 61 60 59 58 58 57 56 55
62 65 65 63 63 63 62 62 62 61 60 61 62 60 59 58 57 57 56 55 56 57 59 59 60 61 62 62 62 60 58 58 57 58 59 60 60 60 59 58 58 57 56
51 64 65 63 63 63 63 62 61 62 61 60 61 61 60 59 58 57 57 55 54 56 56 58 59 61 61 61 61 60 59 57 57 57 57 58 59 60 60 59 58 58 57
51 64 64 63 63 63 63 62 62 62 62 62 61 62 61 60 59 59 57 56 54 54 55 55 58 60 61 61 61 59 59 57 56 56 55 56 57 58 59 59 59 58 57
51 52 63 63 63 63 63 63 62 62 62 62 62 61 61 61 61 60 60 59 56 53 53 55 56 59 60 61 61 60 60 59 56 55 54 54 55 56 58 58 58 58 57
51 48 48 54 60 61 63 63 62 62 62 62 62 61 61 60 60 61 61 60 59 56 54 55 56 58 59 60 60 60 60 59 57 54 53 53 54 55 56 57 57 57 57
45 45 43 42 44 46 48 53 57 60 62 62 62 61 61 61 61 62 60 57 54 55 53 56 58 59 58 58 59 60 60 59 59 55 53 53 52 53 54 55 56 56 56
40 39 38 39 39 41 43 45 46 49 51 51 55 60 61 61 61 59 57 56 56 57 57 54 57 57 57 58 58 59 59 59 59 58 56 54 52 51 51 52 53 54 54
34 35 35 35 35 36 40 42 43 43 43 43 44 46 45 44 46 47 55 58 59 59 59 58 57 57 58 57 58 58 58 58 59 58 57 55 54 51 50 51 52 52 53
32 32 32 33 34 34 36 38 37 38 38 38 38 41 39 38 38 39 43 46 52 58 59 58 57 57 57 57 57 56 56 57 57 57 56 55 54 51 50 49 50 51 52
32 32 31 31 32 33 33 34 34 33 33 33 33 35 35 34 35 36 39 39 40 46 55 58 57 57 56 55 55 56 55 55 55 54 53 50 50 50 50 47 49 49 50
30 29 29 29 30 31 33 32 31 30 30 30 30 31 31 31 32 34 38 34 34 37 41 43 51 55 55 55 54 54 54 53 50 48 49 48 45 46 45 47 49 50 48
29 28 28 27 28 29 30 31 31 30 29 29 29 29 29 30 30 32 36 34 33 33 32 34 36 34 35 33 34 51 53 53 52 49 47 46 39 40 37 40 41 43 45
28 27 26 26 26 27 29 29 29 29 29 28 28 28 28 28 29 29 31 32 30 30 31 31 31 30 31 31 32 34 37 40 46 46 44 45 34 35 35 37 39 40 40
28 27 26 25 24 25 27 28 28 27 27 27 27 27 27 27 28 29 27 27 27 27 29 30 31 31 30 31 31 33 37 39 42 41 40 42 33 31 31 32 36 37 37
25 25 26 23 22 23 24 24 26 27 27 26 27 28 28 26 27 27 27 27 25 25 26 27 27 28 28 28 28 28 28 31 34 38 35 37 31 31 31 29 30 32 34

GFSMA_sfc_30mbdewp_132.txt.gz
Dewpoint
68 67 67 67 68 67 66 66 65 65 65 65 65 64 64 64 65 63 64 65 65 64 66 65 64 63 64 64 64 64 64 62 61 60 59 59 58 58 57 56 58 58 58
68 67 67 67 67 67 66 66 65 65 64 64 64 64 64 63 64 63 64 65 64 64 64 65 64 64 64 63 64 64 63 63 61 60 58 57 57 57 56 56 56 56 54
67 67 66 67 67 66 66 65 65 64 63 64 63 63 63 63 64 64 64 65 62 62 64 64 65 65 64 63 64 64 63 62 62 61 58 56 54 55 54 56 55 55 54
67 66 66 66 66 66 65 65 64 63 62 63 62 62 62 62 63 64 63 64 64 64 62 63 64 64 64 64 63 63 62 62 62 61 59 56 54 54 54 55 55 55 55
67 66 66 66 66 66 65 64 63 63 62 62 62 62 62 61 62 64 63 63 64 63 63 63 63 64 64 64 64 63 62 61 61 61 59 57 54 54 55 55 54 54 55
66 66 66 65 65 65 64 64 63 63 62 62 61 61 61 62 62 63 63 63 63 63 63 62 63 63 63 63 64 63 63 62 60 60 60 58 56 55 55 55 54 54 54
62 65 66 65 65 64 64 63 63 62 61 61 60 59 60 61 61 62 63 63 62 62 62 61 62 63 63 63 63 63 62 61 60 60 60 59 57 56 56 54 55 55 55
62 63 64 65 65 64 64 63 62 61 61 61 59 59 57 58 59 61 61 61 62 63 62 61 61 62 62 62 63 63 63 62 61 61 60 60 58 56 56 55 55 54 54
59 62 65 65 65 65 64 63 62 61 60 61 60 57 54 54 56 58 59 59 60 61 62 62 61 61 61 61 62 62 62 62 61 61 61 60 60 58 56 56 56 55 54
55 59 63 64 65 65 64 63 62 61 60 59 60 59 56 55 54 54 58 59 59 59 60 61 61 61 61 61 61 61 61 61 61 61 61 61 60 59 57 57 56 56 55
52 54 55 63 64 65 64 63 62 61 61 60 60 59 57 58 57 55 54 57 58 59 59 60 61 61 61 61 61 61 59 59 60 60 61 61 61 60 58 57 57 56 56
51 54 52 53 64 64 64 63 63 62 62 61 61 60 59 56 57 57 55 55 56 58 59 59 60 61 61 62 61 60 59 58 58 59 59 60 61 60 59 58 58 57 57
50 53 54 54 55 63 64 64 63 62 62 61 61 61 60 59 58 57 56 55 55 56 57 59 59 60 61 62 62 61 59 57 57 57 58 58 60 60 60 59 59 58 58
52 52 50 50 57 58 63 62 62 61 61 60 59 61 60 60 60 58 57 56 54 54 55 55 58 59 60 61 61 60 60 58 56 56 56 57 58 59 59 59 59 58 58
52 49 47 48 55 57 62 61 61 61 61 60 60 60 60 61 60 59 58 57 56 53 53 55 55 58 60 60 61 60 60 60 56 56 55 55 56 57 58 58 59 58 58
49 45 45 47 47 60 62 62 61 62 61 62 61 61 61 61 61 60 60 59 58 57 54 55 55 58 59 60 60 60 60 59 57 55 55 54 55 55 55 57 58 58 58
41 40 40 41 43 45 53 60 60 61 61 61 61 61 60 61 60 60 61 60 59 56 51 51 54 56 58 59 59 60 60 60 59 56 54 53 53 53 53 54 55 57 57
36 37 38 39 38 40 43 45 47 48 49 49 49 50 48 53 58 56 60 59 58 57 54 52 53 56 58 59 59 59 59 60 60 59 56 54 52 51 51 52 53 54 55
33 33 34 34 35 36 38 39 39 41 42 42 41 40 40 42 42 43 47 50 53 57 56 55 54 56 57 58 58 58 58 59 60 59 57 55 53 51 50 50 51 52 53
31 31 32 32 33 33 34 34 35 34 35 36 37 35 35 36 36 38 42 42 44 47 51 57 57 57 57 57 57 57 56 58 58 58 58 57 55 53 51 50 50 50 50
29 30 29 30 31 32 32 32 32 32 32 32 33 33 33 34 35 37 37 36 38 41 44 48 52 56 56 56 55 56 56 56 57 58 56 55 54 53 54 49 49 48 48
27 27 28 29 29 30 32 32 32 31 31 30 30 31 31 31 32 35 34 33 33 33 36 38 42 41 42 38 38 40 53 55 52 52 54 54 49 51 50 49 48 47 47
25 25 26 27 27 29 30 30 30 30 29 29 28 29 29 29 30 30 33 31 31 32 31 32 32 31 32 31 32 35 40 42 51 49 51 51 44 46 41 41 41 43 44
22 22 23 24 25 26 27 28 28 28 27 28 28 27 27 28 29 29 28 27 27 28 30 31 30 30 30 31 30 31 33 35 39 44 46 47 39 42 35 37 39 40 40
21 19 19 21 21 23 25 25 26 27 27 27 28 29 27 27 28 28 27 27 26 26 28 28 29 29 29 29 29 30 29 31 36 40 37 39 35 34 32 33 35 37 37
19 18 17 17 19 20 23 24 24 25 25 26 27 29 29 26 27 27 27 26 25 25 24 24 25 26 28 29 29 28 27 27 29 35 31 32 33 33 35 29 30 32 34

GFSMA_sfc_30mbdewp_138.txt.gz
Dewpoint
66 66 66 66 67 67 67 66 66 65 64 64 64 64 64 64 64 64 63 63 64 66 66 65 65 65 64 64 63 64 64 64 64 64 64 63 63 63 62 61 60 60 60
64 65 65 65 66 66 66 66 65 64 63 64 64 64 63 63 63 64 63 63 64 64 65 66 65 65 63 62 62 63 64 63 64 63 63 63 62 61 58 55 57 58 59
51 63 64 65 66 66 66 65 65 64 63 64 64 64 64 63 63 63 63 63 64 64 64 65 65 65 64 63 62 62 62 63 63 63 63 62 61 59 57 55 55 56 57
48 51 63 64 66 66 65 65 64 63 62 63 63 63 64 63 63 64 63 63 63 63 63 64 65 65 64 64 63 62 62 63 63 63 62 62 61 59 58 56 55 54 56
45 51 53 63 65 65 65 64 63 63 62 62 62 62 63 63 63 63 63 63 62 62 62 62 63 64 64 64 64 63 62 62 63 62 62 61 60 59 58 56 55 54 55
43 47 47 52 64 64 64 64 63 63 62 62 62 61 62 63 63 63 63 63 63 62 62 61 62 63 63 64 64 64 62 62 62 61 62 61 60 58 56 55 56 56 56
41 42 44 51 60 58 61 63 63 62 61 62 60 60 60 61 61 63 63 63 63 63 62 61 61 62 62 63 63 63 63 63 62 62 62 61 60 58 56 55 56 57 56
42 46 49 52 54 59 55 63 63 61 61 61 59 58 56 58 60 61 63 62 62 63 62 62 61 61 62 62 62 63 63 63 63 63 62 62 60 59 56 57 56 57 56
40 44 47 49 50 55 58 60 63 62 59 61 60 57 54 53 57 59 61 61 61 61 61 61 61 61 61 61 62 62 62 63 63 63 62 62 62 60 57 57 57 57 57
37 40 44 46 49 54 59 59 62 62 61 59 60 59 56 55 54 55 57 59 61 60 60 60 60 60 61 61 61 61 61 61 61 62 63 62 62 61 59 58 58 58 57
37 40 43 44 48 53 53 59 61 62 62 59 60 59 56 55 54 53 54 56 57 59 60 60 60 60 60 60 61 61 60 60 60 61 62 62 62 62 61 59 58 58 58
40 40 42 45 51 53 53 54 59 55 57 61 60 59 58 55 54 52 52 54 55 57 59 60 60 61 60 60 60 60 59 59 59 59 60 61 62 62 61 60 59 58 58
41 42 42 47 49 52 53 54 57 57 55 59 60 59 59 57 56 55 52 53 54 55 57 59 59 60 61 61 61 60 59 58 58 58 59 59 60 61 61 61 60 59 58
41 44 45 48 49 54 53 54 57 56 55 55 60 60 59 59 58 56 54 53 52 54 55 56 58 59 60 60 61 60 60 57 57 57 57 58 58 59 60 61 60 60 59
39 42 47 48 50 50 53 56 55 56 56 55 57 60 60 60 59 58 56 55 53 51 52 54 55 58 60 60 60 60 60 59 56 56 55 56 57 58 58 59 59 59 59
37 41 44 44 46 46 48 52 53 54 54 54 56 56 60 60 59 59 58 57 56 54 52 55 55 56 58 59 59 60 60 59 57 55 55 54 55 56 56 57 58 58 58
33 36 39 40 40 41 42 51 53 54 54 53 48 51 58 60 60 60 59 59 58 57 55 56 56 56 56 57 58 59 59 59 59 56 55 54 53 53 54 55 56 57 57
31 33 35 36 37 38 38 41 41 41 40 40 40 42 41 45 52 55 60 59 59 59 57 56 55 55 56 56 56 57 58 59 60 59 56 55 54 53 53 52 53 54 55
29 31 32 33 35 36 37 37 36 36 35 35 34 35 35 36 37 44 45 49 52 55 58 57 56 54 54 55 55 57 57 58 59 59 57 55 54 52 51 50 51 52 52
26 29 29 31 32 33 34 34 35 35 34 34 34 34 33 33 33 35 36 37 41 47 48 51 56 55 55 56 56 54 55 57 57 58 58 58 56 55 52 50 50 49 49
25 28 28 28 30 30 31 31 31 32 32 32 32 32 33 34 33 33 32 32 34 38 41 43 43 45 40 39 37 39 44 44 50 52 56 57 56 54 52 49 50 48 49
23 24 27 27 27 29 31 31 30 28 29 29 29 30 30 31 32 32 32 32 31 30 33 36 34 33 32 31 33 33 37 40 45 42 40 44 49 54 55 53 52 51 49
20 22 23 25 25 26 28 28 28 28 27 26 27 27 27 29 29 30 30 29 29 30 30 31 30 29 30 29 30 31 32 33 36 38 37 41 45 45 44 42 41 42 42
19 19 21 22 24 25 26 25 25 26 25 27 26 26 26 26 28 28 27 26 25 26 28 29 28 28 29 30 28 29 30 31 33 34 32 37 37 39 37 36 36 38 38
18 18 18 20 21 24 24 23 23 24 23 23 24 25 25 24 25 25 24 24 23 23 26 27 27 27 27 27 28 27 25 28 31 32 27 28 33 34 35 33 32 34 35
17 18 17 17 19 20 20 20 21 21 20 20 20 21 21 22 22 22 22 21 21 22 24 24 24 23 24 24 24 26 26 24 25 28 25 26 30 32 33 32 30 30 32